<?xml version="1.0" encoding="UTF-8" standalone="no" ?>
<gpx xmlns="http://www.topografix.com/GPX/1/1" xmlns:xsi="http://www.w3.org/2001/XMLSchema-instance" xsi:schemaLocation="http://www.topografix.com/GPX/1/1 http://www.topografix.com/GPX/1/1/gpx.xsd" version="1.1" creator="VisuGPX - https://www.visugpx.com">
  <metadata>
    <name>Vercors19-3Vtt</name>
    <desc><![CDATA[Les Crête de la Molière entre Les Aigaux et villard de Lans en Vercors]]></desc>
  </metadata>
  <trk>
    <name><![CDATA[Vercors19-3Vtt]]></name>
    <trkseg>
      <trkpt lat="45.16371" lon="5.59753">
        <ele>1240.59</ele>
        <time>2019-08-27T07:40:07Z</time>
      </trkpt>
      <trkpt lat="45.16369" lon="5.59755">
        <ele>1240.59</ele>
        <time>2019-08-27T07:40:08Z</time>
      </trkpt>
      <trkpt lat="45.16369" lon="5.59754">
        <ele>1240.6</ele>
        <time>2019-08-27T07:40:18Z</time>
      </trkpt>
      <trkpt lat="45.1637" lon="5.59755">
        <ele>1240.62</ele>
        <time>2019-08-27T07:40:38Z</time>
      </trkpt>
      <trkpt lat="45.16366" lon="5.59751">
        <ele>1240.8</ele>
        <time>2019-08-27T07:41:18Z</time>
      </trkpt>
      <trkpt lat="45.16365" lon="5.59753">
        <ele>1241.18</ele>
        <time>2019-08-27T07:42:35Z</time>
      </trkpt>
      <trkpt lat="45.16363" lon="5.59752">
        <ele>1241.24</ele>
        <time>2019-08-27T07:44:48Z</time>
      </trkpt>
      <trkpt lat="45.16366" lon="5.59754">
        <ele>1241.7</ele>
        <time>2019-08-27T07:46:37Z</time>
      </trkpt>
      <trkpt lat="45.16373" lon="5.5975">
        <ele>1242.24</ele>
        <time>2019-08-27T07:46:53Z</time>
      </trkpt>
      <trkpt lat="45.16382" lon="5.59743">
        <ele>1243.52</ele>
        <time>2019-08-27T07:47:02Z</time>
      </trkpt>
      <trkpt lat="45.16384" lon="5.59732">
        <ele>1244.66</ele>
        <time>2019-08-27T07:47:11Z</time>
      </trkpt>
      <trkpt lat="45.16381" lon="5.59715">
        <ele>1246.82</ele>
        <time>2019-08-27T07:47:30Z</time>
      </trkpt>
      <trkpt lat="45.16374" lon="5.59704">
        <ele>1248.05</ele>
        <time>2019-08-27T07:47:47Z</time>
      </trkpt>
      <trkpt lat="45.16373" lon="5.59701">
        <ele>1248.85</ele>
        <time>2019-08-27T07:48:09Z</time>
      </trkpt>
      <trkpt lat="45.16372" lon="5.597">
        <ele>1249.12</ele>
        <time>2019-08-27T07:48:32Z</time>
      </trkpt>
      <trkpt lat="45.16369" lon="5.59694">
        <ele>1249.37</ele>
        <time>2019-08-27T07:48:38Z</time>
      </trkpt>
      <trkpt lat="45.16357" lon="5.5967">
        <ele>1251.67</ele>
        <time>2019-08-27T07:49:00Z</time>
      </trkpt>
      <trkpt lat="45.16346" lon="5.59648">
        <ele>1253.83</ele>
        <time>2019-08-27T07:49:19Z</time>
      </trkpt>
      <trkpt lat="45.16334" lon="5.59628">
        <ele>1256.02</ele>
        <time>2019-08-27T07:49:37Z</time>
      </trkpt>
      <trkpt lat="45.16323" lon="5.59612">
        <ele>1258.12</ele>
        <time>2019-08-27T07:49:54Z</time>
      </trkpt>
      <trkpt lat="45.16308" lon="5.59589">
        <ele>1260.35</ele>
        <time>2019-08-27T07:50:14Z</time>
      </trkpt>
      <trkpt lat="45.16295" lon="5.59571">
        <ele>1262.37</ele>
        <time>2019-08-27T07:50:31Z</time>
      </trkpt>
      <trkpt lat="45.16288" lon="5.59564">
        <ele>1263.45</ele>
        <time>2019-08-27T07:50:38Z</time>
      </trkpt>
      <trkpt lat="45.16275" lon="5.59556">
        <ele>1265.22</ele>
        <time>2019-08-27T07:50:52Z</time>
      </trkpt>
      <trkpt lat="45.16275" lon="5.59555">
        <ele>1265.33</ele>
        <time>2019-08-27T07:50:53Z</time>
      </trkpt>
      <trkpt lat="45.16269" lon="5.5955">
        <ele>1266.49</ele>
        <time>2019-08-27T07:51:06Z</time>
      </trkpt>
      <trkpt lat="45.16266" lon="5.59548">
        <ele>1266.76</ele>
        <time>2019-08-27T07:51:10Z</time>
      </trkpt>
      <trkpt lat="45.16256" lon="5.59541">
        <ele>1267.48</ele>
        <time>2019-08-27T07:51:19Z</time>
      </trkpt>
      <trkpt lat="45.16254" lon="5.59539">
        <ele>1267.77</ele>
        <time>2019-08-27T07:51:21Z</time>
      </trkpt>
      <trkpt lat="45.16234" lon="5.5952">
        <ele>1270.41</ele>
        <time>2019-08-27T07:51:40Z</time>
      </trkpt>
      <trkpt lat="45.16218" lon="5.59501">
        <ele>1272.71</ele>
        <time>2019-08-27T07:51:56Z</time>
      </trkpt>
      <trkpt lat="45.16208" lon="5.59481">
        <ele>1274.88</ele>
        <time>2019-08-27T07:52:11Z</time>
      </trkpt>
      <trkpt lat="45.16207" lon="5.59478">
        <ele>1275.27</ele>
        <time>2019-08-27T07:52:14Z</time>
      </trkpt>
      <trkpt lat="45.16198" lon="5.5946">
        <ele>1277.71</ele>
        <time>2019-08-27T07:52:30Z</time>
      </trkpt>
      <trkpt lat="45.16184" lon="5.59438">
        <ele>1280.74</ele>
        <time>2019-08-27T07:52:48Z</time>
      </trkpt>
      <trkpt lat="45.16172" lon="5.59423">
        <ele>1282.77</ele>
        <time>2019-08-27T07:53:01Z</time>
      </trkpt>
      <trkpt lat="45.16162" lon="5.59406">
        <ele>1284.48</ele>
        <time>2019-08-27T07:53:15Z</time>
      </trkpt>
      <trkpt lat="45.1616" lon="5.59403">
        <ele>1284.92</ele>
        <time>2019-08-27T07:53:18Z</time>
      </trkpt>
      <trkpt lat="45.16151" lon="5.59386">
        <ele>1287.09</ele>
        <time>2019-08-27T07:53:34Z</time>
      </trkpt>
      <trkpt lat="45.16148" lon="5.59377">
        <ele>1288.04</ele>
        <time>2019-08-27T07:53:41Z</time>
      </trkpt>
      <trkpt lat="45.16143" lon="5.59364">
        <ele>1288.99</ele>
        <time>2019-08-27T07:53:48Z</time>
      </trkpt>
      <trkpt lat="45.16137" lon="5.59352">
        <ele>1290.38</ele>
        <time>2019-08-27T07:53:56Z</time>
      </trkpt>
      <trkpt lat="45.16126" lon="5.59333">
        <ele>1292.74</ele>
        <time>2019-08-27T07:54:11Z</time>
      </trkpt>
      <trkpt lat="45.16123" lon="5.5933">
        <ele>1293.2</ele>
        <time>2019-08-27T07:54:14Z</time>
      </trkpt>
      <trkpt lat="45.16116" lon="5.59324">
        <ele>1294.3</ele>
        <time>2019-08-27T07:54:21Z</time>
      </trkpt>
      <trkpt lat="45.16112" lon="5.59322">
        <ele>1294.86</ele>
        <time>2019-08-27T07:54:25Z</time>
      </trkpt>
      <trkpt lat="45.161" lon="5.59314">
        <ele>1296.94</ele>
        <time>2019-08-27T07:54:37Z</time>
      </trkpt>
      <trkpt lat="45.16098" lon="5.59314">
        <ele>1297.46</ele>
        <time>2019-08-27T07:54:39Z</time>
      </trkpt>
      <trkpt lat="45.16087" lon="5.59302">
        <ele>1299.79</ele>
        <time>2019-08-27T07:54:55Z</time>
      </trkpt>
      <trkpt lat="45.16067" lon="5.59286">
        <ele>1302.85</ele>
        <time>2019-08-27T07:55:15Z</time>
      </trkpt>
      <trkpt lat="45.16051" lon="5.59271">
        <ele>1305.88</ele>
        <time>2019-08-27T07:55:35Z</time>
      </trkpt>
      <trkpt lat="45.16032" lon="5.59258">
        <ele>1308.92</ele>
        <time>2019-08-27T07:55:55Z</time>
      </trkpt>
      <trkpt lat="45.16018" lon="5.59236">
        <ele>1310.96</ele>
        <time>2019-08-27T07:56:11Z</time>
      </trkpt>
      <trkpt lat="45.16012" lon="5.59223">
        <ele>1312.38</ele>
        <time>2019-08-27T07:56:19Z</time>
      </trkpt>
      <trkpt lat="45.16012" lon="5.59208">
        <ele>1313.75</ele>
        <time>2019-08-27T07:56:38Z</time>
      </trkpt>
      <trkpt lat="45.16014" lon="5.59207">
        <ele>1314.09</ele>
        <time>2019-08-27T07:57:04Z</time>
      </trkpt>
      <trkpt lat="45.16013" lon="5.59207">
        <ele>1314.34</ele>
        <time>2019-08-27T07:57:35Z</time>
      </trkpt>
      <trkpt lat="45.16018" lon="5.59209">
        <ele>1314.41</ele>
        <time>2019-08-27T07:57:50Z</time>
      </trkpt>
      <trkpt lat="45.1604" lon="5.59228">
        <ele>1316.75</ele>
        <time>2019-08-27T07:58:12Z</time>
      </trkpt>
      <trkpt lat="45.16049" lon="5.59232">
        <ele>1317.97</ele>
        <time>2019-08-27T07:58:21Z</time>
      </trkpt>
      <trkpt lat="45.16063" lon="5.59234">
        <ele>1320.34</ele>
        <time>2019-08-27T07:58:37Z</time>
      </trkpt>
      <trkpt lat="45.16078" lon="5.59232">
        <ele>1322.52</ele>
        <time>2019-08-27T07:58:55Z</time>
      </trkpt>
      <trkpt lat="45.16092" lon="5.59231">
        <ele>1325.28</ele>
        <time>2019-08-27T07:59:14Z</time>
      </trkpt>
      <trkpt lat="45.16113" lon="5.59236">
        <ele>1328.34</ele>
        <time>2019-08-27T07:59:35Z</time>
      </trkpt>
      <trkpt lat="45.16133" lon="5.59233">
        <ele>1331.34</ele>
        <time>2019-08-27T07:59:57Z</time>
      </trkpt>
      <trkpt lat="45.1615" lon="5.59233">
        <ele>1334.05</ele>
        <time>2019-08-27T08:00:15Z</time>
      </trkpt>
      <trkpt lat="45.16166" lon="5.59241">
        <ele>1336.66</ele>
        <time>2019-08-27T08:00:35Z</time>
      </trkpt>
      <trkpt lat="45.1618" lon="5.5925">
        <ele>1339.22</ele>
        <time>2019-08-27T08:00:52Z</time>
      </trkpt>
      <trkpt lat="45.16195" lon="5.59261">
        <ele>1342.15</ele>
        <time>2019-08-27T08:01:10Z</time>
      </trkpt>
      <trkpt lat="45.16208" lon="5.59267">
        <ele>1344.38</ele>
        <time>2019-08-27T08:01:25Z</time>
      </trkpt>
      <trkpt lat="45.16221" lon="5.59272">
        <ele>1347.38</ele>
        <time>2019-08-27T08:01:41Z</time>
      </trkpt>
      <trkpt lat="45.16236" lon="5.59278">
        <ele>1350.22</ele>
        <time>2019-08-27T08:01:57Z</time>
      </trkpt>
      <trkpt lat="45.16252" lon="5.59286">
        <ele>1352.71</ele>
        <time>2019-08-27T08:02:15Z</time>
      </trkpt>
      <trkpt lat="45.16266" lon="5.5929">
        <ele>1355.22</ele>
        <time>2019-08-27T08:02:31Z</time>
      </trkpt>
      <trkpt lat="45.16282" lon="5.59298">
        <ele>1358.29</ele>
        <time>2019-08-27T08:02:52Z</time>
      </trkpt>
      <trkpt lat="45.16297" lon="5.59306">
        <ele>1361.41</ele>
        <time>2019-08-27T08:03:10Z</time>
      </trkpt>
      <trkpt lat="45.16308" lon="5.59311">
        <ele>1363.14</ele>
        <time>2019-08-27T08:03:23Z</time>
      </trkpt>
      <trkpt lat="45.16324" lon="5.59315">
        <ele>1365.48</ele>
        <time>2019-08-27T08:03:38Z</time>
      </trkpt>
      <trkpt lat="45.1634" lon="5.5932">
        <ele>1367.99</ele>
        <time>2019-08-27T08:03:55Z</time>
      </trkpt>
      <trkpt lat="45.16341" lon="5.59321">
        <ele>1368.11</ele>
        <time>2019-08-27T08:03:56Z</time>
      </trkpt>
      <trkpt lat="45.16359" lon="5.59325">
        <ele>1371.04</ele>
        <time>2019-08-27T08:04:14Z</time>
      </trkpt>
      <trkpt lat="45.16376" lon="5.59325">
        <ele>1373.71</ele>
        <time>2019-08-27T08:04:32Z</time>
      </trkpt>
      <trkpt lat="45.16392" lon="5.59323">
        <ele>1376.11</ele>
        <time>2019-08-27T08:04:47Z</time>
      </trkpt>
      <trkpt lat="45.16398" lon="5.5932">
        <ele>1376.99</ele>
        <time>2019-08-27T08:04:53Z</time>
      </trkpt>
      <trkpt lat="45.16406" lon="5.59312">
        <ele>1378.32</ele>
        <time>2019-08-27T08:05:03Z</time>
      </trkpt>
      <trkpt lat="45.16416" lon="5.59301">
        <ele>1379.15</ele>
        <time>2019-08-27T08:05:13Z</time>
      </trkpt>
      <trkpt lat="45.16427" lon="5.5929">
        <ele>1380.55</ele>
        <time>2019-08-27T08:05:24Z</time>
      </trkpt>
      <trkpt lat="45.16431" lon="5.59287">
        <ele>1381.17</ele>
        <time>2019-08-27T08:05:28Z</time>
      </trkpt>
      <trkpt lat="45.16436" lon="5.5928">
        <ele>1381.97</ele>
        <time>2019-08-27T08:05:33Z</time>
      </trkpt>
      <trkpt lat="45.16442" lon="5.59274">
        <ele>1382.83</ele>
        <time>2019-08-27T08:05:38Z</time>
      </trkpt>
      <trkpt lat="45.16447" lon="5.59265">
        <ele>1383.9</ele>
        <time>2019-08-27T08:05:44Z</time>
      </trkpt>
      <trkpt lat="45.16456" lon="5.59259">
        <ele>1384.91</ele>
        <time>2019-08-27T08:05:51Z</time>
      </trkpt>
      <trkpt lat="45.1646" lon="5.59253">
        <ele>1385.63</ele>
        <time>2019-08-27T08:05:56Z</time>
      </trkpt>
      <trkpt lat="45.16464" lon="5.59244">
        <ele>1386.23</ele>
        <time>2019-08-27T08:06:01Z</time>
      </trkpt>
      <trkpt lat="45.16469" lon="5.59226">
        <ele>1387.46</ele>
        <time>2019-08-27T08:06:10Z</time>
      </trkpt>
      <trkpt lat="45.1647" lon="5.59214">
        <ele>1388.04</ele>
        <time>2019-08-27T08:06:16Z</time>
      </trkpt>
      <trkpt lat="45.16472" lon="5.59204">
        <ele>1388.44</ele>
        <time>2019-08-27T08:06:21Z</time>
      </trkpt>
      <trkpt lat="45.16474" lon="5.59187">
        <ele>1389.36</ele>
        <time>2019-08-27T08:06:30Z</time>
      </trkpt>
      <trkpt lat="45.16477" lon="5.59173">
        <ele>1389.95</ele>
        <time>2019-08-27T08:06:37Z</time>
      </trkpt>
      <trkpt lat="45.16478" lon="5.5917">
        <ele>1390.19</ele>
        <time>2019-08-27T08:06:39Z</time>
      </trkpt>
      <trkpt lat="45.16481" lon="5.59159">
        <ele>1390.78</ele>
        <time>2019-08-27T08:06:45Z</time>
      </trkpt>
      <trkpt lat="45.16484" lon="5.5915">
        <ele>1391.29</ele>
        <time>2019-08-27T08:06:51Z</time>
      </trkpt>
      <trkpt lat="45.16488" lon="5.59143">
        <ele>1391.8</ele>
        <time>2019-08-27T08:06:55Z</time>
      </trkpt>
      <trkpt lat="45.16489" lon="5.5914">
        <ele>1392.35</ele>
        <time>2019-08-27T08:06:57Z</time>
      </trkpt>
      <trkpt lat="45.16497" lon="5.59119">
        <ele>1394.66</ele>
        <time>2019-08-27T08:07:10Z</time>
      </trkpt>
      <trkpt lat="45.16498" lon="5.59116">
        <ele>1394.9</ele>
        <time>2019-08-27T08:07:12Z</time>
      </trkpt>
      <trkpt lat="45.16501" lon="5.591">
        <ele>1396.44</ele>
        <time>2019-08-27T08:07:23Z</time>
      </trkpt>
      <trkpt lat="45.16495" lon="5.59086">
        <ele>1397.28</ele>
        <time>2019-08-27T08:07:33Z</time>
      </trkpt>
      <trkpt lat="45.16489" lon="5.59074">
        <ele>1397.94</ele>
        <time>2019-08-27T08:07:40Z</time>
      </trkpt>
      <trkpt lat="45.16485" lon="5.59067">
        <ele>1398.78</ele>
        <time>2019-08-27T08:07:46Z</time>
      </trkpt>
      <trkpt lat="45.16481" lon="5.5906">
        <ele>1399.9</ele>
        <time>2019-08-27T08:07:53Z</time>
      </trkpt>
      <trkpt lat="45.16465" lon="5.59032">
        <ele>1403.02</ele>
        <time>2019-08-27T08:08:16Z</time>
      </trkpt>
      <trkpt lat="45.16453" lon="5.5901">
        <ele>1405.3</ele>
        <time>2019-08-27T08:08:32Z</time>
      </trkpt>
      <trkpt lat="45.16438" lon="5.58986">
        <ele>1408.09</ele>
        <time>2019-08-27T08:08:52Z</time>
      </trkpt>
      <trkpt lat="45.16422" lon="5.58959">
        <ele>1410.78</ele>
        <time>2019-08-27T08:09:13Z</time>
      </trkpt>
      <trkpt lat="45.16412" lon="5.58943">
        <ele>1412.47</ele>
        <time>2019-08-27T08:09:26Z</time>
      </trkpt>
      <trkpt lat="45.16409" lon="5.58939">
        <ele>1412.95</ele>
        <time>2019-08-27T08:09:30Z</time>
      </trkpt>
      <trkpt lat="45.16398" lon="5.58924">
        <ele>1414.84</ele>
        <time>2019-08-27T08:09:42Z</time>
      </trkpt>
      <trkpt lat="45.16398" lon="5.58921">
        <ele>1415.03</ele>
        <time>2019-08-27T08:09:44Z</time>
      </trkpt>
      <trkpt lat="45.16387" lon="5.589">
        <ele>1416.84</ele>
        <time>2019-08-27T08:09:56Z</time>
      </trkpt>
      <trkpt lat="45.16378" lon="5.58884">
        <ele>1418.34</ele>
        <time>2019-08-27T08:10:08Z</time>
      </trkpt>
      <trkpt lat="45.16365" lon="5.58855">
        <ele>1421.46</ele>
        <time>2019-08-27T08:10:30Z</time>
      </trkpt>
      <trkpt lat="45.16354" lon="5.5883">
        <ele>1424.47</ele>
        <time>2019-08-27T08:10:48Z</time>
      </trkpt>
      <trkpt lat="45.16347" lon="5.58811">
        <ele>1426.14</ele>
        <time>2019-08-27T08:11:01Z</time>
      </trkpt>
      <trkpt lat="45.16343" lon="5.58795">
        <ele>1428.05</ele>
        <time>2019-08-27T08:11:11Z</time>
      </trkpt>
      <trkpt lat="45.16338" lon="5.58793">
        <ele>1429.32</ele>
        <time>2019-08-27T08:11:24Z</time>
      </trkpt>
      <trkpt lat="45.16326" lon="5.58785">
        <ele>1430.85</ele>
        <time>2019-08-27T08:11:40Z</time>
      </trkpt>
      <trkpt lat="45.16309" lon="5.58769">
        <ele>1432.92</ele>
        <time>2019-08-27T08:11:57Z</time>
      </trkpt>
      <trkpt lat="45.16307" lon="5.58761">
        <ele>1433.4</ele>
        <time>2019-08-27T08:12:16Z</time>
      </trkpt>
      <trkpt lat="45.16307" lon="5.58736">
        <ele>1435.62</ele>
        <time>2019-08-27T08:12:32Z</time>
      </trkpt>
      <trkpt lat="45.16313" lon="5.5873">
        <ele>1438.01</ele>
        <time>2019-08-27T08:12:51Z</time>
      </trkpt>
      <trkpt lat="45.16313" lon="5.5873">
        <ele>1438.43</ele>
        <time>2019-08-27T08:13:13Z</time>
      </trkpt>
      <trkpt lat="45.16317" lon="5.58728">
        <ele>1439.37</ele>
        <time>2019-08-27T08:13:33Z</time>
      </trkpt>
      <trkpt lat="45.16317" lon="5.58726">
        <ele>1439.37</ele>
        <time>2019-08-27T08:14:29Z</time>
      </trkpt>
      <trkpt lat="45.1633" lon="5.58722">
        <ele>1441.66</ele>
        <time>2019-08-27T08:14:45Z</time>
      </trkpt>
      <trkpt lat="45.16338" lon="5.5872">
        <ele>1442.67</ele>
        <time>2019-08-27T08:14:53Z</time>
      </trkpt>
      <trkpt lat="45.16349" lon="5.58717">
        <ele>1445.88</ele>
        <time>2019-08-27T08:15:12Z</time>
      </trkpt>
      <trkpt lat="45.1636" lon="5.5871">
        <ele>1448.75</ele>
        <time>2019-08-27T08:15:32Z</time>
      </trkpt>
      <trkpt lat="45.16371" lon="5.58705">
        <ele>1451.95</ele>
        <time>2019-08-27T08:15:51Z</time>
      </trkpt>
      <trkpt lat="45.16379" lon="5.58702">
        <ele>1454.89</ele>
        <time>2019-08-27T08:16:12Z</time>
      </trkpt>
      <trkpt lat="45.16384" lon="5.58702">
        <ele>1457.98</ele>
        <time>2019-08-27T08:16:32Z</time>
      </trkpt>
      <trkpt lat="45.16394" lon="5.58702">
        <ele>1461.09</ele>
        <time>2019-08-27T08:16:49Z</time>
      </trkpt>
      <trkpt lat="45.16404" lon="5.587">
        <ele>1464.28</ele>
        <time>2019-08-27T08:17:07Z</time>
      </trkpt>
      <trkpt lat="45.16416" lon="5.58697">
        <ele>1466.53</ele>
        <time>2019-08-27T08:17:23Z</time>
      </trkpt>
      <trkpt lat="45.16426" lon="5.58696">
        <ele>1469.01</ele>
        <time>2019-08-27T08:17:39Z</time>
      </trkpt>
      <trkpt lat="45.16443" lon="5.58698">
        <ele>1471.87</ele>
        <time>2019-08-27T08:18:00Z</time>
      </trkpt>
      <trkpt lat="45.16456" lon="5.58693">
        <ele>1474.93</ele>
        <time>2019-08-27T08:18:18Z</time>
      </trkpt>
      <trkpt lat="45.16465" lon="5.58688">
        <ele>1478.08</ele>
        <time>2019-08-27T08:18:35Z</time>
      </trkpt>
      <trkpt lat="45.16476" lon="5.58681">
        <ele>1481.2</ele>
        <time>2019-08-27T08:18:53Z</time>
      </trkpt>
      <trkpt lat="45.16489" lon="5.58678">
        <ele>1484.2</ele>
        <time>2019-08-27T08:19:11Z</time>
      </trkpt>
      <trkpt lat="45.16499" lon="5.58672">
        <ele>1487.36</ele>
        <time>2019-08-27T08:19:29Z</time>
      </trkpt>
      <trkpt lat="45.16513" lon="5.58674">
        <ele>1490.43</ele>
        <time>2019-08-27T08:19:48Z</time>
      </trkpt>
      <trkpt lat="45.16516" lon="5.58674">
        <ele>1490.91</ele>
        <time>2019-08-27T08:19:51Z</time>
      </trkpt>
      <trkpt lat="45.16523" lon="5.58673">
        <ele>1491.73</ele>
        <time>2019-08-27T08:19:58Z</time>
      </trkpt>
      <trkpt lat="45.16525" lon="5.58674">
        <ele>1492.02</ele>
        <time>2019-08-27T08:20:00Z</time>
      </trkpt>
      <trkpt lat="45.16527" lon="5.58675">
        <ele>1492.3</ele>
        <time>2019-08-27T08:20:02Z</time>
      </trkpt>
      <trkpt lat="45.16544" lon="5.58673">
        <ele>1494.4</ele>
        <time>2019-08-27T08:20:19Z</time>
      </trkpt>
      <trkpt lat="45.16547" lon="5.58673">
        <ele>1494.75</ele>
        <time>2019-08-27T08:20:21Z</time>
      </trkpt>
      <trkpt lat="45.16562" lon="5.58668">
        <ele>1496.51</ele>
        <time>2019-08-27T08:20:33Z</time>
      </trkpt>
      <trkpt lat="45.16567" lon="5.58665">
        <ele>1498.02</ele>
        <time>2019-08-27T08:20:49Z</time>
      </trkpt>
      <trkpt lat="45.16567" lon="5.58671">
        <ele>1498.13</ele>
        <time>2019-08-27T08:21:22Z</time>
      </trkpt>
      <trkpt lat="45.16563" lon="5.58672">
        <ele>1498.49</ele>
        <time>2019-08-27T08:21:50Z</time>
      </trkpt>
      <trkpt lat="45.16567" lon="5.58669">
        <ele>1498.62</ele>
        <time>2019-08-27T08:22:25Z</time>
      </trkpt>
      <trkpt lat="45.16567" lon="5.58674">
        <ele>1499.2</ele>
        <time>2019-08-27T08:22:59Z</time>
      </trkpt>
      <trkpt lat="45.16565" lon="5.58673">
        <ele>1499.96</ele>
        <time>2019-08-27T08:24:14Z</time>
      </trkpt>
      <trkpt lat="45.16569" lon="5.58677">
        <ele>1500.47</ele>
        <time>2019-08-27T08:25:23Z</time>
      </trkpt>
      <trkpt lat="45.16568" lon="5.58673">
        <ele>1501</ele>
        <time>2019-08-27T08:26:12Z</time>
      </trkpt>
      <trkpt lat="45.16564" lon="5.58669">
        <ele>1501.39</ele>
        <time>2019-08-27T08:26:40Z</time>
      </trkpt>
      <trkpt lat="45.16562" lon="5.58667">
        <ele>1501.7</ele>
        <time>2019-08-27T08:27:44Z</time>
      </trkpt>
      <trkpt lat="45.16566" lon="5.58671">
        <ele>1502.59</ele>
        <time>2019-08-27T08:28:15Z</time>
      </trkpt>
      <trkpt lat="45.16575" lon="5.58668">
        <ele>1503.65</ele>
        <time>2019-08-27T08:28:31Z</time>
      </trkpt>
      <trkpt lat="45.16589" lon="5.58661">
        <ele>1505.06</ele>
        <time>2019-08-27T08:28:49Z</time>
      </trkpt>
      <trkpt lat="45.16603" lon="5.58657">
        <ele>1506.86</ele>
        <time>2019-08-27T08:29:05Z</time>
      </trkpt>
      <trkpt lat="45.16619" lon="5.58654">
        <ele>1508.5</ele>
        <time>2019-08-27T08:29:21Z</time>
      </trkpt>
      <trkpt lat="45.16632" lon="5.58651">
        <ele>1510.07</ele>
        <time>2019-08-27T08:29:36Z</time>
      </trkpt>
      <trkpt lat="45.16645" lon="5.5865">
        <ele>1511.12</ele>
        <time>2019-08-27T08:29:50Z</time>
      </trkpt>
      <trkpt lat="45.16655" lon="5.58647">
        <ele>1512.74</ele>
        <time>2019-08-27T08:30:03Z</time>
      </trkpt>
      <trkpt lat="45.16673" lon="5.58648">
        <ele>1515.87</ele>
        <time>2019-08-27T08:30:21Z</time>
      </trkpt>
      <trkpt lat="45.16687" lon="5.58645">
        <ele>1517.95</ele>
        <time>2019-08-27T08:30:39Z</time>
      </trkpt>
      <trkpt lat="45.16705" lon="5.58646">
        <ele>1520.1</ele>
        <time>2019-08-27T08:30:59Z</time>
      </trkpt>
      <trkpt lat="45.1672" lon="5.58645">
        <ele>1522.22</ele>
        <time>2019-08-27T08:31:14Z</time>
      </trkpt>
      <trkpt lat="45.16735" lon="5.58643">
        <ele>1524.97</ele>
        <time>2019-08-27T08:31:31Z</time>
      </trkpt>
      <trkpt lat="45.1675" lon="5.58641">
        <ele>1528</ele>
        <time>2019-08-27T08:31:50Z</time>
      </trkpt>
      <trkpt lat="45.16767" lon="5.58645">
        <ele>1529.72</ele>
        <time>2019-08-27T08:32:09Z</time>
      </trkpt>
      <trkpt lat="45.16773" lon="5.58652">
        <ele>1530.26</ele>
        <time>2019-08-27T08:32:15Z</time>
      </trkpt>
      <trkpt lat="45.16786" lon="5.58654">
        <ele>1530.84</ele>
        <time>2019-08-27T08:32:30Z</time>
      </trkpt>
      <trkpt lat="45.16801" lon="5.5865">
        <ele>1533.38</ele>
        <time>2019-08-27T08:32:48Z</time>
      </trkpt>
      <trkpt lat="45.16815" lon="5.58649">
        <ele>1534.95</ele>
        <time>2019-08-27T08:33:02Z</time>
      </trkpt>
      <trkpt lat="45.16835" lon="5.58656">
        <ele>1537.25</ele>
        <time>2019-08-27T08:33:24Z</time>
      </trkpt>
      <trkpt lat="45.16857" lon="5.58665">
        <ele>1539.45</ele>
        <time>2019-08-27T08:33:46Z</time>
      </trkpt>
      <trkpt lat="45.16874" lon="5.58667">
        <ele>1542.14</ele>
        <time>2019-08-27T08:34:05Z</time>
      </trkpt>
      <trkpt lat="45.16889" lon="5.58674">
        <ele>1544.95</ele>
        <time>2019-08-27T08:34:25Z</time>
      </trkpt>
      <trkpt lat="45.16905" lon="5.58679">
        <ele>1547.19</ele>
        <time>2019-08-27T08:34:40Z</time>
      </trkpt>
      <trkpt lat="45.16918" lon="5.58677">
        <ele>1548.67</ele>
        <time>2019-08-27T08:34:54Z</time>
      </trkpt>
      <trkpt lat="45.16931" lon="5.58677">
        <ele>1550.18</ele>
        <time>2019-08-27T08:35:09Z</time>
      </trkpt>
      <trkpt lat="45.16934" lon="5.58676">
        <ele>1550.49</ele>
        <time>2019-08-27T08:35:12Z</time>
      </trkpt>
      <trkpt lat="45.16936" lon="5.58675">
        <ele>1550.82</ele>
        <time>2019-08-27T08:35:15Z</time>
      </trkpt>
      <trkpt lat="45.16942" lon="5.58673">
        <ele>1551.09</ele>
        <time>2019-08-27T08:35:20Z</time>
      </trkpt>
      <trkpt lat="45.16945" lon="5.58673">
        <ele>1551.26</ele>
        <time>2019-08-27T08:35:23Z</time>
      </trkpt>
      <trkpt lat="45.16961" lon="5.58672">
        <ele>1552.13</ele>
        <time>2019-08-27T08:35:37Z</time>
      </trkpt>
      <trkpt lat="45.16976" lon="5.58673">
        <ele>1553.47</ele>
        <time>2019-08-27T08:35:51Z</time>
      </trkpt>
      <trkpt lat="45.16992" lon="5.58678">
        <ele>1555.23</ele>
        <time>2019-08-27T08:36:05Z</time>
      </trkpt>
      <trkpt lat="45.17009" lon="5.58688">
        <ele>1557.6</ele>
        <time>2019-08-27T08:36:21Z</time>
      </trkpt>
      <trkpt lat="45.17031" lon="5.58698">
        <ele>1558.84</ele>
        <time>2019-08-27T08:36:41Z</time>
      </trkpt>
      <trkpt lat="45.1704" lon="5.58694">
        <ele>1559.74</ele>
        <time>2019-08-27T08:36:49Z</time>
      </trkpt>
      <trkpt lat="45.17045" lon="5.58688">
        <ele>1560.39</ele>
        <time>2019-08-27T08:36:54Z</time>
      </trkpt>
      <trkpt lat="45.17048" lon="5.58688">
        <ele>1560.9</ele>
        <time>2019-08-27T08:36:57Z</time>
      </trkpt>
      <trkpt lat="45.17051" lon="5.58687">
        <ele>1561.44</ele>
        <time>2019-08-27T08:36:59Z</time>
      </trkpt>
      <trkpt lat="45.17069" lon="5.58682">
        <ele>1563.23</ele>
        <time>2019-08-27T08:37:12Z</time>
      </trkpt>
      <trkpt lat="45.17078" lon="5.58675">
        <ele>1563.97</ele>
        <time>2019-08-27T08:37:19Z</time>
      </trkpt>
      <trkpt lat="45.17083" lon="5.58671">
        <ele>1564.28</ele>
        <time>2019-08-27T08:37:23Z</time>
      </trkpt>
      <trkpt lat="45.17088" lon="5.58668">
        <ele>1564.57</ele>
        <time>2019-08-27T08:37:26Z</time>
      </trkpt>
      <trkpt lat="45.17096" lon="5.58668">
        <ele>1564.76</ele>
        <time>2019-08-27T08:37:31Z</time>
      </trkpt>
      <trkpt lat="45.17104" lon="5.58668">
        <ele>1564.99</ele>
        <time>2019-08-27T08:37:36Z</time>
      </trkpt>
      <trkpt lat="45.17123" lon="5.58673">
        <ele>1566.15</ele>
        <time>2019-08-27T08:37:49Z</time>
      </trkpt>
      <trkpt lat="45.17143" lon="5.58674">
        <ele>1568.27</ele>
        <time>2019-08-27T08:38:01Z</time>
      </trkpt>
      <trkpt lat="45.17161" lon="5.58672">
        <ele>1570.15</ele>
        <time>2019-08-27T08:38:14Z</time>
      </trkpt>
      <trkpt lat="45.17169" lon="5.58669">
        <ele>1571.97</ele>
        <time>2019-08-27T08:38:26Z</time>
      </trkpt>
      <trkpt lat="45.17176" lon="5.58667">
        <ele>1573.27</ele>
        <time>2019-08-27T08:38:43Z</time>
      </trkpt>
      <trkpt lat="45.17184" lon="5.58665">
        <ele>1574.1</ele>
        <time>2019-08-27T08:39:08Z</time>
      </trkpt>
      <trkpt lat="45.17187" lon="5.58666">
        <ele>1574.68</ele>
        <time>2019-08-27T08:39:34Z</time>
      </trkpt>
      <trkpt lat="45.17191" lon="5.58668">
        <ele>1574.8</ele>
        <time>2019-08-27T08:40:06Z</time>
      </trkpt>
      <trkpt lat="45.17194" lon="5.5867">
        <ele>1575.32</ele>
        <time>2019-08-27T08:40:30Z</time>
      </trkpt>
      <trkpt lat="45.17201" lon="5.58672">
        <ele>1575.62</ele>
        <time>2019-08-27T08:40:48Z</time>
      </trkpt>
      <trkpt lat="45.17202" lon="5.58673">
        <ele>1575.79</ele>
        <time>2019-08-27T08:40:51Z</time>
      </trkpt>
      <trkpt lat="45.17214" lon="5.58681">
        <ele>1577.54</ele>
        <time>2019-08-27T08:41:07Z</time>
      </trkpt>
      <trkpt lat="45.1722" lon="5.58692">
        <ele>1578.69</ele>
        <time>2019-08-27T08:41:24Z</time>
      </trkpt>
      <trkpt lat="45.17229" lon="5.58708">
        <ele>1580.34</ele>
        <time>2019-08-27T08:41:42Z</time>
      </trkpt>
      <trkpt lat="45.17242" lon="5.58727">
        <ele>1581.09</ele>
        <time>2019-08-27T08:41:56Z</time>
      </trkpt>
      <trkpt lat="45.17267" lon="5.58743">
        <ele>1580.46</ele>
        <time>2019-08-27T08:42:06Z</time>
      </trkpt>
      <trkpt lat="45.17293" lon="5.58757">
        <ele>1580.15</ele>
        <time>2019-08-27T08:42:15Z</time>
      </trkpt>
      <trkpt lat="45.17305" lon="5.58759">
        <ele>1580.63</ele>
        <time>2019-08-27T08:42:20Z</time>
      </trkpt>
      <trkpt lat="45.17335" lon="5.58765">
        <ele>1581.34</ele>
        <time>2019-08-27T08:42:33Z</time>
      </trkpt>
      <trkpt lat="45.17365" lon="5.58786">
        <ele>1581.24</ele>
        <time>2019-08-27T08:42:44Z</time>
      </trkpt>
      <trkpt lat="45.17389" lon="5.58807">
        <ele>1580.79</ele>
        <time>2019-08-27T08:42:54Z</time>
      </trkpt>
      <trkpt lat="45.17414" lon="5.58814">
        <ele>1581.26</ele>
        <time>2019-08-27T08:43:07Z</time>
      </trkpt>
      <trkpt lat="45.17424" lon="5.58818">
        <ele>1581.79</ele>
        <time>2019-08-27T08:43:12Z</time>
      </trkpt>
      <trkpt lat="45.17438" lon="5.58827">
        <ele>1582.08</ele>
        <time>2019-08-27T08:43:19Z</time>
      </trkpt>
      <trkpt lat="45.17469" lon="5.58847">
        <ele>1583.07</ele>
        <time>2019-08-27T08:43:34Z</time>
      </trkpt>
      <trkpt lat="45.1749" lon="5.58858">
        <ele>1583.63</ele>
        <time>2019-08-27T08:43:44Z</time>
      </trkpt>
      <trkpt lat="45.17519" lon="5.58869">
        <ele>1583.73</ele>
        <time>2019-08-27T08:43:53Z</time>
      </trkpt>
      <trkpt lat="45.17566" lon="5.589">
        <ele>1582.59</ele>
        <time>2019-08-27T08:44:07Z</time>
      </trkpt>
      <trkpt lat="45.17587" lon="5.5892">
        <ele>1582.53</ele>
        <time>2019-08-27T08:44:17Z</time>
      </trkpt>
      <trkpt lat="45.17621" lon="5.58941">
        <ele>1584.34</ele>
        <time>2019-08-27T08:44:30Z</time>
      </trkpt>
      <trkpt lat="45.17629" lon="5.58945">
        <ele>1584.22</ele>
        <time>2019-08-27T08:44:32Z</time>
      </trkpt>
      <trkpt lat="45.17684" lon="5.58966">
        <ele>1580.69</ele>
        <time>2019-08-27T08:44:43Z</time>
      </trkpt>
      <trkpt lat="45.17716" lon="5.58988">
        <ele>1578.26</ele>
        <time>2019-08-27T08:44:48Z</time>
      </trkpt>
      <trkpt lat="45.17769" lon="5.59005">
        <ele>1575.11</ele>
        <time>2019-08-27T08:44:59Z</time>
      </trkpt>
      <trkpt lat="45.1777" lon="5.59004">
        <ele>1575.21</ele>
        <time>2019-08-27T08:45:14Z</time>
      </trkpt>
      <trkpt lat="45.1777" lon="5.59001">
        <ele>1575.45</ele>
        <time>2019-08-27T08:45:41Z</time>
      </trkpt>
      <trkpt lat="45.17766" lon="5.59">
        <ele>1575.55</ele>
        <time>2019-08-27T08:46:15Z</time>
      </trkpt>
      <trkpt lat="45.17765" lon="5.59001">
        <ele>1575.8</ele>
        <time>2019-08-27T08:46:43Z</time>
      </trkpt>
      <trkpt lat="45.17765" lon="5.59004">
        <ele>1576</ele>
        <time>2019-08-27T08:47:14Z</time>
      </trkpt>
      <trkpt lat="45.17768" lon="5.59001">
        <ele>1576.14</ele>
        <time>2019-08-27T08:47:45Z</time>
      </trkpt>
      <trkpt lat="45.17765" lon="5.59">
        <ele>1576.44</ele>
        <time>2019-08-27T08:48:13Z</time>
      </trkpt>
      <trkpt lat="45.1777" lon="5.59003">
        <ele>1576.75</ele>
        <time>2019-08-27T08:48:43Z</time>
      </trkpt>
      <trkpt lat="45.17789" lon="5.59003">
        <ele>1576.62</ele>
        <time>2019-08-27T08:49:04Z</time>
      </trkpt>
      <trkpt lat="45.17817" lon="5.59">
        <ele>1575.22</ele>
        <time>2019-08-27T08:49:11Z</time>
      </trkpt>
      <trkpt lat="45.17871" lon="5.5899">
        <ele>1572.02</ele>
        <time>2019-08-27T08:49:25Z</time>
      </trkpt>
      <trkpt lat="45.17882" lon="5.5899">
        <ele>1571.27</ele>
        <time>2019-08-27T08:49:28Z</time>
      </trkpt>
      <trkpt lat="45.17897" lon="5.58994">
        <ele>1569.85</ele>
        <time>2019-08-27T08:49:32Z</time>
      </trkpt>
      <trkpt lat="45.17926" lon="5.59011">
        <ele>1566.46</ele>
        <time>2019-08-27T08:49:40Z</time>
      </trkpt>
      <trkpt lat="45.1793" lon="5.59011">
        <ele>1566.02</ele>
        <time>2019-08-27T08:49:41Z</time>
      </trkpt>
      <trkpt lat="45.17955" lon="5.59015">
        <ele>1562.83</ele>
        <time>2019-08-27T08:49:48Z</time>
      </trkpt>
      <trkpt lat="45.17973" lon="5.59018">
        <ele>1559.69</ele>
        <time>2019-08-27T08:49:57Z</time>
      </trkpt>
      <trkpt lat="45.17973" lon="5.59018">
        <ele>1558.02</ele>
        <time>2019-08-27T08:50:18Z</time>
      </trkpt>
      <trkpt lat="45.17976" lon="5.59018">
        <ele>1558</ele>
        <time>2019-08-27T08:50:27Z</time>
      </trkpt>
      <trkpt lat="45.1801" lon="5.59046">
        <ele>1557.22</ele>
        <time>2019-08-27T08:50:42Z</time>
      </trkpt>
      <trkpt lat="45.18031" lon="5.59066">
        <ele>1557.72</ele>
        <time>2019-08-27T08:50:56Z</time>
      </trkpt>
      <trkpt lat="45.18047" lon="5.59077">
        <ele>1559.94</ele>
        <time>2019-08-27T08:51:09Z</time>
      </trkpt>
      <trkpt lat="45.18069" lon="5.59091">
        <ele>1561.09</ele>
        <time>2019-08-27T08:51:20Z</time>
      </trkpt>
      <trkpt lat="45.18093" lon="5.59114">
        <ele>1561.44</ele>
        <time>2019-08-27T08:51:33Z</time>
      </trkpt>
      <trkpt lat="45.18115" lon="5.59137">
        <ele>1561.88</ele>
        <time>2019-08-27T08:51:46Z</time>
      </trkpt>
      <trkpt lat="45.18132" lon="5.5914">
        <ele>1563.21</ele>
        <time>2019-08-27T08:51:57Z</time>
      </trkpt>
      <trkpt lat="45.18161" lon="5.59152">
        <ele>1562.95</ele>
        <time>2019-08-27T08:52:08Z</time>
      </trkpt>
      <trkpt lat="45.18202" lon="5.59177">
        <ele>1562.46</ele>
        <time>2019-08-27T08:52:23Z</time>
      </trkpt>
      <trkpt lat="45.1824" lon="5.59198">
        <ele>1562.78</ele>
        <time>2019-08-27T08:52:36Z</time>
      </trkpt>
      <trkpt lat="45.1827" lon="5.59232">
        <ele>1563.57</ele>
        <time>2019-08-27T08:52:49Z</time>
      </trkpt>
      <trkpt lat="45.18288" lon="5.59252">
        <ele>1563.72</ele>
        <time>2019-08-27T08:52:58Z</time>
      </trkpt>
      <trkpt lat="45.18305" lon="5.59283">
        <ele>1563.95</ele>
        <time>2019-08-27T08:53:09Z</time>
      </trkpt>
      <trkpt lat="45.18335" lon="5.59293">
        <ele>1564.59</ele>
        <time>2019-08-27T08:53:21Z</time>
      </trkpt>
      <trkpt lat="45.18363" lon="5.59295">
        <ele>1565.32</ele>
        <time>2019-08-27T08:53:35Z</time>
      </trkpt>
      <trkpt lat="45.18384" lon="5.59323">
        <ele>1566.61</ele>
        <time>2019-08-27T08:53:48Z</time>
      </trkpt>
      <trkpt lat="45.18414" lon="5.59365">
        <ele>1566.74</ele>
        <time>2019-08-27T08:54:03Z</time>
      </trkpt>
      <trkpt lat="45.18445" lon="5.59408">
        <ele>1566.8</ele>
        <time>2019-08-27T08:54:16Z</time>
      </trkpt>
      <trkpt lat="45.18454" lon="5.59423">
        <ele>1566.22</ele>
        <time>2019-08-27T08:54:19Z</time>
      </trkpt>
      <trkpt lat="45.18487" lon="5.59469">
        <ele>1565.39</ele>
        <time>2019-08-27T08:54:31Z</time>
      </trkpt>
      <trkpt lat="45.1852" lon="5.59495">
        <ele>1566.3</ele>
        <time>2019-08-27T08:54:45Z</time>
      </trkpt>
      <trkpt lat="45.18546" lon="5.59515">
        <ele>1568.23</ele>
        <time>2019-08-27T08:54:58Z</time>
      </trkpt>
      <trkpt lat="45.18575" lon="5.59523">
        <ele>1569.8</ele>
        <time>2019-08-27T08:55:10Z</time>
      </trkpt>
      <trkpt lat="45.18599" lon="5.59528">
        <ele>1569.7</ele>
        <time>2019-08-27T08:55:22Z</time>
      </trkpt>
      <trkpt lat="45.1862" lon="5.5953">
        <ele>1570.44</ele>
        <time>2019-08-27T08:55:35Z</time>
      </trkpt>
      <trkpt lat="45.18643" lon="5.59531">
        <ele>1572</ele>
        <time>2019-08-27T08:55:48Z</time>
      </trkpt>
      <trkpt lat="45.18671" lon="5.59535">
        <ele>1573.43</ele>
        <time>2019-08-27T08:56:02Z</time>
      </trkpt>
      <trkpt lat="45.18704" lon="5.59543">
        <ele>1574.81</ele>
        <time>2019-08-27T08:56:18Z</time>
      </trkpt>
      <trkpt lat="45.18734" lon="5.59549">
        <ele>1576.47</ele>
        <time>2019-08-27T08:56:32Z</time>
      </trkpt>
      <trkpt lat="45.18764" lon="5.59551">
        <ele>1577.37</ele>
        <time>2019-08-27T08:56:46Z</time>
      </trkpt>
      <trkpt lat="45.1879" lon="5.59544">
        <ele>1580.47</ele>
        <time>2019-08-27T08:57:00Z</time>
      </trkpt>
      <trkpt lat="45.18814" lon="5.59544">
        <ele>1583.21</ele>
        <time>2019-08-27T08:57:15Z</time>
      </trkpt>
      <trkpt lat="45.18836" lon="5.5955">
        <ele>1584.45</ele>
        <time>2019-08-27T08:57:27Z</time>
      </trkpt>
      <trkpt lat="45.18847" lon="5.59523">
        <ele>1583.86</ele>
        <time>2019-08-27T08:57:34Z</time>
      </trkpt>
      <trkpt lat="45.18847" lon="5.59512">
        <ele>1583.67</ele>
        <time>2019-08-27T08:57:37Z</time>
      </trkpt>
      <trkpt lat="45.18852" lon="5.59478">
        <ele>1584.1</ele>
        <time>2019-08-27T08:57:51Z</time>
      </trkpt>
      <trkpt lat="45.18861" lon="5.59473">
        <ele>1584.2</ele>
        <time>2019-08-27T08:57:55Z</time>
      </trkpt>
      <trkpt lat="45.1889" lon="5.5946">
        <ele>1583.71</ele>
        <time>2019-08-27T08:58:08Z</time>
      </trkpt>
      <trkpt lat="45.18926" lon="5.59455">
        <ele>1584.75</ele>
        <time>2019-08-27T08:58:23Z</time>
      </trkpt>
      <trkpt lat="45.1895" lon="5.59445">
        <ele>1586.84</ele>
        <time>2019-08-27T08:58:36Z</time>
      </trkpt>
      <trkpt lat="45.18969" lon="5.59426">
        <ele>1589.93</ele>
        <time>2019-08-27T08:58:49Z</time>
      </trkpt>
      <trkpt lat="45.18971" lon="5.59424">
        <ele>1590.09</ele>
        <time>2019-08-27T08:58:50Z</time>
      </trkpt>
      <trkpt lat="45.18978" lon="5.59418">
        <ele>1591.04</ele>
        <time>2019-08-27T08:58:55Z</time>
      </trkpt>
      <trkpt lat="45.18999" lon="5.59403">
        <ele>1593.87</ele>
        <time>2019-08-27T08:59:11Z</time>
      </trkpt>
      <trkpt lat="45.19022" lon="5.594">
        <ele>1596.47</ele>
        <time>2019-08-27T08:59:26Z</time>
      </trkpt>
      <trkpt lat="45.19033" lon="5.59397">
        <ele>1598.02</ele>
        <time>2019-08-27T08:59:33Z</time>
      </trkpt>
      <trkpt lat="45.19065" lon="5.59396">
        <ele>1600.38</ele>
        <time>2019-08-27T08:59:50Z</time>
      </trkpt>
      <trkpt lat="45.19106" lon="5.59397">
        <ele>1601.2</ele>
        <time>2019-08-27T09:00:06Z</time>
      </trkpt>
      <trkpt lat="45.19116" lon="5.59396">
        <ele>1601.48</ele>
        <time>2019-08-27T09:00:09Z</time>
      </trkpt>
      <trkpt lat="45.19125" lon="5.59394">
        <ele>1601.46</ele>
        <time>2019-08-27T09:00:11Z</time>
      </trkpt>
      <trkpt lat="45.19151" lon="5.59389">
        <ele>1601</ele>
        <time>2019-08-27T09:00:19Z</time>
      </trkpt>
      <trkpt lat="45.1919" lon="5.5939">
        <ele>1604.08</ele>
        <time>2019-08-27T09:00:35Z</time>
      </trkpt>
      <trkpt lat="45.19223" lon="5.59383">
        <ele>1606.54</ele>
        <time>2019-08-27T09:00:51Z</time>
      </trkpt>
      <trkpt lat="45.19251" lon="5.59377">
        <ele>1608.82</ele>
        <time>2019-08-27T09:01:10Z</time>
      </trkpt>
      <trkpt lat="45.19286" lon="5.59382">
        <ele>1611.64</ele>
        <time>2019-08-27T09:01:30Z</time>
      </trkpt>
      <trkpt lat="45.19321" lon="5.59383">
        <ele>1613.42</ele>
        <time>2019-08-27T09:01:50Z</time>
      </trkpt>
      <trkpt lat="45.19357" lon="5.59388">
        <ele>1614.58</ele>
        <time>2019-08-27T09:02:07Z</time>
      </trkpt>
      <trkpt lat="45.19392" lon="5.59387">
        <ele>1615.67</ele>
        <time>2019-08-27T09:02:24Z</time>
      </trkpt>
      <trkpt lat="45.19425" lon="5.59384">
        <ele>1617.42</ele>
        <time>2019-08-27T09:02:41Z</time>
      </trkpt>
      <trkpt lat="45.19433" lon="5.59386">
        <ele>1618.62</ele>
        <time>2019-08-27T09:02:56Z</time>
      </trkpt>
      <trkpt lat="45.19437" lon="5.59388">
        <ele>1618.92</ele>
        <time>2019-08-27T09:03:13Z</time>
      </trkpt>
      <trkpt lat="45.19437" lon="5.59388">
        <ele>1619.04</ele>
        <time>2019-08-27T09:03:46Z</time>
      </trkpt>
      <trkpt lat="45.19437" lon="5.59389">
        <ele>1619.05</ele>
        <time>2019-08-27T09:04:13Z</time>
      </trkpt>
      <trkpt lat="45.19437" lon="5.59386">
        <ele>1618.85</ele>
        <time>2019-08-27T09:04:49Z</time>
      </trkpt>
      <trkpt lat="45.19436" lon="5.59385">
        <ele>1618.92</ele>
        <time>2019-08-27T09:05:22Z</time>
      </trkpt>
      <trkpt lat="45.19436" lon="5.59386">
        <ele>1619.01</ele>
        <time>2019-08-27T09:05:52Z</time>
      </trkpt>
      <trkpt lat="45.19437" lon="5.59387">
        <ele>1618.37</ele>
        <time>2019-08-27T09:06:23Z</time>
      </trkpt>
      <trkpt lat="45.19438" lon="5.59387">
        <ele>1618.24</ele>
        <time>2019-08-27T09:07:37Z</time>
      </trkpt>
      <trkpt lat="45.19437" lon="5.59386">
        <ele>1617.86</ele>
        <time>2019-08-27T09:08:54Z</time>
      </trkpt>
      <trkpt lat="45.19438" lon="5.59385">
        <ele>1617.5</ele>
        <time>2019-08-27T09:10:32Z</time>
      </trkpt>
      <trkpt lat="45.19438" lon="5.59386">
        <ele>1618.29</ele>
        <time>2019-08-27T09:12:03Z</time>
      </trkpt>
      <trkpt lat="45.19437" lon="5.59386">
        <ele>1618.6</ele>
        <time>2019-08-27T09:13:50Z</time>
      </trkpt>
      <trkpt lat="45.19442" lon="5.59389">
        <ele>1619.33</ele>
        <time>2019-08-27T09:14:11Z</time>
      </trkpt>
      <trkpt lat="45.19443" lon="5.59388">
        <ele>1619.67</ele>
        <time>2019-08-27T09:14:34Z</time>
      </trkpt>
      <trkpt lat="45.19462" lon="5.59388">
        <ele>1619.78</ele>
        <time>2019-08-27T09:14:50Z</time>
      </trkpt>
      <trkpt lat="45.19525" lon="5.59375">
        <ele>1618.92</ele>
        <time>2019-08-27T09:15:07Z</time>
      </trkpt>
      <trkpt lat="45.19571" lon="5.59339">
        <ele>1618.75</ele>
        <time>2019-08-27T09:15:22Z</time>
      </trkpt>
      <trkpt lat="45.19615" lon="5.5933">
        <ele>1620.16</ele>
        <time>2019-08-27T09:15:38Z</time>
      </trkpt>
      <trkpt lat="45.19653" lon="5.59317">
        <ele>1622.22</ele>
        <time>2019-08-27T09:15:54Z</time>
      </trkpt>
      <trkpt lat="45.19688" lon="5.59327">
        <ele>1624.73</ele>
        <time>2019-08-27T09:16:11Z</time>
      </trkpt>
      <trkpt lat="45.1972" lon="5.59328">
        <ele>1626.14</ele>
        <time>2019-08-27T09:16:27Z</time>
      </trkpt>
      <trkpt lat="45.19746" lon="5.59315">
        <ele>1627.76</ele>
        <time>2019-08-27T09:16:44Z</time>
      </trkpt>
      <trkpt lat="45.19769" lon="5.59283">
        <ele>1630.79</ele>
        <time>2019-08-27T09:17:04Z</time>
      </trkpt>
      <trkpt lat="45.19787" lon="5.59245">
        <ele>1633.18</ele>
        <time>2019-08-27T09:17:22Z</time>
      </trkpt>
      <trkpt lat="45.19791" lon="5.59215">
        <ele>1635.41</ele>
        <time>2019-08-27T09:17:35Z</time>
      </trkpt>
      <trkpt lat="45.19788" lon="5.5921">
        <ele>1636.04</ele>
        <time>2019-08-27T09:17:43Z</time>
      </trkpt>
      <trkpt lat="45.19779" lon="5.59203">
        <ele>1636.88</ele>
        <time>2019-08-27T09:17:59Z</time>
      </trkpt>
      <trkpt lat="45.19781" lon="5.59203">
        <ele>1636.63</ele>
        <time>2019-08-27T09:18:06Z</time>
      </trkpt>
      <trkpt lat="45.19796" lon="5.59205">
        <ele>1636.37</ele>
        <time>2019-08-27T09:18:24Z</time>
      </trkpt>
      <trkpt lat="45.19794" lon="5.59201">
        <ele>1635.94</ele>
        <time>2019-08-27T09:20:49Z</time>
      </trkpt>
      <trkpt lat="45.19798" lon="5.59196">
        <ele>1636.04</ele>
        <time>2019-08-27T09:21:03Z</time>
      </trkpt>
      <trkpt lat="45.19803" lon="5.59196">
        <ele>1635.86</ele>
        <time>2019-08-27T09:21:28Z</time>
      </trkpt>
      <trkpt lat="45.19809" lon="5.59189">
        <ele>1635.87</ele>
        <time>2019-08-27T09:21:48Z</time>
      </trkpt>
      <trkpt lat="45.19814" lon="5.59188">
        <ele>1635.6</ele>
        <time>2019-08-27T09:22:07Z</time>
      </trkpt>
      <trkpt lat="45.19814" lon="5.59187">
        <ele>1635.41</ele>
        <time>2019-08-27T09:22:11Z</time>
      </trkpt>
      <trkpt lat="45.19818" lon="5.59182">
        <ele>1634.71</ele>
        <time>2019-08-27T09:22:26Z</time>
      </trkpt>
      <trkpt lat="45.19818" lon="5.59184">
        <ele>1635.42</ele>
        <time>2019-08-27T09:23:09Z</time>
      </trkpt>
      <trkpt lat="45.19819" lon="5.59184">
        <ele>1634.56</ele>
        <time>2019-08-27T09:23:37Z</time>
      </trkpt>
      <trkpt lat="45.1982" lon="5.59185">
        <ele>1634.9</ele>
        <time>2019-08-27T09:24:43Z</time>
      </trkpt>
      <trkpt lat="45.19823" lon="5.59187">
        <ele>1634.81</ele>
        <time>2019-08-27T09:24:51Z</time>
      </trkpt>
      <trkpt lat="45.19853" lon="5.59192">
        <ele>1634.6</ele>
        <time>2019-08-27T09:25:04Z</time>
      </trkpt>
      <trkpt lat="45.19898" lon="5.59185">
        <ele>1634.07</ele>
        <time>2019-08-27T09:25:19Z</time>
      </trkpt>
      <trkpt lat="45.19951" lon="5.59192">
        <ele>1633.5</ele>
        <time>2019-08-27T09:25:35Z</time>
      </trkpt>
      <trkpt lat="45.20004" lon="5.59199">
        <ele>1634.74</ele>
        <time>2019-08-27T09:25:53Z</time>
      </trkpt>
      <trkpt lat="45.20068" lon="5.59219">
        <ele>1634.99</ele>
        <time>2019-08-27T09:26:11Z</time>
      </trkpt>
      <trkpt lat="45.20136" lon="5.59228">
        <ele>1634</ele>
        <time>2019-08-27T09:26:26Z</time>
      </trkpt>
      <trkpt lat="45.20186" lon="5.5924">
        <ele>1633.27</ele>
        <time>2019-08-27T09:26:38Z</time>
      </trkpt>
      <trkpt lat="45.20213" lon="5.59254">
        <ele>1633.99</ele>
        <time>2019-08-27T09:26:52Z</time>
      </trkpt>
      <trkpt lat="45.20219" lon="5.59257">
        <ele>1633.95</ele>
        <time>2019-08-27T09:26:55Z</time>
      </trkpt>
      <trkpt lat="45.20239" lon="5.59257">
        <ele>1633.84</ele>
        <time>2019-08-27T09:27:04Z</time>
      </trkpt>
      <trkpt lat="45.20289" lon="5.59274">
        <ele>1633.16</ele>
        <time>2019-08-27T09:27:21Z</time>
      </trkpt>
      <trkpt lat="45.20331" lon="5.59286">
        <ele>1633.07</ele>
        <time>2019-08-27T09:27:36Z</time>
      </trkpt>
      <trkpt lat="45.20384" lon="5.59307">
        <ele>1631.21</ele>
        <time>2019-08-27T09:27:51Z</time>
      </trkpt>
      <trkpt lat="45.20431" lon="5.59311">
        <ele>1628.42</ele>
        <time>2019-08-27T09:28:04Z</time>
      </trkpt>
      <trkpt lat="45.20438" lon="5.59309">
        <ele>1628.14</ele>
        <time>2019-08-27T09:28:06Z</time>
      </trkpt>
      <trkpt lat="45.20453" lon="5.59308">
        <ele>1627.42</ele>
        <time>2019-08-27T09:28:10Z</time>
      </trkpt>
      <trkpt lat="45.2048" lon="5.5931">
        <ele>1624.68</ele>
        <time>2019-08-27T09:28:17Z</time>
      </trkpt>
      <trkpt lat="45.2053" lon="5.59277">
        <ele>1621.25</ele>
        <time>2019-08-27T09:28:26Z</time>
      </trkpt>
      <trkpt lat="45.20547" lon="5.59267">
        <ele>1620.33</ele>
        <time>2019-08-27T09:28:29Z</time>
      </trkpt>
      <trkpt lat="45.20575" lon="5.59246">
        <ele>1619.89</ele>
        <time>2019-08-27T09:28:38Z</time>
      </trkpt>
      <trkpt lat="45.20612" lon="5.59223">
        <ele>1619</ele>
        <time>2019-08-27T09:28:48Z</time>
      </trkpt>
      <trkpt lat="45.20617" lon="5.59221">
        <ele>1618.95</ele>
        <time>2019-08-27T09:28:49Z</time>
      </trkpt>
      <trkpt lat="45.20634" lon="5.5922">
        <ele>1618.61</ele>
        <time>2019-08-27T09:28:52Z</time>
      </trkpt>
      <trkpt lat="45.20656" lon="5.59224">
        <ele>1617.97</ele>
        <time>2019-08-27T09:28:56Z</time>
      </trkpt>
      <trkpt lat="45.20678" lon="5.59227">
        <ele>1617.21</ele>
        <time>2019-08-27T09:29:00Z</time>
      </trkpt>
      <trkpt lat="45.20708" lon="5.59203">
        <ele>1614.34</ele>
        <time>2019-08-27T09:29:06Z</time>
      </trkpt>
      <trkpt lat="45.20731" lon="5.59167">
        <ele>1612.79</ele>
        <time>2019-08-27T09:29:16Z</time>
      </trkpt>
      <trkpt lat="45.2074" lon="5.5916">
        <ele>1613.87</ele>
        <time>2019-08-27T09:29:22Z</time>
      </trkpt>
      <trkpt lat="45.20753" lon="5.59153">
        <ele>1616.48</ele>
        <time>2019-08-27T09:29:31Z</time>
      </trkpt>
      <trkpt lat="45.2077" lon="5.59143">
        <ele>1617.7</ele>
        <time>2019-08-27T09:29:41Z</time>
      </trkpt>
      <trkpt lat="45.20774" lon="5.5914">
        <ele>1617.72</ele>
        <time>2019-08-27T09:29:43Z</time>
      </trkpt>
      <trkpt lat="45.20788" lon="5.5913">
        <ele>1617.26</ele>
        <time>2019-08-27T09:29:47Z</time>
      </trkpt>
      <trkpt lat="45.20829" lon="5.59111">
        <ele>1615.53</ele>
        <time>2019-08-27T09:29:58Z</time>
      </trkpt>
      <trkpt lat="45.20848" lon="5.59107">
        <ele>1616.08</ele>
        <time>2019-08-27T09:30:06Z</time>
      </trkpt>
      <trkpt lat="45.20859" lon="5.59112">
        <ele>1616.59</ele>
        <time>2019-08-27T09:30:11Z</time>
      </trkpt>
      <trkpt lat="45.20864" lon="5.59115">
        <ele>1616.72</ele>
        <time>2019-08-27T09:30:13Z</time>
      </trkpt>
      <trkpt lat="45.20885" lon="5.59122">
        <ele>1616.95</ele>
        <time>2019-08-27T09:30:22Z</time>
      </trkpt>
      <trkpt lat="45.20907" lon="5.59142">
        <ele>1618.01</ele>
        <time>2019-08-27T09:30:33Z</time>
      </trkpt>
      <trkpt lat="45.20923" lon="5.59162">
        <ele>1619.62</ele>
        <time>2019-08-27T09:30:44Z</time>
      </trkpt>
      <trkpt lat="45.20945" lon="5.59179">
        <ele>1620.51</ele>
        <time>2019-08-27T09:30:56Z</time>
      </trkpt>
      <trkpt lat="45.20976" lon="5.5918">
        <ele>1621.49</ele>
        <time>2019-08-27T09:31:11Z</time>
      </trkpt>
      <trkpt lat="45.20987" lon="5.59177">
        <ele>1621.73</ele>
        <time>2019-08-27T09:31:16Z</time>
      </trkpt>
      <trkpt lat="45.20993" lon="5.59165">
        <ele>1621.84</ele>
        <time>2019-08-27T09:31:20Z</time>
      </trkpt>
      <trkpt lat="45.20995" lon="5.5914">
        <ele>1621.87</ele>
        <time>2019-08-27T09:31:28Z</time>
      </trkpt>
      <trkpt lat="45.21005" lon="5.59107">
        <ele>1621.44</ele>
        <time>2019-08-27T09:31:34Z</time>
      </trkpt>
      <trkpt lat="45.21009" lon="5.59096">
        <ele>1621.02</ele>
        <time>2019-08-27T09:31:36Z</time>
      </trkpt>
      <trkpt lat="45.21041" lon="5.59063">
        <ele>1620.09</ele>
        <time>2019-08-27T09:31:47Z</time>
      </trkpt>
      <trkpt lat="45.21051" lon="5.5906">
        <ele>1621.07</ele>
        <time>2019-08-27T09:32:00Z</time>
      </trkpt>
      <trkpt lat="45.21054" lon="5.59055">
        <ele>1621.45</ele>
        <time>2019-08-27T09:32:28Z</time>
      </trkpt>
      <trkpt lat="45.21053" lon="5.59055">
        <ele>1621.18</ele>
        <time>2019-08-27T09:32:53Z</time>
      </trkpt>
      <trkpt lat="45.21051" lon="5.5905">
        <ele>1621.06</ele>
        <time>2019-08-27T09:33:26Z</time>
      </trkpt>
      <trkpt lat="45.21054" lon="5.59044">
        <ele>1621.04</ele>
        <time>2019-08-27T09:33:30Z</time>
      </trkpt>
      <trkpt lat="45.21069" lon="5.59015">
        <ele>1620.82</ele>
        <time>2019-08-27T09:33:40Z</time>
      </trkpt>
      <trkpt lat="45.21076" lon="5.58995">
        <ele>1620.34</ele>
        <time>2019-08-27T09:33:45Z</time>
      </trkpt>
      <trkpt lat="45.2108" lon="5.58984">
        <ele>1620.39</ele>
        <time>2019-08-27T09:33:50Z</time>
      </trkpt>
      <trkpt lat="45.21095" lon="5.58961">
        <ele>1623.67</ele>
        <time>2019-08-27T09:34:03Z</time>
      </trkpt>
      <trkpt lat="45.21103" lon="5.58953">
        <ele>1626.8</ele>
        <time>2019-08-27T09:34:15Z</time>
      </trkpt>
      <trkpt lat="45.21113" lon="5.58956">
        <ele>1629.36</ele>
        <time>2019-08-27T09:34:30Z</time>
      </trkpt>
      <trkpt lat="45.21118" lon="5.58967">
        <ele>1631.05</ele>
        <time>2019-08-27T09:34:43Z</time>
      </trkpt>
      <trkpt lat="45.2112" lon="5.58983">
        <ele>1631.7</ele>
        <time>2019-08-27T09:34:57Z</time>
      </trkpt>
      <trkpt lat="45.2114" lon="5.59011">
        <ele>1633.21</ele>
        <time>2019-08-27T09:35:15Z</time>
      </trkpt>
      <trkpt lat="45.21169" lon="5.59024">
        <ele>1635.47</ele>
        <time>2019-08-27T09:35:33Z</time>
      </trkpt>
      <trkpt lat="45.21203" lon="5.5903">
        <ele>1636.32</ele>
        <time>2019-08-27T09:35:49Z</time>
      </trkpt>
      <trkpt lat="45.21236" lon="5.5903">
        <ele>1636.45</ele>
        <time>2019-08-27T09:36:03Z</time>
      </trkpt>
      <trkpt lat="45.21264" lon="5.5902">
        <ele>1636.51</ele>
        <time>2019-08-27T09:36:16Z</time>
      </trkpt>
      <trkpt lat="45.21298" lon="5.59003">
        <ele>1635.79</ele>
        <time>2019-08-27T09:36:27Z</time>
      </trkpt>
      <trkpt lat="45.2132" lon="5.58999">
        <ele>1633.94</ele>
        <time>2019-08-27T09:36:37Z</time>
      </trkpt>
      <trkpt lat="45.21319" lon="5.58998">
        <ele>1632.87</ele>
        <time>2019-08-27T09:37:12Z</time>
      </trkpt>
      <trkpt lat="45.2132" lon="5.59">
        <ele>1632.95</ele>
        <time>2019-08-27T09:37:30Z</time>
      </trkpt>
      <trkpt lat="45.21318" lon="5.58999">
        <ele>1633.02</ele>
        <time>2019-08-27T09:38:12Z</time>
      </trkpt>
      <trkpt lat="45.21318" lon="5.59">
        <ele>1632.65</ele>
        <time>2019-08-27T09:38:48Z</time>
      </trkpt>
      <trkpt lat="45.2132" lon="5.58996">
        <ele>1632.85</ele>
        <time>2019-08-27T09:40:57Z</time>
      </trkpt>
      <trkpt lat="45.2132" lon="5.58997">
        <ele>1632.71</ele>
        <time>2019-08-27T09:43:11Z</time>
      </trkpt>
      <trkpt lat="45.21326" lon="5.59">
        <ele>1632.41</ele>
        <time>2019-08-27T09:44:49Z</time>
      </trkpt>
      <trkpt lat="45.21342" lon="5.59014">
        <ele>1632.02</ele>
        <time>2019-08-27T09:44:55Z</time>
      </trkpt>
      <trkpt lat="45.21333" lon="5.59035">
        <ele>1630.76</ele>
        <time>2019-08-27T09:45:05Z</time>
      </trkpt>
      <trkpt lat="45.21309" lon="5.59066">
        <ele>1631.72</ele>
        <time>2019-08-27T09:45:23Z</time>
      </trkpt>
      <trkpt lat="45.21281" lon="5.59075">
        <ele>1632.43</ele>
        <time>2019-08-27T09:45:38Z</time>
      </trkpt>
      <trkpt lat="45.21272" lon="5.59074">
        <ele>1632.46</ele>
        <time>2019-08-27T09:45:40Z</time>
      </trkpt>
      <trkpt lat="45.21249" lon="5.59079">
        <ele>1630.98</ele>
        <time>2019-08-27T09:45:45Z</time>
      </trkpt>
      <trkpt lat="45.21232" lon="5.59095">
        <ele>1629.7</ele>
        <time>2019-08-27T09:45:49Z</time>
      </trkpt>
      <trkpt lat="45.21211" lon="5.5911">
        <ele>1627.9</ele>
        <time>2019-08-27T09:45:53Z</time>
      </trkpt>
      <trkpt lat="45.2119" lon="5.59134">
        <ele>1626.14</ele>
        <time>2019-08-27T09:45:57Z</time>
      </trkpt>
      <trkpt lat="45.21173" lon="5.5916">
        <ele>1624.59</ele>
        <time>2019-08-27T09:46:02Z</time>
      </trkpt>
      <trkpt lat="45.21137" lon="5.59161">
        <ele>1623.19</ele>
        <time>2019-08-27T09:46:10Z</time>
      </trkpt>
      <trkpt lat="45.21133" lon="5.5915">
        <ele>1623.81</ele>
        <time>2019-08-27T09:46:15Z</time>
      </trkpt>
      <trkpt lat="45.21131" lon="5.59144">
        <ele>1624.57</ele>
        <time>2019-08-27T09:46:18Z</time>
      </trkpt>
      <trkpt lat="45.21127" lon="5.59134">
        <ele>1625.45</ele>
        <time>2019-08-27T09:46:23Z</time>
      </trkpt>
      <trkpt lat="45.21121" lon="5.59124">
        <ele>1625.59</ele>
        <time>2019-08-27T09:46:26Z</time>
      </trkpt>
      <trkpt lat="45.21099" lon="5.59104">
        <ele>1624.62</ele>
        <time>2019-08-27T09:46:31Z</time>
      </trkpt>
      <trkpt lat="45.21078" lon="5.59092">
        <ele>1623.27</ele>
        <time>2019-08-27T09:46:35Z</time>
      </trkpt>
      <trkpt lat="45.21055" lon="5.59064">
        <ele>1621.04</ele>
        <time>2019-08-27T09:46:44Z</time>
      </trkpt>
      <trkpt lat="45.21052" lon="5.59056">
        <ele>1620.33</ele>
        <time>2019-08-27T09:47:04Z</time>
      </trkpt>
      <trkpt lat="45.21052" lon="5.59058">
        <ele>1620.18</ele>
        <time>2019-08-27T09:47:26Z</time>
      </trkpt>
      <trkpt lat="45.21022" lon="5.59067">
        <ele>1619.47</ele>
        <time>2019-08-27T09:47:36Z</time>
      </trkpt>
      <trkpt lat="45.21004" lon="5.59103">
        <ele>1619.01</ele>
        <time>2019-08-27T09:47:46Z</time>
      </trkpt>
      <trkpt lat="45.20995" lon="5.59136">
        <ele>1619.76</ele>
        <time>2019-08-27T09:47:55Z</time>
      </trkpt>
      <trkpt lat="45.20987" lon="5.5917">
        <ele>1620.98</ele>
        <time>2019-08-27T09:48:05Z</time>
      </trkpt>
      <trkpt lat="45.20948" lon="5.59177">
        <ele>1620.93</ele>
        <time>2019-08-27T09:48:18Z</time>
      </trkpt>
      <trkpt lat="45.20934" lon="5.59173">
        <ele>1620.71</ele>
        <time>2019-08-27T09:48:22Z</time>
      </trkpt>
      <trkpt lat="45.20904" lon="5.59133">
        <ele>1619.51</ele>
        <time>2019-08-27T09:48:33Z</time>
      </trkpt>
      <trkpt lat="45.20882" lon="5.59125">
        <ele>1618.52</ele>
        <time>2019-08-27T09:48:37Z</time>
      </trkpt>
      <trkpt lat="45.2083" lon="5.59117">
        <ele>1616.78</ele>
        <time>2019-08-27T09:48:47Z</time>
      </trkpt>
      <trkpt lat="45.20778" lon="5.5914">
        <ele>1615.87</ele>
        <time>2019-08-27T09:48:58Z</time>
      </trkpt>
      <trkpt lat="45.20752" lon="5.59153">
        <ele>1617.69</ele>
        <time>2019-08-27T09:49:08Z</time>
      </trkpt>
      <trkpt lat="45.20749" lon="5.59154">
        <ele>1617.69</ele>
        <time>2019-08-27T09:49:09Z</time>
      </trkpt>
      <trkpt lat="45.20715" lon="5.59197">
        <ele>1615.41</ele>
        <time>2019-08-27T09:49:16Z</time>
      </trkpt>
      <trkpt lat="45.20695" lon="5.59222">
        <ele>1613.45</ele>
        <time>2019-08-27T09:49:22Z</time>
      </trkpt>
      <trkpt lat="45.20666" lon="5.59219">
        <ele>1615.52</ele>
        <time>2019-08-27T09:49:35Z</time>
      </trkpt>
      <trkpt lat="45.2064" lon="5.59213">
        <ele>1617.05</ele>
        <time>2019-08-27T09:49:47Z</time>
      </trkpt>
      <trkpt lat="45.2061" lon="5.59219">
        <ele>1618.73</ele>
        <time>2019-08-27T09:50:00Z</time>
      </trkpt>
      <trkpt lat="45.20583" lon="5.5924">
        <ele>1619.57</ele>
        <time>2019-08-27T09:50:11Z</time>
      </trkpt>
      <trkpt lat="45.20566" lon="5.59253">
        <ele>1620.38</ele>
        <time>2019-08-27T09:50:22Z</time>
      </trkpt>
      <trkpt lat="45.20538" lon="5.59271">
        <ele>1620.86</ele>
        <time>2019-08-27T09:50:31Z</time>
      </trkpt>
      <trkpt lat="45.20509" lon="5.59294">
        <ele>1619.99</ele>
        <time>2019-08-27T09:50:40Z</time>
      </trkpt>
      <trkpt lat="45.20477" lon="5.59315">
        <ele>1621.65</ele>
        <time>2019-08-27T09:50:54Z</time>
      </trkpt>
      <trkpt lat="45.20453" lon="5.5931">
        <ele>1623.83</ele>
        <time>2019-08-27T09:51:07Z</time>
      </trkpt>
      <trkpt lat="45.20433" lon="5.59311">
        <ele>1626.93</ele>
        <time>2019-08-27T09:51:21Z</time>
      </trkpt>
      <trkpt lat="45.20403" lon="5.59311">
        <ele>1628.52</ele>
        <time>2019-08-27T09:51:38Z</time>
      </trkpt>
      <trkpt lat="45.20371" lon="5.59303">
        <ele>1629.96</ele>
        <time>2019-08-27T09:51:57Z</time>
      </trkpt>
      <trkpt lat="45.20346" lon="5.59293">
        <ele>1631.97</ele>
        <time>2019-08-27T09:52:14Z</time>
      </trkpt>
      <trkpt lat="45.2032" lon="5.59282">
        <ele>1633.29</ele>
        <time>2019-08-27T09:52:29Z</time>
      </trkpt>
      <trkpt lat="45.20281" lon="5.59271">
        <ele>1633.44</ele>
        <time>2019-08-27T09:52:43Z</time>
      </trkpt>
      <trkpt lat="45.20238" lon="5.59257">
        <ele>1633.67</ele>
        <time>2019-08-27T09:53:01Z</time>
      </trkpt>
      <trkpt lat="45.20212" lon="5.59252">
        <ele>1634</ele>
        <time>2019-08-27T09:53:13Z</time>
      </trkpt>
      <trkpt lat="45.20187" lon="5.59241">
        <ele>1633.96</ele>
        <time>2019-08-27T09:53:27Z</time>
      </trkpt>
      <trkpt lat="45.20152" lon="5.59233">
        <ele>1634.02</ele>
        <time>2019-08-27T09:53:40Z</time>
      </trkpt>
      <trkpt lat="45.20117" lon="5.59225">
        <ele>1633.39</ele>
        <time>2019-08-27T09:53:52Z</time>
      </trkpt>
      <trkpt lat="45.20066" lon="5.59218">
        <ele>1634.44</ele>
        <time>2019-08-27T09:54:11Z</time>
      </trkpt>
      <trkpt lat="45.20019" lon="5.59204">
        <ele>1635.06</ele>
        <time>2019-08-27T09:54:27Z</time>
      </trkpt>
      <trkpt lat="45.19972" lon="5.59193">
        <ele>1634.97</ele>
        <time>2019-08-27T09:54:42Z</time>
      </trkpt>
      <trkpt lat="45.19917" lon="5.59187">
        <ele>1633.85</ele>
        <time>2019-08-27T09:54:59Z</time>
      </trkpt>
      <trkpt lat="45.1987" lon="5.59185">
        <ele>1634.11</ele>
        <time>2019-08-27T09:55:13Z</time>
      </trkpt>
      <trkpt lat="45.19827" lon="5.5919">
        <ele>1634.34</ele>
        <time>2019-08-27T09:55:26Z</time>
      </trkpt>
      <trkpt lat="45.19813" lon="5.59184">
        <ele>1635.45</ele>
        <time>2019-08-27T09:55:37Z</time>
      </trkpt>
      <trkpt lat="45.19811" lon="5.59183">
        <ele>1635.25</ele>
        <time>2019-08-27T09:55:43Z</time>
      </trkpt>
      <trkpt lat="45.19802" lon="5.59187">
        <ele>1635.31</ele>
        <time>2019-08-27T09:55:49Z</time>
      </trkpt>
      <trkpt lat="45.19777" lon="5.59198">
        <ele>1635.75</ele>
        <time>2019-08-27T09:56:03Z</time>
      </trkpt>
      <trkpt lat="45.19761" lon="5.59197">
        <ele>1637</ele>
        <time>2019-08-27T09:56:17Z</time>
      </trkpt>
      <trkpt lat="45.19763" lon="5.59196">
        <ele>1636.83</ele>
        <time>2019-08-27T09:56:55Z</time>
      </trkpt>
      <trkpt lat="45.19759" lon="5.59195">
        <ele>1636.88</ele>
        <time>2019-08-27T09:57:04Z</time>
      </trkpt>
      <trkpt lat="45.19739" lon="5.59191">
        <ele>1638.44</ele>
        <time>2019-08-27T09:57:20Z</time>
      </trkpt>
      <trkpt lat="45.19718" lon="5.59184">
        <ele>1641.18</ele>
        <time>2019-08-27T09:57:36Z</time>
      </trkpt>
      <trkpt lat="45.19709" lon="5.59181">
        <ele>1643.25</ele>
        <time>2019-08-27T09:57:47Z</time>
      </trkpt>
      <trkpt lat="45.19695" lon="5.59173">
        <ele>1646.21</ele>
        <time>2019-08-27T09:58:05Z</time>
      </trkpt>
      <trkpt lat="45.19685" lon="5.5917">
        <ele>1649.3</ele>
        <time>2019-08-27T09:58:22Z</time>
      </trkpt>
      <trkpt lat="45.19675" lon="5.59165">
        <ele>1651.55</ele>
        <time>2019-08-27T09:58:35Z</time>
      </trkpt>
      <trkpt lat="45.19658" lon="5.59162">
        <ele>1653.01</ele>
        <time>2019-08-27T09:58:51Z</time>
      </trkpt>
      <trkpt lat="45.19631" lon="5.59166">
        <ele>1653.02</ele>
        <time>2019-08-27T09:59:04Z</time>
      </trkpt>
      <trkpt lat="45.19608" lon="5.59172">
        <ele>1653.81</ele>
        <time>2019-08-27T09:59:15Z</time>
      </trkpt>
      <trkpt lat="45.196" lon="5.59173">
        <ele>1653.97</ele>
        <time>2019-08-27T09:59:19Z</time>
      </trkpt>
      <trkpt lat="45.1957" lon="5.59186">
        <ele>1654.63</ele>
        <time>2019-08-27T09:59:33Z</time>
      </trkpt>
      <trkpt lat="45.19532" lon="5.59192">
        <ele>1655.23</ele>
        <time>2019-08-27T09:59:46Z</time>
      </trkpt>
      <trkpt lat="45.19498" lon="5.59207">
        <ele>1655.24</ele>
        <time>2019-08-27T09:59:57Z</time>
      </trkpt>
      <trkpt lat="45.19457" lon="5.59224">
        <ele>1655.15</ele>
        <time>2019-08-27T10:00:10Z</time>
      </trkpt>
      <trkpt lat="45.19425" lon="5.59243">
        <ele>1655.55</ele>
        <time>2019-08-27T10:00:22Z</time>
      </trkpt>
      <trkpt lat="45.19394" lon="5.59249">
        <ele>1655.6</ele>
        <time>2019-08-27T10:00:34Z</time>
      </trkpt>
      <trkpt lat="45.19392" lon="5.5925">
        <ele>1655.66</ele>
        <time>2019-08-27T10:00:59Z</time>
      </trkpt>
      <trkpt lat="45.19389" lon="5.59251">
        <ele>1655.43</ele>
        <time>2019-08-27T10:01:20Z</time>
      </trkpt>
      <trkpt lat="45.19386" lon="5.59251">
        <ele>1655.28</ele>
        <time>2019-08-27T10:01:51Z</time>
      </trkpt>
      <trkpt lat="45.19388" lon="5.5925">
        <ele>1655.05</ele>
        <time>2019-08-27T10:02:15Z</time>
      </trkpt>
      <trkpt lat="45.19387" lon="5.59251">
        <ele>1655.44</ele>
        <time>2019-08-27T10:03:02Z</time>
      </trkpt>
      <trkpt lat="45.19386" lon="5.59251">
        <ele>1655.68</ele>
        <time>2019-08-27T10:03:31Z</time>
      </trkpt>
      <trkpt lat="45.19386" lon="5.5925">
        <ele>1655.1</ele>
        <time>2019-08-27T10:03:54Z</time>
      </trkpt>
      <trkpt lat="45.19385" lon="5.59249">
        <ele>1654.93</ele>
        <time>2019-08-27T10:04:22Z</time>
      </trkpt>
      <trkpt lat="45.19362" lon="5.59243">
        <ele>1654.67</ele>
        <time>2019-08-27T10:04:35Z</time>
      </trkpt>
      <trkpt lat="45.19325" lon="5.59234">
        <ele>1653.58</ele>
        <time>2019-08-27T10:04:45Z</time>
      </trkpt>
      <trkpt lat="45.19305" lon="5.59228">
        <ele>1652.86</ele>
        <time>2019-08-27T10:04:50Z</time>
      </trkpt>
      <trkpt lat="45.1925" lon="5.59216">
        <ele>1650.85</ele>
        <time>2019-08-27T10:05:02Z</time>
      </trkpt>
      <trkpt lat="45.19227" lon="5.59212">
        <ele>1648.93</ele>
        <time>2019-08-27T10:05:07Z</time>
      </trkpt>
      <trkpt lat="45.19201" lon="5.59204">
        <ele>1651.73</ele>
        <time>2019-08-27T10:05:22Z</time>
      </trkpt>
      <trkpt lat="45.1919" lon="5.592">
        <ele>1654.97</ele>
        <time>2019-08-27T10:05:32Z</time>
      </trkpt>
      <trkpt lat="45.19175" lon="5.59196">
        <ele>1657.77</ele>
        <time>2019-08-27T10:05:48Z</time>
      </trkpt>
      <trkpt lat="45.19169" lon="5.59195">
        <ele>1658.76</ele>
        <time>2019-08-27T10:05:55Z</time>
      </trkpt>
      <trkpt lat="45.19154" lon="5.59189">
        <ele>1661.11</ele>
        <time>2019-08-27T10:06:12Z</time>
      </trkpt>
      <trkpt lat="45.19134" lon="5.59184">
        <ele>1664.09</ele>
        <time>2019-08-27T10:06:33Z</time>
      </trkpt>
      <trkpt lat="45.19117" lon="5.59174">
        <ele>1666.82</ele>
        <time>2019-08-27T10:06:53Z</time>
      </trkpt>
      <trkpt lat="45.19107" lon="5.59169">
        <ele>1668.27</ele>
        <time>2019-08-27T10:07:06Z</time>
      </trkpt>
      <trkpt lat="45.19089" lon="5.59169">
        <ele>1671.15</ele>
        <time>2019-08-27T10:07:26Z</time>
      </trkpt>
      <trkpt lat="45.19083" lon="5.59166">
        <ele>1671.95</ele>
        <time>2019-08-27T10:07:34Z</time>
      </trkpt>
      <trkpt lat="45.19069" lon="5.59159">
        <ele>1674.02</ele>
        <time>2019-08-27T10:07:51Z</time>
      </trkpt>
      <trkpt lat="45.19052" lon="5.59151">
        <ele>1676.1</ele>
        <time>2019-08-27T10:08:10Z</time>
      </trkpt>
      <trkpt lat="45.19044" lon="5.59148">
        <ele>1676.78</ele>
        <time>2019-08-27T10:08:16Z</time>
      </trkpt>
      <trkpt lat="45.19028" lon="5.59145">
        <ele>1679.1</ele>
        <time>2019-08-27T10:08:33Z</time>
      </trkpt>
      <trkpt lat="45.19011" lon="5.59141">
        <ele>1680.86</ele>
        <time>2019-08-27T10:08:49Z</time>
      </trkpt>
      <trkpt lat="45.18992" lon="5.59141">
        <ele>1683.17</ele>
        <time>2019-08-27T10:09:08Z</time>
      </trkpt>
      <trkpt lat="45.18984" lon="5.59147">
        <ele>1684.6</ele>
        <time>2019-08-27T10:09:23Z</time>
      </trkpt>
      <trkpt lat="45.18985" lon="5.59146">
        <ele>1684.87</ele>
        <time>2019-08-27T10:09:58Z</time>
      </trkpt>
      <trkpt lat="45.18986" lon="5.5914">
        <ele>1684.67</ele>
        <time>2019-08-27T10:10:21Z</time>
      </trkpt>
      <trkpt lat="45.18982" lon="5.59138">
        <ele>1684.94</ele>
        <time>2019-08-27T10:10:31Z</time>
      </trkpt>
      <trkpt lat="45.18966" lon="5.59135">
        <ele>1685.53</ele>
        <time>2019-08-27T10:10:45Z</time>
      </trkpt>
      <trkpt lat="45.1896" lon="5.59137">
        <ele>1686.44</ele>
        <time>2019-08-27T10:10:56Z</time>
      </trkpt>
      <trkpt lat="45.18956" lon="5.59139">
        <ele>1686.58</ele>
        <time>2019-08-27T10:11:01Z</time>
      </trkpt>
      <trkpt lat="45.18952" lon="5.59138">
        <ele>1686.71</ele>
        <time>2019-08-27T10:11:04Z</time>
      </trkpt>
      <trkpt lat="45.18929" lon="5.59138">
        <ele>1688.78</ele>
        <time>2019-08-27T10:11:22Z</time>
      </trkpt>
      <trkpt lat="45.18922" lon="5.5914">
        <ele>1689.5</ele>
        <time>2019-08-27T10:11:29Z</time>
      </trkpt>
      <trkpt lat="45.18905" lon="5.59144">
        <ele>1691.68</ele>
        <time>2019-08-27T10:11:47Z</time>
      </trkpt>
      <trkpt lat="45.18884" lon="5.59143">
        <ele>1692.8</ele>
        <time>2019-08-27T10:12:04Z</time>
      </trkpt>
      <trkpt lat="45.18873" lon="5.59141">
        <ele>1694.17</ele>
        <time>2019-08-27T10:12:15Z</time>
      </trkpt>
      <trkpt lat="45.18864" lon="5.59139">
        <ele>1695.03</ele>
        <time>2019-08-27T10:12:22Z</time>
      </trkpt>
      <trkpt lat="45.18854" lon="5.5914">
        <ele>1696.42</ele>
        <time>2019-08-27T10:12:30Z</time>
      </trkpt>
      <trkpt lat="45.18838" lon="5.59149">
        <ele>1698.69</ele>
        <time>2019-08-27T10:12:50Z</time>
      </trkpt>
      <trkpt lat="45.18815" lon="5.59153">
        <ele>1699.33</ele>
        <time>2019-08-27T10:13:07Z</time>
      </trkpt>
      <trkpt lat="45.18796" lon="5.59178">
        <ele>1699.94</ele>
        <time>2019-08-27T10:13:21Z</time>
      </trkpt>
      <trkpt lat="45.18794" lon="5.59181">
        <ele>1700</ele>
        <time>2019-08-27T10:13:23Z</time>
      </trkpt>
      <trkpt lat="45.18767" lon="5.59192">
        <ele>1700.44</ele>
        <time>2019-08-27T10:13:39Z</time>
      </trkpt>
      <trkpt lat="45.18738" lon="5.59215">
        <ele>1700.9</ele>
        <time>2019-08-27T10:13:56Z</time>
      </trkpt>
      <trkpt lat="45.18732" lon="5.59216">
        <ele>1701.02</ele>
        <time>2019-08-27T10:14:01Z</time>
      </trkpt>
      <trkpt lat="45.18713" lon="5.59232">
        <ele>1702.01</ele>
        <time>2019-08-27T10:14:15Z</time>
      </trkpt>
      <trkpt lat="45.18711" lon="5.59235">
        <ele>1702.2</ele>
        <time>2019-08-27T10:14:17Z</time>
      </trkpt>
      <trkpt lat="45.18704" lon="5.59248">
        <ele>1702.53</ele>
        <time>2019-08-27T10:14:23Z</time>
      </trkpt>
      <trkpt lat="45.18696" lon="5.59257">
        <ele>1702.49</ele>
        <time>2019-08-27T10:14:27Z</time>
      </trkpt>
      <trkpt lat="45.18673" lon="5.59257">
        <ele>1703.2</ele>
        <time>2019-08-27T10:14:40Z</time>
      </trkpt>
      <trkpt lat="45.18672" lon="5.59257">
        <ele>1703.33</ele>
        <time>2019-08-27T10:14:41Z</time>
      </trkpt>
      <trkpt lat="45.18667" lon="5.59256">
        <ele>1703.84</ele>
        <time>2019-08-27T10:14:45Z</time>
      </trkpt>
      <trkpt lat="45.18648" lon="5.59248">
        <ele>1705.79</ele>
        <time>2019-08-27T10:15:02Z</time>
      </trkpt>
      <trkpt lat="45.18645" lon="5.59246">
        <ele>1706.1</ele>
        <time>2019-08-27T10:15:06Z</time>
      </trkpt>
      <trkpt lat="45.1863" lon="5.59228">
        <ele>1706.05</ele>
        <time>2019-08-27T10:15:20Z</time>
      </trkpt>
      <trkpt lat="45.18625" lon="5.59219">
        <ele>1705.88</ele>
        <time>2019-08-27T10:15:23Z</time>
      </trkpt>
      <trkpt lat="45.18613" lon="5.59198">
        <ele>1705.18</ele>
        <time>2019-08-27T10:15:31Z</time>
      </trkpt>
      <trkpt lat="45.18596" lon="5.59176">
        <ele>1704.83</ele>
        <time>2019-08-27T10:15:42Z</time>
      </trkpt>
      <trkpt lat="45.18587" lon="5.59173">
        <ele>1704.74</ele>
        <time>2019-08-27T10:15:46Z</time>
      </trkpt>
      <trkpt lat="45.18569" lon="5.59151">
        <ele>1704.71</ele>
        <time>2019-08-27T10:15:56Z</time>
      </trkpt>
      <trkpt lat="45.18562" lon="5.59117">
        <ele>1706.18</ele>
        <time>2019-08-27T10:16:09Z</time>
      </trkpt>
      <trkpt lat="45.1855" lon="5.59109">
        <ele>1706.19</ele>
        <time>2019-08-27T10:16:15Z</time>
      </trkpt>
      <trkpt lat="45.18544" lon="5.59103">
        <ele>1706.26</ele>
        <time>2019-08-27T10:16:19Z</time>
      </trkpt>
      <trkpt lat="45.18541" lon="5.59099">
        <ele>1706.18</ele>
        <time>2019-08-27T10:16:21Z</time>
      </trkpt>
      <trkpt lat="45.18534" lon="5.59086">
        <ele>1705.93</ele>
        <time>2019-08-27T10:16:25Z</time>
      </trkpt>
      <trkpt lat="45.185" lon="5.59045">
        <ele>1704.28</ele>
        <time>2019-08-27T10:16:38Z</time>
      </trkpt>
      <trkpt lat="45.18489" lon="5.59035">
        <ele>1703.19</ele>
        <time>2019-08-27T10:16:42Z</time>
      </trkpt>
      <trkpt lat="45.18484" lon="5.59009">
        <ele>1701.32</ele>
        <time>2019-08-27T10:16:48Z</time>
      </trkpt>
      <trkpt lat="45.18468" lon="5.58987">
        <ele>1698.64</ele>
        <time>2019-08-27T10:16:56Z</time>
      </trkpt>
      <trkpt lat="45.18437" lon="5.58951">
        <ele>1694.71</ele>
        <time>2019-08-27T10:17:07Z</time>
      </trkpt>
      <trkpt lat="45.18433" lon="5.58943">
        <ele>1694.04</ele>
        <time>2019-08-27T10:17:09Z</time>
      </trkpt>
      <trkpt lat="45.1841" lon="5.58926">
        <ele>1690.51</ele>
        <time>2019-08-27T10:17:18Z</time>
      </trkpt>
      <trkpt lat="45.184" lon="5.58914">
        <ele>1688.46</ele>
        <time>2019-08-27T10:17:23Z</time>
      </trkpt>
      <trkpt lat="45.18392" lon="5.58909">
        <ele>1687.76</ele>
        <time>2019-08-27T10:17:26Z</time>
      </trkpt>
      <trkpt lat="45.18378" lon="5.58874">
        <ele>1684.81</ele>
        <time>2019-08-27T10:17:35Z</time>
      </trkpt>
      <trkpt lat="45.18365" lon="5.58857">
        <ele>1682.94</ele>
        <time>2019-08-27T10:17:39Z</time>
      </trkpt>
      <trkpt lat="45.1834" lon="5.58835">
        <ele>1680.87</ele>
        <time>2019-08-27T10:17:45Z</time>
      </trkpt>
      <trkpt lat="45.1833" lon="5.58821">
        <ele>1679.76</ele>
        <time>2019-08-27T10:17:48Z</time>
      </trkpt>
      <trkpt lat="45.18298" lon="5.5881">
        <ele>1677.4</ele>
        <time>2019-08-27T10:17:55Z</time>
      </trkpt>
      <trkpt lat="45.18259" lon="5.58788">
        <ele>1673.99</ele>
        <time>2019-08-27T10:18:07Z</time>
      </trkpt>
      <trkpt lat="45.18245" lon="5.58764">
        <ele>1670.96</ele>
        <time>2019-08-27T10:18:15Z</time>
      </trkpt>
      <trkpt lat="45.18242" lon="5.58762">
        <ele>1670.52</ele>
        <time>2019-08-27T10:18:16Z</time>
      </trkpt>
      <trkpt lat="45.18228" lon="5.58756">
        <ele>1669.09</ele>
        <time>2019-08-27T10:18:19Z</time>
      </trkpt>
      <trkpt lat="45.18207" lon="5.58749">
        <ele>1666.75</ele>
        <time>2019-08-27T10:18:23Z</time>
      </trkpt>
      <trkpt lat="45.18197" lon="5.58742">
        <ele>1665.88</ele>
        <time>2019-08-27T10:18:25Z</time>
      </trkpt>
      <trkpt lat="45.18157" lon="5.58712">
        <ele>1663.46</ele>
        <time>2019-08-27T10:18:33Z</time>
      </trkpt>
      <trkpt lat="45.18117" lon="5.58684">
        <ele>1663.05</ele>
        <time>2019-08-27T10:18:45Z</time>
      </trkpt>
      <trkpt lat="45.181" lon="5.5867">
        <ele>1662.73</ele>
        <time>2019-08-27T10:18:55Z</time>
      </trkpt>
      <trkpt lat="45.181" lon="5.58671">
        <ele>1662.38</ele>
        <time>2019-08-27T10:19:28Z</time>
      </trkpt>
      <trkpt lat="45.18097" lon="5.58668">
        <ele>1662.47</ele>
        <time>2019-08-27T10:20:12Z</time>
      </trkpt>
      <trkpt lat="45.18092" lon="5.58665">
        <ele>1662.23</ele>
        <time>2019-08-27T10:20:59Z</time>
      </trkpt>
      <trkpt lat="45.1809" lon="5.58663">
        <ele>1662.22</ele>
        <time>2019-08-27T10:21:34Z</time>
      </trkpt>
      <trkpt lat="45.18095" lon="5.58664">
        <ele>1662.11</ele>
        <time>2019-08-27T10:22:07Z</time>
      </trkpt>
      <trkpt lat="45.18094" lon="5.58666">
        <ele>1662.1</ele>
        <time>2019-08-27T10:22:32Z</time>
      </trkpt>
      <trkpt lat="45.18077" lon="5.58653">
        <ele>1660.92</ele>
        <time>2019-08-27T10:22:47Z</time>
      </trkpt>
      <trkpt lat="45.18052" lon="5.58637">
        <ele>1659.57</ele>
        <time>2019-08-27T10:22:56Z</time>
      </trkpt>
      <trkpt lat="45.18017" lon="5.58612">
        <ele>1656.54</ele>
        <time>2019-08-27T10:23:06Z</time>
      </trkpt>
      <trkpt lat="45.17988" lon="5.58596">
        <ele>1653.27</ele>
        <time>2019-08-27T10:23:13Z</time>
      </trkpt>
      <trkpt lat="45.17961" lon="5.58592">
        <ele>1651.6</ele>
        <time>2019-08-27T10:23:22Z</time>
      </trkpt>
      <trkpt lat="45.17957" lon="5.58591">
        <ele>1651.79</ele>
        <time>2019-08-27T10:23:24Z</time>
      </trkpt>
      <trkpt lat="45.1793" lon="5.58584">
        <ele>1654.49</ele>
        <time>2019-08-27T10:23:39Z</time>
      </trkpt>
      <trkpt lat="45.17906" lon="5.5858">
        <ele>1656.9</ele>
        <time>2019-08-27T10:23:54Z</time>
      </trkpt>
      <trkpt lat="45.179" lon="5.58578">
        <ele>1657.51</ele>
        <time>2019-08-27T10:23:58Z</time>
      </trkpt>
      <trkpt lat="45.17895" lon="5.58578">
        <ele>1657.83</ele>
        <time>2019-08-27T10:24:02Z</time>
      </trkpt>
      <trkpt lat="45.17874" lon="5.58582">
        <ele>1659.97</ele>
        <time>2019-08-27T10:24:18Z</time>
      </trkpt>
      <trkpt lat="45.17863" lon="5.58589">
        <ele>1661.88</ele>
        <time>2019-08-27T10:24:30Z</time>
      </trkpt>
      <trkpt lat="45.17861" lon="5.5859">
        <ele>1662.05</ele>
        <time>2019-08-27T10:24:32Z</time>
      </trkpt>
      <trkpt lat="45.17848" lon="5.58602">
        <ele>1664.58</ele>
        <time>2019-08-27T10:24:48Z</time>
      </trkpt>
      <trkpt lat="45.17832" lon="5.58611">
        <ele>1667.16</ele>
        <time>2019-08-27T10:25:08Z</time>
      </trkpt>
      <trkpt lat="45.17826" lon="5.58614">
        <ele>1667.81</ele>
        <time>2019-08-27T10:25:14Z</time>
      </trkpt>
      <trkpt lat="45.17816" lon="5.58617">
        <ele>1668.46</ele>
        <time>2019-08-27T10:25:25Z</time>
      </trkpt>
      <trkpt lat="45.17795" lon="5.58626">
        <ele>1670.27</ele>
        <time>2019-08-27T10:25:41Z</time>
      </trkpt>
      <trkpt lat="45.17787" lon="5.58633">
        <ele>1671.19</ele>
        <time>2019-08-27T10:25:51Z</time>
      </trkpt>
      <trkpt lat="45.17784" lon="5.58638">
        <ele>1671.64</ele>
        <time>2019-08-27T10:25:55Z</time>
      </trkpt>
      <trkpt lat="45.17762" lon="5.5864">
        <ele>1672.74</ele>
        <time>2019-08-27T10:26:10Z</time>
      </trkpt>
      <trkpt lat="45.17736" lon="5.58644">
        <ele>1673.44</ele>
        <time>2019-08-27T10:26:24Z</time>
      </trkpt>
      <trkpt lat="45.17717" lon="5.58647">
        <ele>1674.06</ele>
        <time>2019-08-27T10:26:36Z</time>
      </trkpt>
      <trkpt lat="45.17711" lon="5.58651">
        <ele>1674.52</ele>
        <time>2019-08-27T10:26:41Z</time>
      </trkpt>
      <trkpt lat="45.17687" lon="5.58653">
        <ele>1676.23</ele>
        <time>2019-08-27T10:26:57Z</time>
      </trkpt>
      <trkpt lat="45.17678" lon="5.58653">
        <ele>1678.13</ele>
        <time>2019-08-27T10:27:11Z</time>
      </trkpt>
      <trkpt lat="45.17672" lon="5.58659">
        <ele>1678.77</ele>
        <time>2019-08-27T10:27:40Z</time>
      </trkpt>
      <trkpt lat="45.17671" lon="5.58656">
        <ele>1678.85</ele>
        <time>2019-08-27T10:28:49Z</time>
      </trkpt>
      <trkpt lat="45.17672" lon="5.58649">
        <ele>1678.97</ele>
        <time>2019-08-27T10:29:39Z</time>
      </trkpt>
      <trkpt lat="45.17671" lon="5.58654">
        <ele>1679.45</ele>
        <time>2019-08-27T10:30:22Z</time>
      </trkpt>
      <trkpt lat="45.17673" lon="5.58656">
        <ele>1679.63</ele>
        <time>2019-08-27T10:31:10Z</time>
      </trkpt>
      <trkpt lat="45.17675" lon="5.58656">
        <ele>1679.73</ele>
        <time>2019-08-27T10:32:29Z</time>
      </trkpt>
      <trkpt lat="45.17671" lon="5.58659">
        <ele>1680.55</ele>
        <time>2019-08-27T10:33:31Z</time>
      </trkpt>
      <trkpt lat="45.17662" lon="5.58651">
        <ele>1681.17</ele>
        <time>2019-08-27T10:34:04Z</time>
      </trkpt>
      <trkpt lat="45.17661" lon="5.5865">
        <ele>1681.25</ele>
        <time>2019-08-27T10:34:05Z</time>
      </trkpt>
      <trkpt lat="45.17658" lon="5.58649">
        <ele>1681.56</ele>
        <time>2019-08-27T10:34:08Z</time>
      </trkpt>
      <trkpt lat="45.17653" lon="5.58645">
        <ele>1682.2</ele>
        <time>2019-08-27T10:34:12Z</time>
      </trkpt>
      <trkpt lat="45.17644" lon="5.58638">
        <ele>1683.63</ele>
        <time>2019-08-27T10:34:20Z</time>
      </trkpt>
      <trkpt lat="45.17639" lon="5.58631">
        <ele>1684.62</ele>
        <time>2019-08-27T10:34:25Z</time>
      </trkpt>
      <trkpt lat="45.17636" lon="5.5863">
        <ele>1685.08</ele>
        <time>2019-08-27T10:34:28Z</time>
      </trkpt>
      <trkpt lat="45.17631" lon="5.58629">
        <ele>1685.57</ele>
        <time>2019-08-27T10:34:31Z</time>
      </trkpt>
      <trkpt lat="45.17622" lon="5.58624">
        <ele>1686.96</ele>
        <time>2019-08-27T10:34:38Z</time>
      </trkpt>
      <trkpt lat="45.1761" lon="5.58611">
        <ele>1687.97</ele>
        <time>2019-08-27T10:34:48Z</time>
      </trkpt>
      <trkpt lat="45.17595" lon="5.58597">
        <ele>1688.33</ele>
        <time>2019-08-27T10:34:58Z</time>
      </trkpt>
      <trkpt lat="45.17577" lon="5.58589">
        <ele>1688.48</ele>
        <time>2019-08-27T10:35:08Z</time>
      </trkpt>
      <trkpt lat="45.17551" lon="5.58583">
        <ele>1687.89</ele>
        <time>2019-08-27T10:35:18Z</time>
      </trkpt>
      <trkpt lat="45.17531" lon="5.58566">
        <ele>1687.59</ele>
        <time>2019-08-27T10:35:28Z</time>
      </trkpt>
      <trkpt lat="45.17503" lon="5.5855">
        <ele>1686.13</ele>
        <time>2019-08-27T10:35:37Z</time>
      </trkpt>
      <trkpt lat="45.17474" lon="5.58551">
        <ele>1684.4</ele>
        <time>2019-08-27T10:35:47Z</time>
      </trkpt>
      <trkpt lat="45.17445" lon="5.58535">
        <ele>1683.88</ele>
        <time>2019-08-27T10:35:56Z</time>
      </trkpt>
      <trkpt lat="45.17442" lon="5.58532">
        <ele>1683.75</ele>
        <time>2019-08-27T10:35:57Z</time>
      </trkpt>
      <trkpt lat="45.17431" lon="5.5853">
        <ele>1682.92</ele>
        <time>2019-08-27T10:36:01Z</time>
      </trkpt>
      <trkpt lat="45.17423" lon="5.58525">
        <ele>1682.28</ele>
        <time>2019-08-27T10:36:05Z</time>
      </trkpt>
      <trkpt lat="45.17412" lon="5.58512">
        <ele>1681.47</ele>
        <time>2019-08-27T10:36:10Z</time>
      </trkpt>
      <trkpt lat="45.17377" lon="5.58486">
        <ele>1678.14</ele>
        <time>2019-08-27T10:36:21Z</time>
      </trkpt>
      <trkpt lat="45.17363" lon="5.58472">
        <ele>1675.02</ele>
        <time>2019-08-27T10:36:29Z</time>
      </trkpt>
      <trkpt lat="45.17355" lon="5.58474">
        <ele>1671.99</ele>
        <time>2019-08-27T10:36:36Z</time>
      </trkpt>
      <trkpt lat="45.17347" lon="5.58469">
        <ele>1669.04</ele>
        <time>2019-08-27T10:36:50Z</time>
      </trkpt>
      <trkpt lat="45.1734" lon="5.58462">
        <ele>1667.12</ele>
        <time>2019-08-27T10:37:00Z</time>
      </trkpt>
      <trkpt lat="45.17329" lon="5.58453">
        <ele>1665.23</ele>
        <time>2019-08-27T10:37:08Z</time>
      </trkpt>
      <trkpt lat="45.17319" lon="5.5844">
        <ele>1661.71</ele>
        <time>2019-08-27T10:37:17Z</time>
      </trkpt>
      <trkpt lat="45.17312" lon="5.58425">
        <ele>1659.47</ele>
        <time>2019-08-27T10:37:24Z</time>
      </trkpt>
      <trkpt lat="45.17307" lon="5.58419">
        <ele>1658.48</ele>
        <time>2019-08-27T10:37:27Z</time>
      </trkpt>
      <trkpt lat="45.17296" lon="5.58407">
        <ele>1655.11</ele>
        <time>2019-08-27T10:37:38Z</time>
      </trkpt>
      <trkpt lat="45.17287" lon="5.58399">
        <ele>1654.71</ele>
        <time>2019-08-27T10:38:01Z</time>
      </trkpt>
      <trkpt lat="45.17285" lon="5.58395">
        <ele>1653.94</ele>
        <time>2019-08-27T10:38:24Z</time>
      </trkpt>
      <trkpt lat="45.17275" lon="5.58397">
        <ele>1653.31</ele>
        <time>2019-08-27T10:38:47Z</time>
      </trkpt>
      <trkpt lat="45.17266" lon="5.58396">
        <ele>1652.95</ele>
        <time>2019-08-27T10:39:19Z</time>
      </trkpt>
      <trkpt lat="45.17242" lon="5.58392">
        <ele>1652.62</ele>
        <time>2019-08-27T10:39:30Z</time>
      </trkpt>
      <trkpt lat="45.17207" lon="5.58387">
        <ele>1649.66</ele>
        <time>2019-08-27T10:39:40Z</time>
      </trkpt>
      <trkpt lat="45.17203" lon="5.58388">
        <ele>1649.19</ele>
        <time>2019-08-27T10:39:41Z</time>
      </trkpt>
      <trkpt lat="45.17188" lon="5.58396">
        <ele>1647.34</ele>
        <time>2019-08-27T10:39:45Z</time>
      </trkpt>
      <trkpt lat="45.17184" lon="5.58395">
        <ele>1646.56</ele>
        <time>2019-08-27T10:39:47Z</time>
      </trkpt>
      <trkpt lat="45.17159" lon="5.58389">
        <ele>1643.21</ele>
        <time>2019-08-27T10:39:57Z</time>
      </trkpt>
      <trkpt lat="45.17153" lon="5.58385">
        <ele>1641.93</ele>
        <time>2019-08-27T10:39:59Z</time>
      </trkpt>
      <trkpt lat="45.1714" lon="5.5838">
        <ele>1640.53</ele>
        <time>2019-08-27T10:40:02Z</time>
      </trkpt>
      <trkpt lat="45.17135" lon="5.5838">
        <ele>1640.02</ele>
        <time>2019-08-27T10:40:03Z</time>
      </trkpt>
      <trkpt lat="45.17131" lon="5.58379">
        <ele>1639.57</ele>
        <time>2019-08-27T10:40:04Z</time>
      </trkpt>
      <trkpt lat="45.17127" lon="5.58378">
        <ele>1639.18</ele>
        <time>2019-08-27T10:40:05Z</time>
      </trkpt>
      <trkpt lat="45.17101" lon="5.58368">
        <ele>1637.86</ele>
        <time>2019-08-27T10:40:15Z</time>
      </trkpt>
      <trkpt lat="45.17094" lon="5.58364">
        <ele>1637.9</ele>
        <time>2019-08-27T10:40:18Z</time>
      </trkpt>
      <trkpt lat="45.17092" lon="5.58364">
        <ele>1638</ele>
        <time>2019-08-27T10:40:19Z</time>
      </trkpt>
      <trkpt lat="45.17091" lon="5.58363">
        <ele>1638.16</ele>
        <time>2019-08-27T10:40:20Z</time>
      </trkpt>
      <trkpt lat="45.17078" lon="5.58362">
        <ele>1641.25</ele>
        <time>2019-08-27T10:40:32Z</time>
      </trkpt>
      <trkpt lat="45.17066" lon="5.58357">
        <ele>1644.28</ele>
        <time>2019-08-27T10:40:49Z</time>
      </trkpt>
      <trkpt lat="45.17053" lon="5.58353">
        <ele>1646.43</ele>
        <time>2019-08-27T10:41:09Z</time>
      </trkpt>
      <trkpt lat="45.17041" lon="5.58353">
        <ele>1649.49</ele>
        <time>2019-08-27T10:41:28Z</time>
      </trkpt>
      <trkpt lat="45.17029" lon="5.58356">
        <ele>1652.67</ele>
        <time>2019-08-27T10:41:46Z</time>
      </trkpt>
      <trkpt lat="45.1702" lon="5.58355">
        <ele>1655.46</ele>
        <time>2019-08-27T10:42:04Z</time>
      </trkpt>
      <trkpt lat="45.17007" lon="5.58359">
        <ele>1658.57</ele>
        <time>2019-08-27T10:42:25Z</time>
      </trkpt>
      <trkpt lat="45.16993" lon="5.58366">
        <ele>1661.68</ele>
        <time>2019-08-27T10:42:45Z</time>
      </trkpt>
      <trkpt lat="45.16981" lon="5.58375">
        <ele>1664.77</ele>
        <time>2019-08-27T10:43:04Z</time>
      </trkpt>
      <trkpt lat="45.16974" lon="5.58375">
        <ele>1666</ele>
        <time>2019-08-27T10:43:21Z</time>
      </trkpt>
      <trkpt lat="45.16972" lon="5.58377">
        <ele>1666.22</ele>
        <time>2019-08-27T10:43:52Z</time>
      </trkpt>
      <trkpt lat="45.1697" lon="5.58376">
        <ele>1666.09</ele>
        <time>2019-08-27T10:44:23Z</time>
      </trkpt>
      <trkpt lat="45.16964" lon="5.58376">
        <ele>1666</ele>
        <time>2019-08-27T10:44:53Z</time>
      </trkpt>
      <trkpt lat="45.16923" lon="5.58362">
        <ele>1665.83</ele>
        <time>2019-08-27T10:45:12Z</time>
      </trkpt>
      <trkpt lat="45.16899" lon="5.58352">
        <ele>1664.2</ele>
        <time>2019-08-27T10:45:23Z</time>
      </trkpt>
      <trkpt lat="45.16886" lon="5.5835">
        <ele>1663.57</ele>
        <time>2019-08-27T10:45:27Z</time>
      </trkpt>
      <trkpt lat="45.16851" lon="5.58342">
        <ele>1661.31</ele>
        <time>2019-08-27T10:45:37Z</time>
      </trkpt>
      <trkpt lat="45.16817" lon="5.5834">
        <ele>1658.08</ele>
        <time>2019-08-27T10:45:47Z</time>
      </trkpt>
      <trkpt lat="45.16784" lon="5.58332">
        <ele>1655.51</ele>
        <time>2019-08-27T10:45:55Z</time>
      </trkpt>
      <trkpt lat="45.16764" lon="5.58322">
        <ele>1653.93</ele>
        <time>2019-08-27T10:45:59Z</time>
      </trkpt>
      <trkpt lat="45.16752" lon="5.58318">
        <ele>1653.1</ele>
        <time>2019-08-27T10:46:01Z</time>
      </trkpt>
      <trkpt lat="45.16741" lon="5.58317">
        <ele>1652.16</ele>
        <time>2019-08-27T10:46:03Z</time>
      </trkpt>
      <trkpt lat="45.16698" lon="5.58308">
        <ele>1650.65</ele>
        <time>2019-08-27T10:46:15Z</time>
      </trkpt>
      <trkpt lat="45.16672" lon="5.58303">
        <ele>1652.68</ele>
        <time>2019-08-27T10:46:28Z</time>
      </trkpt>
      <trkpt lat="45.16653" lon="5.58296">
        <ele>1655.81</ele>
        <time>2019-08-27T10:46:40Z</time>
      </trkpt>
      <trkpt lat="45.16635" lon="5.58296">
        <ele>1658.57</ele>
        <time>2019-08-27T10:46:56Z</time>
      </trkpt>
      <trkpt lat="45.16619" lon="5.58289">
        <ele>1660.12</ele>
        <time>2019-08-27T10:47:11Z</time>
      </trkpt>
      <trkpt lat="45.16587" lon="5.5828">
        <ele>1660.25</ele>
        <time>2019-08-27T10:47:27Z</time>
      </trkpt>
      <trkpt lat="45.16557" lon="5.58267">
        <ele>1660.62</ele>
        <time>2019-08-27T10:47:40Z</time>
      </trkpt>
      <trkpt lat="45.1655" lon="5.58263">
        <ele>1660.48</ele>
        <time>2019-08-27T10:47:42Z</time>
      </trkpt>
      <trkpt lat="45.16536" lon="5.58259">
        <ele>1660.26</ele>
        <time>2019-08-27T10:47:45Z</time>
      </trkpt>
      <trkpt lat="45.16509" lon="5.5825">
        <ele>1659.09</ele>
        <time>2019-08-27T10:47:50Z</time>
      </trkpt>
      <trkpt lat="45.16499" lon="5.58247">
        <ele>1658.44</ele>
        <time>2019-08-27T10:47:52Z</time>
      </trkpt>
      <trkpt lat="45.16473" lon="5.58234">
        <ele>1657.31</ele>
        <time>2019-08-27T10:47:57Z</time>
      </trkpt>
      <trkpt lat="45.16452" lon="5.5822">
        <ele>1656.4</ele>
        <time>2019-08-27T10:48:01Z</time>
      </trkpt>
      <trkpt lat="45.1642" lon="5.58181">
        <ele>1654.85</ele>
        <time>2019-08-27T10:48:09Z</time>
      </trkpt>
      <trkpt lat="45.16394" lon="5.58148">
        <ele>1654.39</ele>
        <time>2019-08-27T10:48:19Z</time>
      </trkpt>
      <trkpt lat="45.16389" lon="5.58131">
        <ele>1653.88</ele>
        <time>2019-08-27T10:48:23Z</time>
      </trkpt>
      <trkpt lat="45.16387" lon="5.58124">
        <ele>1653.74</ele>
        <time>2019-08-27T10:48:27Z</time>
      </trkpt>
      <trkpt lat="45.16383" lon="5.58118">
        <ele>1654.14</ele>
        <time>2019-08-27T10:48:33Z</time>
      </trkpt>
      <trkpt lat="45.16381" lon="5.5811">
        <ele>1656.04</ele>
        <time>2019-08-27T10:48:47Z</time>
      </trkpt>
      <trkpt lat="45.1638" lon="5.58109">
        <ele>1656.48</ele>
        <time>2019-08-27T10:49:09Z</time>
      </trkpt>
      <trkpt lat="45.16378" lon="5.58105">
        <ele>1656.57</ele>
        <time>2019-08-27T10:49:24Z</time>
      </trkpt>
      <trkpt lat="45.16372" lon="5.58102">
        <ele>1656.98</ele>
        <time>2019-08-27T10:49:50Z</time>
      </trkpt>
      <trkpt lat="45.16361" lon="5.58094">
        <ele>1658.2</ele>
        <time>2019-08-27T10:50:10Z</time>
      </trkpt>
      <trkpt lat="45.16358" lon="5.58092">
        <ele>1658.28</ele>
        <time>2019-08-27T10:50:16Z</time>
      </trkpt>
      <trkpt lat="45.16338" lon="5.58082">
        <ele>1658.39</ele>
        <time>2019-08-27T10:50:29Z</time>
      </trkpt>
      <trkpt lat="45.16319" lon="5.58074">
        <ele>1658.56</ele>
        <time>2019-08-27T10:50:40Z</time>
      </trkpt>
      <trkpt lat="45.16295" lon="5.5807">
        <ele>1658.3</ele>
        <time>2019-08-27T10:50:52Z</time>
      </trkpt>
      <trkpt lat="45.16293" lon="5.58069">
        <ele>1658.22</ele>
        <time>2019-08-27T10:50:53Z</time>
      </trkpt>
      <trkpt lat="45.16261" lon="5.58061">
        <ele>1656.82</ele>
        <time>2019-08-27T10:51:04Z</time>
      </trkpt>
      <trkpt lat="45.16229" lon="5.58053">
        <ele>1655.88</ele>
        <time>2019-08-27T10:51:14Z</time>
      </trkpt>
      <trkpt lat="45.16222" lon="5.58052">
        <ele>1655.7</ele>
        <time>2019-08-27T10:51:16Z</time>
      </trkpt>
      <trkpt lat="45.16188" lon="5.58043">
        <ele>1654.59</ele>
        <time>2019-08-27T10:51:26Z</time>
      </trkpt>
      <trkpt lat="45.1618" lon="5.58037">
        <ele>1654.45</ele>
        <time>2019-08-27T10:51:29Z</time>
      </trkpt>
      <trkpt lat="45.16158" lon="5.58035">
        <ele>1654.14</ele>
        <time>2019-08-27T10:51:35Z</time>
      </trkpt>
      <trkpt lat="45.16111" lon="5.58047">
        <ele>1651.66</ele>
        <time>2019-08-27T10:51:44Z</time>
      </trkpt>
      <trkpt lat="45.16063" lon="5.58038">
        <ele>1648.77</ele>
        <time>2019-08-27T10:51:51Z</time>
      </trkpt>
      <trkpt lat="45.16043" lon="5.5803">
        <ele>1647.67</ele>
        <time>2019-08-27T10:51:54Z</time>
      </trkpt>
      <trkpt lat="45.16013" lon="5.58025">
        <ele>1645.92</ele>
        <time>2019-08-27T10:51:58Z</time>
      </trkpt>
      <trkpt lat="45.15968" lon="5.58001">
        <ele>1645.47</ele>
        <time>2019-08-27T10:52:09Z</time>
      </trkpt>
      <trkpt lat="45.15941" lon="5.57989">
        <ele>1646.23</ele>
        <time>2019-08-27T10:52:18Z</time>
      </trkpt>
      <trkpt lat="45.15932" lon="5.57969">
        <ele>1645.73</ele>
        <time>2019-08-27T10:52:22Z</time>
      </trkpt>
      <trkpt lat="45.15915" lon="5.57947">
        <ele>1645.01</ele>
        <time>2019-08-27T10:52:26Z</time>
      </trkpt>
      <trkpt lat="45.15889" lon="5.57922">
        <ele>1642.95</ele>
        <time>2019-08-27T10:52:31Z</time>
      </trkpt>
      <trkpt lat="45.15873" lon="5.57917">
        <ele>1642.1</ele>
        <time>2019-08-27T10:52:34Z</time>
      </trkpt>
      <trkpt lat="45.15852" lon="5.57899">
        <ele>1641.81</ele>
        <time>2019-08-27T10:52:43Z</time>
      </trkpt>
      <trkpt lat="45.15847" lon="5.57899">
        <ele>1641.92</ele>
        <time>2019-08-27T10:52:45Z</time>
      </trkpt>
      <trkpt lat="45.15839" lon="5.57899">
        <ele>1642.36</ele>
        <time>2019-08-27T10:52:59Z</time>
      </trkpt>
      <trkpt lat="45.15836" lon="5.579">
        <ele>1642.09</ele>
        <time>2019-08-27T10:53:29Z</time>
      </trkpt>
      <trkpt lat="45.15836" lon="5.579">
        <ele>1642.06</ele>
        <time>2019-08-27T10:54:06Z</time>
      </trkpt>
      <trkpt lat="45.15832" lon="5.57899">
        <ele>1641.75</ele>
        <time>2019-08-27T10:54:20Z</time>
      </trkpt>
      <trkpt lat="45.15805" lon="5.57885">
        <ele>1641.42</ele>
        <time>2019-08-27T10:54:34Z</time>
      </trkpt>
      <trkpt lat="45.158" lon="5.57883">
        <ele>1641.04</ele>
        <time>2019-08-27T10:54:37Z</time>
      </trkpt>
      <trkpt lat="45.15781" lon="5.57873">
        <ele>1639.7</ele>
        <time>2019-08-27T10:54:43Z</time>
      </trkpt>
      <trkpt lat="45.1576" lon="5.57866">
        <ele>1638.04</ele>
        <time>2019-08-27T10:54:48Z</time>
      </trkpt>
      <trkpt lat="45.15723" lon="5.5786">
        <ele>1634.46</ele>
        <time>2019-08-27T10:54:54Z</time>
      </trkpt>
      <trkpt lat="45.15686" lon="5.57865">
        <ele>1630.61</ele>
        <time>2019-08-27T10:55:00Z</time>
      </trkpt>
      <trkpt lat="45.15671" lon="5.57867">
        <ele>1628.65</ele>
        <time>2019-08-27T10:55:08Z</time>
      </trkpt>
      <trkpt lat="45.15647" lon="5.57867">
        <ele>1628.26</ele>
        <time>2019-08-27T10:55:19Z</time>
      </trkpt>
      <trkpt lat="45.15622" lon="5.57875">
        <ele>1627.29</ele>
        <time>2019-08-27T10:55:30Z</time>
      </trkpt>
      <trkpt lat="45.15611" lon="5.57876">
        <ele>1626.27</ele>
        <time>2019-08-27T10:55:33Z</time>
      </trkpt>
      <trkpt lat="45.15601" lon="5.57874">
        <ele>1625.29</ele>
        <time>2019-08-27T10:55:35Z</time>
      </trkpt>
      <trkpt lat="45.15567" lon="5.57855">
        <ele>1621.77</ele>
        <time>2019-08-27T10:55:44Z</time>
      </trkpt>
      <trkpt lat="45.15543" lon="5.57831">
        <ele>1622.17</ele>
        <time>2019-08-27T10:55:56Z</time>
      </trkpt>
      <trkpt lat="45.15513" lon="5.5781">
        <ele>1624.48</ele>
        <time>2019-08-27T10:56:08Z</time>
      </trkpt>
      <trkpt lat="45.15507" lon="5.57802">
        <ele>1624.93</ele>
        <time>2019-08-27T10:56:12Z</time>
      </trkpt>
      <trkpt lat="45.15478" lon="5.57784">
        <ele>1626.84</ele>
        <time>2019-08-27T10:56:25Z</time>
      </trkpt>
      <trkpt lat="45.1544" lon="5.57785">
        <ele>1627.24</ele>
        <time>2019-08-27T10:56:39Z</time>
      </trkpt>
      <trkpt lat="45.15407" lon="5.57793">
        <ele>1626.41</ele>
        <time>2019-08-27T10:56:50Z</time>
      </trkpt>
      <trkpt lat="45.15381" lon="5.5779">
        <ele>1623.15</ele>
        <time>2019-08-27T10:57:00Z</time>
      </trkpt>
      <trkpt lat="45.15375" lon="5.57789">
        <ele>1622.45</ele>
        <time>2019-08-27T10:57:02Z</time>
      </trkpt>
      <trkpt lat="45.15356" lon="5.57782">
        <ele>1620.53</ele>
        <time>2019-08-27T10:57:06Z</time>
      </trkpt>
      <trkpt lat="45.15342" lon="5.57777">
        <ele>1619.16</ele>
        <time>2019-08-27T10:57:09Z</time>
      </trkpt>
      <trkpt lat="45.15324" lon="5.57768">
        <ele>1617.58</ele>
        <time>2019-08-27T10:57:13Z</time>
      </trkpt>
      <trkpt lat="45.15288" lon="5.57757">
        <ele>1614.06</ele>
        <time>2019-08-27T10:57:22Z</time>
      </trkpt>
      <trkpt lat="45.15262" lon="5.57752">
        <ele>1610.65</ele>
        <time>2019-08-27T10:57:29Z</time>
      </trkpt>
      <trkpt lat="45.15256" lon="5.5775">
        <ele>1610.15</ele>
        <time>2019-08-27T10:57:30Z</time>
      </trkpt>
      <trkpt lat="45.15231" lon="5.57738">
        <ele>1607.43</ele>
        <time>2019-08-27T10:57:34Z</time>
      </trkpt>
      <trkpt lat="45.15204" lon="5.57729">
        <ele>1605.15</ele>
        <time>2019-08-27T10:57:38Z</time>
      </trkpt>
      <trkpt lat="45.15183" lon="5.5772">
        <ele>1603.16</ele>
        <time>2019-08-27T10:57:42Z</time>
      </trkpt>
      <trkpt lat="45.15136" lon="5.57692">
        <ele>1599.51</ele>
        <time>2019-08-27T10:57:52Z</time>
      </trkpt>
      <trkpt lat="45.15106" lon="5.57679">
        <ele>1596.33</ele>
        <time>2019-08-27T10:57:59Z</time>
      </trkpt>
      <trkpt lat="45.15088" lon="5.57674">
        <ele>1593.14</ele>
        <time>2019-08-27T10:58:07Z</time>
      </trkpt>
      <trkpt lat="45.15088" lon="5.57672">
        <ele>1590.93</ele>
        <time>2019-08-27T10:58:47Z</time>
      </trkpt>
      <trkpt lat="45.15089" lon="5.57672">
        <ele>1590.81</ele>
        <time>2019-08-27T10:59:27Z</time>
      </trkpt>
      <trkpt lat="45.15094" lon="5.57674">
        <ele>1590.96</ele>
        <time>2019-08-27T10:59:42Z</time>
      </trkpt>
      <trkpt lat="45.15095" lon="5.57675">
        <ele>1590.53</ele>
        <time>2019-08-27T11:00:40Z</time>
      </trkpt>
      <trkpt lat="45.15099" lon="5.57676">
        <ele>1590.86</ele>
        <time>2019-08-27T11:01:06Z</time>
      </trkpt>
      <trkpt lat="45.15104" lon="5.5768">
        <ele>1591.24</ele>
        <time>2019-08-27T11:01:21Z</time>
      </trkpt>
      <trkpt lat="45.15105" lon="5.5768">
        <ele>1591.78</ele>
        <time>2019-08-27T11:01:31Z</time>
      </trkpt>
      <trkpt lat="45.15111" lon="5.57693">
        <ele>1592.23</ele>
        <time>2019-08-27T11:01:47Z</time>
      </trkpt>
      <trkpt lat="45.15114" lon="5.57693">
        <ele>1592.21</ele>
        <time>2019-08-27T11:02:09Z</time>
      </trkpt>
      <trkpt lat="45.15117" lon="5.57696">
        <ele>1592.04</ele>
        <time>2019-08-27T11:02:47Z</time>
      </trkpt>
      <trkpt lat="45.15122" lon="5.57698">
        <ele>1593.02</ele>
        <time>2019-08-27T11:02:54Z</time>
      </trkpt>
      <trkpt lat="45.15124" lon="5.57698">
        <ele>1593.28</ele>
        <time>2019-08-27T11:02:56Z</time>
      </trkpt>
      <trkpt lat="45.15133" lon="5.5771">
        <ele>1594.71</ele>
        <time>2019-08-27T11:03:13Z</time>
      </trkpt>
      <trkpt lat="45.15137" lon="5.57712">
        <ele>1595.33</ele>
        <time>2019-08-27T11:03:32Z</time>
      </trkpt>
      <trkpt lat="45.15148" lon="5.5772">
        <ele>1596.11</ele>
        <time>2019-08-27T11:03:45Z</time>
      </trkpt>
      <trkpt lat="45.15155" lon="5.5773">
        <ele>1597.19</ele>
        <time>2019-08-27T11:04:02Z</time>
      </trkpt>
      <trkpt lat="45.15153" lon="5.5773">
        <ele>1596.5</ele>
        <time>2019-08-27T11:05:39Z</time>
      </trkpt>
      <trkpt lat="45.15153" lon="5.5773">
        <ele>1596.08</ele>
        <time>2019-08-27T11:09:15Z</time>
      </trkpt>
      <trkpt lat="45.15153" lon="5.57731">
        <ele>1594.77</ele>
        <time>2019-08-27T11:17:00Z</time>
      </trkpt>
      <trkpt lat="45.15153" lon="5.57731">
        <ele>1594.26</ele>
        <time>2019-08-27T11:20:45Z</time>
      </trkpt>
      <trkpt lat="45.15153" lon="5.57732">
        <ele>1594.09</ele>
        <time>2019-08-27T11:24:33Z</time>
      </trkpt>
      <trkpt lat="45.15153" lon="5.5773">
        <ele>1594.03</ele>
        <time>2019-08-27T11:27:11Z</time>
      </trkpt>
      <trkpt lat="45.15151" lon="5.57731">
        <ele>1593.8</ele>
        <time>2019-08-27T11:29:20Z</time>
      </trkpt>
      <trkpt lat="45.15153" lon="5.57731">
        <ele>1593.55</ele>
        <time>2019-08-27T11:32:01Z</time>
      </trkpt>
      <trkpt lat="45.15151" lon="5.57732">
        <ele>1593.87</ele>
        <time>2019-08-27T11:35:23Z</time>
      </trkpt>
      <trkpt lat="45.15151" lon="5.57728">
        <ele>1594.19</ele>
        <time>2019-08-27T11:35:42Z</time>
      </trkpt>
      <trkpt lat="45.1515" lon="5.57724">
        <ele>1594.48</ele>
        <time>2019-08-27T11:35:48Z</time>
      </trkpt>
      <trkpt lat="45.15147" lon="5.57718">
        <ele>1594.15</ele>
        <time>2019-08-27T11:36:04Z</time>
      </trkpt>
      <trkpt lat="45.15148" lon="5.57714">
        <ele>1593.89</ele>
        <time>2019-08-27T11:36:28Z</time>
      </trkpt>
      <trkpt lat="45.15147" lon="5.57703">
        <ele>1593.95</ele>
        <time>2019-08-27T11:36:45Z</time>
      </trkpt>
      <trkpt lat="45.15147" lon="5.57697">
        <ele>1593.68</ele>
        <time>2019-08-27T11:37:05Z</time>
      </trkpt>
      <trkpt lat="45.15147" lon="5.57695">
        <ele>1593.57</ele>
        <time>2019-08-27T11:37:32Z</time>
      </trkpt>
      <trkpt lat="45.15146" lon="5.57692">
        <ele>1593.29</ele>
        <time>2019-08-27T11:37:51Z</time>
      </trkpt>
      <trkpt lat="45.15144" lon="5.57693">
        <ele>1593.17</ele>
        <time>2019-08-27T11:38:09Z</time>
      </trkpt>
      <trkpt lat="45.15143" lon="5.57691">
        <ele>1593.1</ele>
        <time>2019-08-27T11:38:18Z</time>
      </trkpt>
      <trkpt lat="45.15121" lon="5.5768">
        <ele>1592.03</ele>
        <time>2019-08-27T11:38:30Z</time>
      </trkpt>
      <trkpt lat="45.15087" lon="5.57673">
        <ele>1588.88</ele>
        <time>2019-08-27T11:38:43Z</time>
      </trkpt>
      <trkpt lat="45.1506" lon="5.57681">
        <ele>1585.55</ele>
        <time>2019-08-27T11:38:53Z</time>
      </trkpt>
      <trkpt lat="45.15055" lon="5.57684">
        <ele>1582.26</ele>
        <time>2019-08-27T11:39:03Z</time>
      </trkpt>
      <trkpt lat="45.15051" lon="5.57686">
        <ele>1581.58</ele>
        <time>2019-08-27T11:39:09Z</time>
      </trkpt>
      <trkpt lat="45.15025" lon="5.5768">
        <ele>1579.37</ele>
        <time>2019-08-27T11:39:19Z</time>
      </trkpt>
      <trkpt lat="45.15007" lon="5.57687">
        <ele>1577.51</ele>
        <time>2019-08-27T11:39:24Z</time>
      </trkpt>
      <trkpt lat="45.14964" lon="5.57676">
        <ele>1574.72</ele>
        <time>2019-08-27T11:39:33Z</time>
      </trkpt>
      <trkpt lat="45.14929" lon="5.57658">
        <ele>1573.49</ele>
        <time>2019-08-27T11:39:43Z</time>
      </trkpt>
      <trkpt lat="45.1491" lon="5.57653">
        <ele>1573.12</ele>
        <time>2019-08-27T11:39:48Z</time>
      </trkpt>
      <trkpt lat="45.14902" lon="5.5765">
        <ele>1572.99</ele>
        <time>2019-08-27T11:39:50Z</time>
      </trkpt>
      <trkpt lat="45.14888" lon="5.57645">
        <ele>1572.08</ele>
        <time>2019-08-27T11:39:53Z</time>
      </trkpt>
      <trkpt lat="45.14874" lon="5.57636">
        <ele>1571.06</ele>
        <time>2019-08-27T11:39:56Z</time>
      </trkpt>
      <trkpt lat="45.14846" lon="5.57602">
        <ele>1568.2</ele>
        <time>2019-08-27T11:40:05Z</time>
      </trkpt>
      <trkpt lat="45.14821" lon="5.57589">
        <ele>1564.59</ele>
        <time>2019-08-27T11:40:13Z</time>
      </trkpt>
      <trkpt lat="45.14806" lon="5.57588">
        <ele>1563.22</ele>
        <time>2019-08-27T11:40:16Z</time>
      </trkpt>
      <trkpt lat="45.14778" lon="5.57579">
        <ele>1559.64</ele>
        <time>2019-08-27T11:40:21Z</time>
      </trkpt>
      <trkpt lat="45.14739" lon="5.5757">
        <ele>1556.04</ele>
        <time>2019-08-27T11:40:29Z</time>
      </trkpt>
      <trkpt lat="45.14695" lon="5.5757">
        <ele>1552.67</ele>
        <time>2019-08-27T11:40:37Z</time>
      </trkpt>
      <trkpt lat="45.14662" lon="5.57562">
        <ele>1549.66</ele>
        <time>2019-08-27T11:40:46Z</time>
      </trkpt>
      <trkpt lat="45.14644" lon="5.57564">
        <ele>1547.63</ele>
        <time>2019-08-27T11:40:51Z</time>
      </trkpt>
      <trkpt lat="45.14629" lon="5.57566">
        <ele>1545.64</ele>
        <time>2019-08-27T11:40:54Z</time>
      </trkpt>
      <trkpt lat="45.14602" lon="5.57563">
        <ele>1541.97</ele>
        <time>2019-08-27T11:41:00Z</time>
      </trkpt>
      <trkpt lat="45.14591" lon="5.57561">
        <ele>1540.71</ele>
        <time>2019-08-27T11:41:02Z</time>
      </trkpt>
      <trkpt lat="45.1458" lon="5.57553">
        <ele>1539.36</ele>
        <time>2019-08-27T11:41:04Z</time>
      </trkpt>
      <trkpt lat="45.14572" lon="5.57542">
        <ele>1537.69</ele>
        <time>2019-08-27T11:41:06Z</time>
      </trkpt>
      <trkpt lat="45.14563" lon="5.57533">
        <ele>1536.69</ele>
        <time>2019-08-27T11:41:08Z</time>
      </trkpt>
      <trkpt lat="45.14545" lon="5.57528">
        <ele>1533.8</ele>
        <time>2019-08-27T11:41:13Z</time>
      </trkpt>
      <trkpt lat="45.14529" lon="5.57524">
        <ele>1531.33</ele>
        <time>2019-08-27T11:41:18Z</time>
      </trkpt>
      <trkpt lat="45.1449" lon="5.57521">
        <ele>1528.21</ele>
        <time>2019-08-27T11:41:27Z</time>
      </trkpt>
      <trkpt lat="45.1445" lon="5.57527">
        <ele>1525.05</ele>
        <time>2019-08-27T11:41:39Z</time>
      </trkpt>
      <trkpt lat="45.14437" lon="5.57531">
        <ele>1523.97</ele>
        <time>2019-08-27T11:41:42Z</time>
      </trkpt>
      <trkpt lat="45.14399" lon="5.57546">
        <ele>1520.52</ele>
        <time>2019-08-27T11:41:50Z</time>
      </trkpt>
      <trkpt lat="45.14377" lon="5.57549">
        <ele>1518.95</ele>
        <time>2019-08-27T11:41:55Z</time>
      </trkpt>
      <trkpt lat="45.14349" lon="5.57556">
        <ele>1518.17</ele>
        <time>2019-08-27T11:42:05Z</time>
      </trkpt>
      <trkpt lat="45.14347" lon="5.57558">
        <ele>1518.2</ele>
        <time>2019-08-27T11:42:06Z</time>
      </trkpt>
      <trkpt lat="45.1431" lon="5.57555">
        <ele>1518.02</ele>
        <time>2019-08-27T11:42:16Z</time>
      </trkpt>
      <trkpt lat="45.14281" lon="5.57551">
        <ele>1516.31</ele>
        <time>2019-08-27T11:42:26Z</time>
      </trkpt>
      <trkpt lat="45.14273" lon="5.57549">
        <ele>1515.1</ele>
        <time>2019-08-27T11:42:50Z</time>
      </trkpt>
      <trkpt lat="45.14274" lon="5.57547">
        <ele>1514.87</ele>
        <time>2019-08-27T11:43:26Z</time>
      </trkpt>
      <trkpt lat="45.14274" lon="5.57551">
        <ele>1514.67</ele>
        <time>2019-08-27T11:44:08Z</time>
      </trkpt>
      <trkpt lat="45.1427" lon="5.57549">
        <ele>1514.56</ele>
        <time>2019-08-27T11:44:36Z</time>
      </trkpt>
      <trkpt lat="45.14269" lon="5.57548">
        <ele>1514.55</ele>
        <time>2019-08-27T11:44:37Z</time>
      </trkpt>
      <trkpt lat="45.1424" lon="5.57531">
        <ele>1512.18</ele>
        <time>2019-08-27T11:44:51Z</time>
      </trkpt>
      <trkpt lat="45.14218" lon="5.57514">
        <ele>1509.36</ele>
        <time>2019-08-27T11:45:02Z</time>
      </trkpt>
      <trkpt lat="45.142" lon="5.57502">
        <ele>1507.03</ele>
        <time>2019-08-27T11:45:12Z</time>
      </trkpt>
      <trkpt lat="45.14175" lon="5.57491">
        <ele>1503.86</ele>
        <time>2019-08-27T11:45:22Z</time>
      </trkpt>
      <trkpt lat="45.14151" lon="5.57489">
        <ele>1500.71</ele>
        <time>2019-08-27T11:45:30Z</time>
      </trkpt>
      <trkpt lat="45.14124" lon="5.5748">
        <ele>1499.27</ele>
        <time>2019-08-27T11:45:40Z</time>
      </trkpt>
      <trkpt lat="45.14111" lon="5.57476">
        <ele>1499.83</ele>
        <time>2019-08-27T11:45:56Z</time>
      </trkpt>
      <trkpt lat="45.14097" lon="5.5747">
        <ele>1499.65</ele>
        <time>2019-08-27T11:46:04Z</time>
      </trkpt>
      <trkpt lat="45.14083" lon="5.57462">
        <ele>1498.9</ele>
        <time>2019-08-27T11:46:09Z</time>
      </trkpt>
      <trkpt lat="45.14059" lon="5.57459">
        <ele>1495.65</ele>
        <time>2019-08-27T11:46:20Z</time>
      </trkpt>
      <trkpt lat="45.14054" lon="5.5746">
        <ele>1495.07</ele>
        <time>2019-08-27T11:46:22Z</time>
      </trkpt>
      <trkpt lat="45.14041" lon="5.57449">
        <ele>1493.14</ele>
        <time>2019-08-27T11:46:28Z</time>
      </trkpt>
      <trkpt lat="45.14031" lon="5.57439">
        <ele>1491.83</ele>
        <time>2019-08-27T11:46:33Z</time>
      </trkpt>
      <trkpt lat="45.14018" lon="5.57435">
        <ele>1490.02</ele>
        <time>2019-08-27T11:46:40Z</time>
      </trkpt>
      <trkpt lat="45.13997" lon="5.57429">
        <ele>1487.55</ele>
        <time>2019-08-27T11:46:49Z</time>
      </trkpt>
      <trkpt lat="45.13982" lon="5.57429">
        <ele>1485.56</ele>
        <time>2019-08-27T11:46:55Z</time>
      </trkpt>
      <trkpt lat="45.13964" lon="5.57429">
        <ele>1481.67</ele>
        <time>2019-08-27T11:47:05Z</time>
      </trkpt>
      <trkpt lat="45.13951" lon="5.5743">
        <ele>1479.18</ele>
        <time>2019-08-27T11:47:20Z</time>
      </trkpt>
      <trkpt lat="45.13937" lon="5.57426">
        <ele>1476.08</ele>
        <time>2019-08-27T11:47:35Z</time>
      </trkpt>
      <trkpt lat="45.13925" lon="5.5743">
        <ele>1472.98</ele>
        <time>2019-08-27T11:47:49Z</time>
      </trkpt>
      <trkpt lat="45.13911" lon="5.57425">
        <ele>1469.89</ele>
        <time>2019-08-27T11:48:03Z</time>
      </trkpt>
      <trkpt lat="45.139" lon="5.57423">
        <ele>1466.66</ele>
        <time>2019-08-27T11:48:20Z</time>
      </trkpt>
      <trkpt lat="45.13893" lon="5.57422">
        <ele>1465.34</ele>
        <time>2019-08-27T11:48:28Z</time>
      </trkpt>
      <trkpt lat="45.13883" lon="5.57417">
        <ele>1463.99</ele>
        <time>2019-08-27T11:48:34Z</time>
      </trkpt>
      <trkpt lat="45.13873" lon="5.5741">
        <ele>1463.16</ele>
        <time>2019-08-27T11:48:38Z</time>
      </trkpt>
      <trkpt lat="45.13867" lon="5.57405">
        <ele>1462.49</ele>
        <time>2019-08-27T11:48:41Z</time>
      </trkpt>
      <trkpt lat="45.13858" lon="5.57405">
        <ele>1461.16</ele>
        <time>2019-08-27T11:48:45Z</time>
      </trkpt>
      <trkpt lat="45.13838" lon="5.57404">
        <ele>1457.63</ele>
        <time>2019-08-27T11:48:54Z</time>
      </trkpt>
      <trkpt lat="45.1383" lon="5.57404">
        <ele>1455.81</ele>
        <time>2019-08-27T11:48:58Z</time>
      </trkpt>
      <trkpt lat="45.13817" lon="5.57408">
        <ele>1451.72</ele>
        <time>2019-08-27T11:49:05Z</time>
      </trkpt>
      <trkpt lat="45.138" lon="5.57417">
        <ele>1448.68</ele>
        <time>2019-08-27T11:49:11Z</time>
      </trkpt>
      <trkpt lat="45.13788" lon="5.57415">
        <ele>1447.07</ele>
        <time>2019-08-27T11:49:14Z</time>
      </trkpt>
      <trkpt lat="45.13762" lon="5.57415">
        <ele>1443.43</ele>
        <time>2019-08-27T11:49:22Z</time>
      </trkpt>
      <trkpt lat="45.13758" lon="5.57411">
        <ele>1442.3</ele>
        <time>2019-08-27T11:49:25Z</time>
      </trkpt>
      <trkpt lat="45.13749" lon="5.57414">
        <ele>1439.62</ele>
        <time>2019-08-27T11:49:45Z</time>
      </trkpt>
      <trkpt lat="45.13744" lon="5.57416">
        <ele>1439.52</ele>
        <time>2019-08-27T11:50:16Z</time>
      </trkpt>
      <trkpt lat="45.13746" lon="5.57414">
        <ele>1439.33</ele>
        <time>2019-08-27T11:50:38Z</time>
      </trkpt>
      <trkpt lat="45.13746" lon="5.57412">
        <ele>1439.22</ele>
        <time>2019-08-27T11:51:26Z</time>
      </trkpt>
      <trkpt lat="45.13756" lon="5.57418">
        <ele>1439.24</ele>
        <time>2019-08-27T11:52:07Z</time>
      </trkpt>
      <trkpt lat="45.13753" lon="5.57409">
        <ele>1439.16</ele>
        <time>2019-08-27T11:52:53Z</time>
      </trkpt>
      <trkpt lat="45.13747" lon="5.57407">
        <ele>1438.93</ele>
        <time>2019-08-27T11:53:18Z</time>
      </trkpt>
      <trkpt lat="45.13745" lon="5.57406">
        <ele>1438.59</ele>
        <time>2019-08-27T11:53:35Z</time>
      </trkpt>
      <trkpt lat="45.13752" lon="5.57384">
        <ele>1436.85</ele>
        <time>2019-08-27T11:53:45Z</time>
      </trkpt>
      <trkpt lat="45.13736" lon="5.57358">
        <ele>1434.31</ele>
        <time>2019-08-27T11:53:53Z</time>
      </trkpt>
      <trkpt lat="45.13711" lon="5.57331">
        <ele>1430.53</ele>
        <time>2019-08-27T11:54:01Z</time>
      </trkpt>
      <trkpt lat="45.13705" lon="5.57324">
        <ele>1429.58</ele>
        <time>2019-08-27T11:54:03Z</time>
      </trkpt>
      <trkpt lat="45.13695" lon="5.57305">
        <ele>1426.36</ele>
        <time>2019-08-27T11:54:08Z</time>
      </trkpt>
      <trkpt lat="45.13681" lon="5.57285">
        <ele>1422.84</ele>
        <time>2019-08-27T11:54:14Z</time>
      </trkpt>
      <trkpt lat="45.13674" lon="5.57274">
        <ele>1420.21</ele>
        <time>2019-08-27T11:54:19Z</time>
      </trkpt>
      <trkpt lat="45.13663" lon="5.57259">
        <ele>1416.38</ele>
        <time>2019-08-27T11:54:26Z</time>
      </trkpt>
      <trkpt lat="45.13657" lon="5.57252">
        <ele>1414.63</ele>
        <time>2019-08-27T11:54:29Z</time>
      </trkpt>
      <trkpt lat="45.13638" lon="5.5723">
        <ele>1410.72</ele>
        <time>2019-08-27T11:54:36Z</time>
      </trkpt>
      <trkpt lat="45.1362" lon="5.57212">
        <ele>1406.97</ele>
        <time>2019-08-27T11:54:43Z</time>
      </trkpt>
      <trkpt lat="45.13609" lon="5.57203">
        <ele>1404.51</ele>
        <time>2019-08-27T11:54:48Z</time>
      </trkpt>
      <trkpt lat="45.13587" lon="5.57182">
        <ele>1400.35</ele>
        <time>2019-08-27T11:54:56Z</time>
      </trkpt>
      <trkpt lat="45.13567" lon="5.5716">
        <ele>1396.91</ele>
        <time>2019-08-27T11:55:04Z</time>
      </trkpt>
      <trkpt lat="45.13549" lon="5.5715">
        <ele>1393.54</ele>
        <time>2019-08-27T11:55:12Z</time>
      </trkpt>
      <trkpt lat="45.1354" lon="5.57143">
        <ele>1392.23</ele>
        <time>2019-08-27T11:55:15Z</time>
      </trkpt>
      <trkpt lat="45.13523" lon="5.57124">
        <ele>1388.78</ele>
        <time>2019-08-27T11:55:22Z</time>
      </trkpt>
      <trkpt lat="45.13515" lon="5.57117">
        <ele>1386.29</ele>
        <time>2019-08-27T11:55:29Z</time>
      </trkpt>
      <trkpt lat="45.1351" lon="5.57114">
        <ele>1384.77</ele>
        <time>2019-08-27T11:55:34Z</time>
      </trkpt>
      <trkpt lat="45.13498" lon="5.57101">
        <ele>1382.92</ele>
        <time>2019-08-27T11:55:41Z</time>
      </trkpt>
      <trkpt lat="45.13494" lon="5.57097">
        <ele>1382.2</ele>
        <time>2019-08-27T11:55:43Z</time>
      </trkpt>
      <trkpt lat="45.13485" lon="5.57087">
        <ele>1380.14</ele>
        <time>2019-08-27T11:55:48Z</time>
      </trkpt>
      <trkpt lat="45.1348" lon="5.57084">
        <ele>1379.44</ele>
        <time>2019-08-27T11:55:50Z</time>
      </trkpt>
      <trkpt lat="45.13466" lon="5.57071">
        <ele>1376.18</ele>
        <time>2019-08-27T11:56:00Z</time>
      </trkpt>
      <trkpt lat="45.13447" lon="5.57062">
        <ele>1372.77</ele>
        <time>2019-08-27T11:56:09Z</time>
      </trkpt>
      <trkpt lat="45.13423" lon="5.57044">
        <ele>1369.52</ele>
        <time>2019-08-27T11:56:18Z</time>
      </trkpt>
      <trkpt lat="45.13413" lon="5.57025">
        <ele>1366.32</ele>
        <time>2019-08-27T11:56:26Z</time>
      </trkpt>
      <trkpt lat="45.13402" lon="5.57005">
        <ele>1363.1</ele>
        <time>2019-08-27T11:56:33Z</time>
      </trkpt>
      <trkpt lat="45.134" lon="5.57001">
        <ele>1363.1</ele>
        <time>2019-08-27T11:56:34Z</time>
      </trkpt>
      <trkpt lat="45.13393" lon="5.56993">
        <ele>1361.05</ele>
        <time>2019-08-27T11:56:38Z</time>
      </trkpt>
      <trkpt lat="45.13376" lon="5.56972">
        <ele>1357.6</ele>
        <time>2019-08-27T11:56:48Z</time>
      </trkpt>
      <trkpt lat="45.13374" lon="5.56969">
        <ele>1357.23</ele>
        <time>2019-08-27T11:56:49Z</time>
      </trkpt>
      <trkpt lat="45.13369" lon="5.56966">
        <ele>1356.14</ele>
        <time>2019-08-27T11:56:52Z</time>
      </trkpt>
      <trkpt lat="45.13366" lon="5.56962">
        <ele>1355.06</ele>
        <time>2019-08-27T11:56:55Z</time>
      </trkpt>
      <trkpt lat="45.13358" lon="5.56953">
        <ele>1352.74</ele>
        <time>2019-08-27T11:57:00Z</time>
      </trkpt>
      <trkpt lat="45.13354" lon="5.56946">
        <ele>1351.07</ele>
        <time>2019-08-27T11:57:04Z</time>
      </trkpt>
      <trkpt lat="45.13345" lon="5.56935">
        <ele>1348.94</ele>
        <time>2019-08-27T11:57:10Z</time>
      </trkpt>
      <trkpt lat="45.13339" lon="5.56928">
        <ele>1347.22</ele>
        <time>2019-08-27T11:57:15Z</time>
      </trkpt>
      <trkpt lat="45.13333" lon="5.56917">
        <ele>1345.42</ele>
        <time>2019-08-27T11:57:20Z</time>
      </trkpt>
      <trkpt lat="45.13328" lon="5.56908">
        <ele>1341.92</ele>
        <time>2019-08-27T11:57:33Z</time>
      </trkpt>
      <trkpt lat="45.13323" lon="5.56901">
        <ele>1341.55</ele>
        <time>2019-08-27T11:58:03Z</time>
      </trkpt>
      <trkpt lat="45.13323" lon="5.56901">
        <ele>1341.52</ele>
        <time>2019-08-27T11:58:33Z</time>
      </trkpt>
      <trkpt lat="45.13322" lon="5.56888">
        <ele>1339.42</ele>
        <time>2019-08-27T11:58:42Z</time>
      </trkpt>
      <trkpt lat="45.13318" lon="5.56866">
        <ele>1335.75</ele>
        <time>2019-08-27T11:58:51Z</time>
      </trkpt>
      <trkpt lat="45.13318" lon="5.56842">
        <ele>1332.61</ele>
        <time>2019-08-27T11:58:59Z</time>
      </trkpt>
      <trkpt lat="45.13314" lon="5.56828">
        <ele>1329.52</ele>
        <time>2019-08-27T11:59:08Z</time>
      </trkpt>
      <trkpt lat="45.13306" lon="5.56819">
        <ele>1328.72</ele>
        <time>2019-08-27T11:59:39Z</time>
      </trkpt>
      <trkpt lat="45.13306" lon="5.56813">
        <ele>1328.56</ele>
        <time>2019-08-27T12:00:12Z</time>
      </trkpt>
      <trkpt lat="45.13305" lon="5.5681">
        <ele>1328.73</ele>
        <time>2019-08-27T12:00:45Z</time>
      </trkpt>
      <trkpt lat="45.13306" lon="5.56806">
        <ele>1328.48</ele>
        <time>2019-08-27T12:01:23Z</time>
      </trkpt>
      <trkpt lat="45.13308" lon="5.56791">
        <ele>1327.47</ele>
        <time>2019-08-27T12:01:49Z</time>
      </trkpt>
      <trkpt lat="45.13299" lon="5.56777">
        <ele>1325.94</ele>
        <time>2019-08-27T12:01:53Z</time>
      </trkpt>
      <trkpt lat="45.13274" lon="5.56743">
        <ele>1321.72</ele>
        <time>2019-08-27T12:02:01Z</time>
      </trkpt>
      <trkpt lat="45.13258" lon="5.56715">
        <ele>1318.28</ele>
        <time>2019-08-27T12:02:07Z</time>
      </trkpt>
      <trkpt lat="45.13255" lon="5.56711">
        <ele>1317.76</ele>
        <time>2019-08-27T12:02:08Z</time>
      </trkpt>
      <trkpt lat="45.1324" lon="5.56694">
        <ele>1315.85</ele>
        <time>2019-08-27T12:02:12Z</time>
      </trkpt>
      <trkpt lat="45.13209" lon="5.56679">
        <ele>1312.11</ele>
        <time>2019-08-27T12:02:20Z</time>
      </trkpt>
      <trkpt lat="45.13204" lon="5.56678">
        <ele>1311.72</ele>
        <time>2019-08-27T12:02:21Z</time>
      </trkpt>
      <trkpt lat="45.13187" lon="5.56674">
        <ele>1310.5</ele>
        <time>2019-08-27T12:02:24Z</time>
      </trkpt>
      <trkpt lat="45.13164" lon="5.56662">
        <ele>1308.92</ele>
        <time>2019-08-27T12:02:28Z</time>
      </trkpt>
      <trkpt lat="45.13133" lon="5.56658">
        <ele>1306.88</ele>
        <time>2019-08-27T12:02:35Z</time>
      </trkpt>
      <trkpt lat="45.13117" lon="5.56657">
        <ele>1305.69</ele>
        <time>2019-08-27T12:02:39Z</time>
      </trkpt>
      <trkpt lat="45.1309" lon="5.56631">
        <ele>1304.49</ele>
        <time>2019-08-27T12:02:48Z</time>
      </trkpt>
      <trkpt lat="45.13059" lon="5.56606">
        <ele>1306.19</ele>
        <time>2019-08-27T12:03:00Z</time>
      </trkpt>
      <trkpt lat="45.13051" lon="5.56598">
        <ele>1305.96</ele>
        <time>2019-08-27T12:03:10Z</time>
      </trkpt>
      <trkpt lat="45.13047" lon="5.56596">
        <ele>1305.69</ele>
        <time>2019-08-27T12:03:37Z</time>
      </trkpt>
      <trkpt lat="45.13042" lon="5.56587">
        <ele>1305.6</ele>
        <time>2019-08-27T12:03:57Z</time>
      </trkpt>
      <trkpt lat="45.13042" lon="5.56584">
        <ele>1305.53</ele>
        <time>2019-08-27T12:03:58Z</time>
      </trkpt>
      <trkpt lat="45.1304" lon="5.56548">
        <ele>1302.19</ele>
        <time>2019-08-27T12:04:07Z</time>
      </trkpt>
      <trkpt lat="45.13039" lon="5.56541">
        <ele>1301.77</ele>
        <time>2019-08-27T12:04:08Z</time>
      </trkpt>
      <trkpt lat="45.13038" lon="5.56534">
        <ele>1300.77</ele>
        <time>2019-08-27T12:04:09Z</time>
      </trkpt>
      <trkpt lat="45.13037" lon="5.56529">
        <ele>1300.77</ele>
        <time>2019-08-27T12:04:10Z</time>
      </trkpt>
      <trkpt lat="45.13034" lon="5.56523">
        <ele>1299.57</ele>
        <time>2019-08-27T12:04:11Z</time>
      </trkpt>
      <trkpt lat="45.13032" lon="5.56517">
        <ele>1298.96</ele>
        <time>2019-08-27T12:04:12Z</time>
      </trkpt>
      <trkpt lat="45.1303" lon="5.5651">
        <ele>1298.28</ele>
        <time>2019-08-27T12:04:13Z</time>
      </trkpt>
      <trkpt lat="45.13028" lon="5.56503">
        <ele>1297.51</ele>
        <time>2019-08-27T12:04:14Z</time>
      </trkpt>
      <trkpt lat="45.13019" lon="5.56482">
        <ele>1294.4</ele>
        <time>2019-08-27T12:04:18Z</time>
      </trkpt>
      <trkpt lat="45.13013" lon="5.56473">
        <ele>1292.13</ele>
        <time>2019-08-27T12:04:21Z</time>
      </trkpt>
      <trkpt lat="45.13012" lon="5.56453">
        <ele>1288.87</ele>
        <time>2019-08-27T12:04:26Z</time>
      </trkpt>
      <trkpt lat="45.13017" lon="5.56433">
        <ele>1285.8</ele>
        <time>2019-08-27T12:04:31Z</time>
      </trkpt>
      <trkpt lat="45.13017" lon="5.56415">
        <ele>1282.63</ele>
        <time>2019-08-27T12:04:35Z</time>
      </trkpt>
      <trkpt lat="45.13017" lon="5.56382">
        <ele>1279.26</ele>
        <time>2019-08-27T12:04:41Z</time>
      </trkpt>
      <trkpt lat="45.13017" lon="5.56359">
        <ele>1276.07</ele>
        <time>2019-08-27T12:04:46Z</time>
      </trkpt>
      <trkpt lat="45.13015" lon="5.56345">
        <ele>1273.89</ele>
        <time>2019-08-27T12:04:50Z</time>
      </trkpt>
      <trkpt lat="45.13016" lon="5.56341">
        <ele>1273.41</ele>
        <time>2019-08-27T12:04:51Z</time>
      </trkpt>
      <trkpt lat="45.13017" lon="5.56336">
        <ele>1272.97</ele>
        <time>2019-08-27T12:04:52Z</time>
      </trkpt>
      <trkpt lat="45.13018" lon="5.5631">
        <ele>1269.47</ele>
        <time>2019-08-27T12:04:59Z</time>
      </trkpt>
      <trkpt lat="45.1302" lon="5.56284">
        <ele>1266.43</ele>
        <time>2019-08-27T12:05:04Z</time>
      </trkpt>
      <trkpt lat="45.13025" lon="5.56271">
        <ele>1263.25</ele>
        <time>2019-08-27T12:05:09Z</time>
      </trkpt>
      <trkpt lat="45.13026" lon="5.56268">
        <ele>1262.67</ele>
        <time>2019-08-27T12:05:10Z</time>
      </trkpt>
      <trkpt lat="45.13026" lon="5.56265">
        <ele>1262.15</ele>
        <time>2019-08-27T12:05:11Z</time>
      </trkpt>
      <trkpt lat="45.13026" lon="5.56262">
        <ele>1261.66</ele>
        <time>2019-08-27T12:05:12Z</time>
      </trkpt>
      <trkpt lat="45.13027" lon="5.56259">
        <ele>1261.17</ele>
        <time>2019-08-27T12:05:13Z</time>
      </trkpt>
      <trkpt lat="45.13028" lon="5.56256">
        <ele>1260.65</ele>
        <time>2019-08-27T12:05:14Z</time>
      </trkpt>
      <trkpt lat="45.13028" lon="5.56241">
        <ele>1257.58</ele>
        <time>2019-08-27T12:05:25Z</time>
      </trkpt>
      <trkpt lat="45.13032" lon="5.56235">
        <ele>1256.8</ele>
        <time>2019-08-27T12:05:54Z</time>
      </trkpt>
      <trkpt lat="45.13034" lon="5.56224">
        <ele>1256.6</ele>
        <time>2019-08-27T12:06:14Z</time>
      </trkpt>
      <trkpt lat="45.13035" lon="5.56222">
        <ele>1256.58</ele>
        <time>2019-08-27T12:06:15Z</time>
      </trkpt>
      <trkpt lat="45.13036" lon="5.56193">
        <ele>1254.4</ele>
        <time>2019-08-27T12:06:24Z</time>
      </trkpt>
      <trkpt lat="45.13036" lon="5.5619">
        <ele>1254.05</ele>
        <time>2019-08-27T12:06:25Z</time>
      </trkpt>
      <trkpt lat="45.13036" lon="5.56187">
        <ele>1253.65</ele>
        <time>2019-08-27T12:06:26Z</time>
      </trkpt>
      <trkpt lat="45.13035" lon="5.56183">
        <ele>1253.2</ele>
        <time>2019-08-27T12:06:27Z</time>
      </trkpt>
      <trkpt lat="45.13034" lon="5.56178">
        <ele>1252.72</ele>
        <time>2019-08-27T12:06:28Z</time>
      </trkpt>
      <trkpt lat="45.13028" lon="5.5615">
        <ele>1249.68</ele>
        <time>2019-08-27T12:06:34Z</time>
      </trkpt>
      <trkpt lat="45.13029" lon="5.56145">
        <ele>1249.2</ele>
        <time>2019-08-27T12:06:35Z</time>
      </trkpt>
      <trkpt lat="45.1303" lon="5.56139">
        <ele>1248.73</ele>
        <time>2019-08-27T12:06:36Z</time>
      </trkpt>
      <trkpt lat="45.13032" lon="5.56134">
        <ele>1248.26</ele>
        <time>2019-08-27T12:06:37Z</time>
      </trkpt>
      <trkpt lat="45.13034" lon="5.56127">
        <ele>1247.71</ele>
        <time>2019-08-27T12:06:38Z</time>
      </trkpt>
      <trkpt lat="45.13036" lon="5.56121">
        <ele>1247.14</ele>
        <time>2019-08-27T12:06:39Z</time>
      </trkpt>
      <trkpt lat="45.13038" lon="5.56116">
        <ele>1246.56</ele>
        <time>2019-08-27T12:06:40Z</time>
      </trkpt>
      <trkpt lat="45.1304" lon="5.5611">
        <ele>1246.01</ele>
        <time>2019-08-27T12:06:41Z</time>
      </trkpt>
      <trkpt lat="45.13041" lon="5.56104">
        <ele>1245.49</ele>
        <time>2019-08-27T12:06:42Z</time>
      </trkpt>
      <trkpt lat="45.13042" lon="5.56098">
        <ele>1244.49</ele>
        <time>2019-08-27T12:06:43Z</time>
      </trkpt>
      <trkpt lat="45.13047" lon="5.56063">
        <ele>1241.35</ele>
        <time>2019-08-27T12:06:49Z</time>
      </trkpt>
      <trkpt lat="45.13047" lon="5.56055">
        <ele>1240.93</ele>
        <time>2019-08-27T12:06:50Z</time>
      </trkpt>
      <trkpt lat="45.13048" lon="5.56042">
        <ele>1240.06</ele>
        <time>2019-08-27T12:06:52Z</time>
      </trkpt>
      <trkpt lat="45.13049" lon="5.56038">
        <ele>1239.61</ele>
        <time>2019-08-27T12:06:53Z</time>
      </trkpt>
      <trkpt lat="45.13049" lon="5.56033">
        <ele>1239.19</ele>
        <time>2019-08-27T12:06:54Z</time>
      </trkpt>
      <trkpt lat="45.13048" lon="5.56028">
        <ele>1238.74</ele>
        <time>2019-08-27T12:06:55Z</time>
      </trkpt>
      <trkpt lat="45.13047" lon="5.56023">
        <ele>1238.31</ele>
        <time>2019-08-27T12:06:56Z</time>
      </trkpt>
      <trkpt lat="45.13042" lon="5.55999">
        <ele>1235.31</ele>
        <time>2019-08-27T12:07:07Z</time>
      </trkpt>
      <trkpt lat="45.1304" lon="5.55996">
        <ele>1234.53</ele>
        <time>2019-08-27T12:07:47Z</time>
      </trkpt>
      <trkpt lat="45.13041" lon="5.55994">
        <ele>1234.32</ele>
        <time>2019-08-27T12:08:10Z</time>
      </trkpt>
      <trkpt lat="45.13041" lon="5.55992">
        <ele>1234.16</ele>
        <time>2019-08-27T12:08:15Z</time>
      </trkpt>
      <trkpt lat="45.1304" lon="5.5599">
        <ele>1234.14</ele>
        <time>2019-08-27T12:08:16Z</time>
      </trkpt>
      <trkpt lat="45.1304" lon="5.55988">
        <ele>1234.09</ele>
        <time>2019-08-27T12:08:17Z</time>
      </trkpt>
      <trkpt lat="45.13039" lon="5.55987">
        <ele>1234.06</ele>
        <time>2019-08-27T12:08:18Z</time>
      </trkpt>
      <trkpt lat="45.13038" lon="5.55986">
        <ele>1234.06</ele>
        <time>2019-08-27T12:08:19Z</time>
      </trkpt>
      <trkpt lat="45.13037" lon="5.55984">
        <ele>1234.07</ele>
        <time>2019-08-27T12:08:20Z</time>
      </trkpt>
      <trkpt lat="45.13007" lon="5.55967">
        <ele>1233.88</ele>
        <time>2019-08-27T12:08:34Z</time>
      </trkpt>
      <trkpt lat="45.12993" lon="5.55933">
        <ele>1233.93</ele>
        <time>2019-08-27T12:08:47Z</time>
      </trkpt>
      <trkpt lat="45.12989" lon="5.55931">
        <ele>1234.2</ele>
        <time>2019-08-27T12:09:00Z</time>
      </trkpt>
      <trkpt lat="45.12987" lon="5.55928">
        <ele>1234.39</ele>
        <time>2019-08-27T12:09:17Z</time>
      </trkpt>
      <trkpt lat="45.12987" lon="5.55927">
        <ele>1234.45</ele>
        <time>2019-08-27T12:09:26Z</time>
      </trkpt>
      <trkpt lat="45.12963" lon="5.55908">
        <ele>1234.2</ele>
        <time>2019-08-27T12:09:41Z</time>
      </trkpt>
      <trkpt lat="45.12945" lon="5.55894">
        <ele>1233.84</ele>
        <time>2019-08-27T12:09:48Z</time>
      </trkpt>
      <trkpt lat="45.12933" lon="5.55888">
        <ele>1233.46</ele>
        <time>2019-08-27T12:09:51Z</time>
      </trkpt>
      <trkpt lat="45.12901" lon="5.55887">
        <ele>1232.51</ele>
        <time>2019-08-27T12:10:01Z</time>
      </trkpt>
      <trkpt lat="45.12864" lon="5.55875">
        <ele>1231.75</ele>
        <time>2019-08-27T12:10:12Z</time>
      </trkpt>
      <trkpt lat="45.12837" lon="5.5586">
        <ele>1230.45</ele>
        <time>2019-08-27T12:10:18Z</time>
      </trkpt>
      <trkpt lat="45.12805" lon="5.55843">
        <ele>1229.21</ele>
        <time>2019-08-27T12:10:26Z</time>
      </trkpt>
      <trkpt lat="45.12784" lon="5.5583">
        <ele>1228.44</ele>
        <time>2019-08-27T12:10:30Z</time>
      </trkpt>
      <trkpt lat="45.12774" lon="5.55826">
        <ele>1228.06</ele>
        <time>2019-08-27T12:10:32Z</time>
      </trkpt>
      <trkpt lat="45.12749" lon="5.55814">
        <ele>1227.29</ele>
        <time>2019-08-27T12:10:37Z</time>
      </trkpt>
      <trkpt lat="45.12715" lon="5.55794">
        <ele>1226.57</ele>
        <time>2019-08-27T12:10:45Z</time>
      </trkpt>
      <trkpt lat="45.127" lon="5.55782">
        <ele>1225.99</ele>
        <time>2019-08-27T12:10:48Z</time>
      </trkpt>
      <trkpt lat="45.12678" lon="5.55769">
        <ele>1225.03</ele>
        <time>2019-08-27T12:10:52Z</time>
      </trkpt>
      <trkpt lat="45.12643" lon="5.55778">
        <ele>1224.74</ele>
        <time>2019-08-27T12:11:00Z</time>
      </trkpt>
      <trkpt lat="45.12626" lon="5.55795">
        <ele>1226.09</ele>
        <time>2019-08-27T12:11:09Z</time>
      </trkpt>
      <trkpt lat="45.1262" lon="5.55803">
        <ele>1227.03</ele>
        <time>2019-08-27T12:11:13Z</time>
      </trkpt>
      <trkpt lat="45.1259" lon="5.5582">
        <ele>1228.87</ele>
        <time>2019-08-27T12:11:27Z</time>
      </trkpt>
      <trkpt lat="45.12566" lon="5.55824">
        <ele>1228.71</ele>
        <time>2019-08-27T12:11:37Z</time>
      </trkpt>
      <trkpt lat="45.12535" lon="5.55816">
        <ele>1228.52</ele>
        <time>2019-08-27T12:11:50Z</time>
      </trkpt>
      <trkpt lat="45.12504" lon="5.55793">
        <ele>1227.89</ele>
        <time>2019-08-27T12:12:00Z</time>
      </trkpt>
      <trkpt lat="45.1249" lon="5.5577">
        <ele>1227.17</ele>
        <time>2019-08-27T12:12:08Z</time>
      </trkpt>
      <trkpt lat="45.1247" lon="5.55759">
        <ele>1225.23</ele>
        <time>2019-08-27T12:12:15Z</time>
      </trkpt>
      <trkpt lat="45.12462" lon="5.55751">
        <ele>1223.38</ele>
        <time>2019-08-27T12:12:20Z</time>
      </trkpt>
      <trkpt lat="45.12454" lon="5.5575">
        <ele>1222.44</ele>
        <time>2019-08-27T12:12:23Z</time>
      </trkpt>
      <trkpt lat="45.12442" lon="5.55747">
        <ele>1220.87</ele>
        <time>2019-08-27T12:12:28Z</time>
      </trkpt>
      <trkpt lat="45.12432" lon="5.55742">
        <ele>1219.34</ele>
        <time>2019-08-27T12:12:39Z</time>
      </trkpt>
      <trkpt lat="45.1242" lon="5.55741">
        <ele>1219.16</ele>
        <time>2019-08-27T12:13:06Z</time>
      </trkpt>
      <trkpt lat="45.12413" lon="5.55739">
        <ele>1219.26</ele>
        <time>2019-08-27T12:13:49Z</time>
      </trkpt>
      <trkpt lat="45.1241" lon="5.55739">
        <ele>1219.23</ele>
        <time>2019-08-27T12:13:51Z</time>
      </trkpt>
      <trkpt lat="45.12409" lon="5.55739">
        <ele>1219.19</ele>
        <time>2019-08-27T12:13:52Z</time>
      </trkpt>
      <trkpt lat="45.12407" lon="5.5574">
        <ele>1219.15</ele>
        <time>2019-08-27T12:13:53Z</time>
      </trkpt>
      <trkpt lat="45.12406" lon="5.5574">
        <ele>1219.11</ele>
        <time>2019-08-27T12:13:54Z</time>
      </trkpt>
      <trkpt lat="45.12404" lon="5.5574">
        <ele>1219.06</ele>
        <time>2019-08-27T12:13:55Z</time>
      </trkpt>
      <trkpt lat="45.12401" lon="5.5574">
        <ele>1218.96</ele>
        <time>2019-08-27T12:13:57Z</time>
      </trkpt>
      <trkpt lat="45.12374" lon="5.55754">
        <ele>1218.35</ele>
        <time>2019-08-27T12:14:09Z</time>
      </trkpt>
      <trkpt lat="45.12348" lon="5.55759">
        <ele>1219.63</ele>
        <time>2019-08-27T12:14:21Z</time>
      </trkpt>
      <trkpt lat="45.12325" lon="5.55754">
        <ele>1221.2</ele>
        <time>2019-08-27T12:14:31Z</time>
      </trkpt>
      <trkpt lat="45.12314" lon="5.55749">
        <ele>1221.92</ele>
        <time>2019-08-27T12:14:36Z</time>
      </trkpt>
      <trkpt lat="45.12283" lon="5.55729">
        <ele>1221.96</ele>
        <time>2019-08-27T12:14:47Z</time>
      </trkpt>
      <trkpt lat="45.12276" lon="5.55722">
        <ele>1221.75</ele>
        <time>2019-08-27T12:14:49Z</time>
      </trkpt>
      <trkpt lat="45.12256" lon="5.55698">
        <ele>1219.44</ele>
        <time>2019-08-27T12:14:57Z</time>
      </trkpt>
      <trkpt lat="45.12256" lon="5.55661">
        <ele>1216.05</ele>
        <time>2019-08-27T12:15:07Z</time>
      </trkpt>
      <trkpt lat="45.12262" lon="5.55637">
        <ele>1212.83</ele>
        <time>2019-08-27T12:15:14Z</time>
      </trkpt>
      <trkpt lat="45.12258" lon="5.5562">
        <ele>1209.41</ele>
        <time>2019-08-27T12:15:21Z</time>
      </trkpt>
      <trkpt lat="45.12253" lon="5.55619">
        <ele>1208.66</ele>
        <time>2019-08-27T12:15:23Z</time>
      </trkpt>
      <trkpt lat="45.12241" lon="5.55615">
        <ele>1206.84</ele>
        <time>2019-08-27T12:15:33Z</time>
      </trkpt>
      <trkpt lat="45.1222" lon="5.55622">
        <ele>1206.05</ele>
        <time>2019-08-27T12:15:49Z</time>
      </trkpt>
      <trkpt lat="45.12192" lon="5.55639">
        <ele>1205.73</ele>
        <time>2019-08-27T12:15:59Z</time>
      </trkpt>
      <trkpt lat="45.12182" lon="5.55647">
        <ele>1205.9</ele>
        <time>2019-08-27T12:16:03Z</time>
      </trkpt>
      <trkpt lat="45.12163" lon="5.5567">
        <ele>1207.53</ele>
        <time>2019-08-27T12:16:14Z</time>
      </trkpt>
      <trkpt lat="45.12147" lon="5.55683">
        <ele>1208.88</ele>
        <time>2019-08-27T12:16:22Z</time>
      </trkpt>
      <trkpt lat="45.12138" lon="5.55691">
        <ele>1210.17</ele>
        <time>2019-08-27T12:16:34Z</time>
      </trkpt>
      <trkpt lat="45.12135" lon="5.55695">
        <ele>1210.14</ele>
        <time>2019-08-27T12:16:38Z</time>
      </trkpt>
      <trkpt lat="45.12121" lon="5.55703">
        <ele>1209.6</ele>
        <time>2019-08-27T12:16:45Z</time>
      </trkpt>
      <trkpt lat="45.12111" lon="5.55726">
        <ele>1209.59</ele>
        <time>2019-08-27T12:16:53Z</time>
      </trkpt>
      <trkpt lat="45.12103" lon="5.55745">
        <ele>1210.52</ele>
        <time>2019-08-27T12:16:59Z</time>
      </trkpt>
      <trkpt lat="45.12079" lon="5.55772">
        <ele>1211.37</ele>
        <time>2019-08-27T12:17:09Z</time>
      </trkpt>
      <trkpt lat="45.12061" lon="5.55801">
        <ele>1211.17</ele>
        <time>2019-08-27T12:17:19Z</time>
      </trkpt>
      <trkpt lat="45.12053" lon="5.55802">
        <ele>1210.89</ele>
        <time>2019-08-27T12:17:39Z</time>
      </trkpt>
      <trkpt lat="45.12049" lon="5.55798">
        <ele>1210.97</ele>
        <time>2019-08-27T12:18:10Z</time>
      </trkpt>
      <trkpt lat="45.12046" lon="5.55795">
        <ele>1210.79</ele>
        <time>2019-08-27T12:18:34Z</time>
      </trkpt>
      <trkpt lat="45.12044" lon="5.55794">
        <ele>1210.58</ele>
        <time>2019-08-27T12:19:05Z</time>
      </trkpt>
      <trkpt lat="45.12042" lon="5.55793">
        <ele>1210.57</ele>
        <time>2019-08-27T12:19:08Z</time>
      </trkpt>
      <trkpt lat="45.12031" lon="5.55778">
        <ele>1211.32</ele>
        <time>2019-08-27T12:19:23Z</time>
      </trkpt>
      <trkpt lat="45.1201" lon="5.5575">
        <ele>1212.13</ele>
        <time>2019-08-27T12:19:37Z</time>
      </trkpt>
      <trkpt lat="45.11996" lon="5.55728">
        <ele>1213.05</ele>
        <time>2019-08-27T12:19:48Z</time>
      </trkpt>
      <trkpt lat="45.11989" lon="5.5572">
        <ele>1213.86</ele>
        <time>2019-08-27T12:19:53Z</time>
      </trkpt>
      <trkpt lat="45.1197" lon="5.55703">
        <ele>1215.26</ele>
        <time>2019-08-27T12:20:06Z</time>
      </trkpt>
      <trkpt lat="45.11964" lon="5.55683">
        <ele>1216.47</ele>
        <time>2019-08-27T12:20:22Z</time>
      </trkpt>
      <trkpt lat="45.11956" lon="5.55659">
        <ele>1218.44</ele>
        <time>2019-08-27T12:20:37Z</time>
      </trkpt>
      <trkpt lat="45.11952" lon="5.55642">
        <ele>1218.96</ele>
        <time>2019-08-27T12:21:00Z</time>
      </trkpt>
      <trkpt lat="45.11946" lon="5.55618">
        <ele>1219.69</ele>
        <time>2019-08-27T12:21:11Z</time>
      </trkpt>
      <trkpt lat="45.11941" lon="5.55609">
        <ele>1220.01</ele>
        <time>2019-08-27T12:21:15Z</time>
      </trkpt>
      <trkpt lat="45.11936" lon="5.55599">
        <ele>1220.25</ele>
        <time>2019-08-27T12:21:20Z</time>
      </trkpt>
      <trkpt lat="45.1193" lon="5.55584">
        <ele>1220.84</ele>
        <time>2019-08-27T12:21:27Z</time>
      </trkpt>
      <trkpt lat="45.11917" lon="5.55562">
        <ele>1222.24</ele>
        <time>2019-08-27T12:21:39Z</time>
      </trkpt>
      <trkpt lat="45.11916" lon="5.55555">
        <ele>1222.6</ele>
        <time>2019-08-27T12:21:42Z</time>
      </trkpt>
      <trkpt lat="45.11915" lon="5.55548">
        <ele>1223.13</ele>
        <time>2019-08-27T12:21:46Z</time>
      </trkpt>
      <trkpt lat="45.11905" lon="5.55518">
        <ele>1225.42</ele>
        <time>2019-08-27T12:21:59Z</time>
      </trkpt>
      <trkpt lat="45.119" lon="5.55509">
        <ele>1226.24</ele>
        <time>2019-08-27T12:22:04Z</time>
      </trkpt>
      <trkpt lat="45.11893" lon="5.55482">
        <ele>1229.04</ele>
        <time>2019-08-27T12:22:20Z</time>
      </trkpt>
      <trkpt lat="45.11872" lon="5.55437">
        <ele>1232.04</ele>
        <time>2019-08-27T12:22:35Z</time>
      </trkpt>
      <trkpt lat="45.11852" lon="5.55409">
        <ele>1233.98</ele>
        <time>2019-08-27T12:22:50Z</time>
      </trkpt>
      <trkpt lat="45.11849" lon="5.55404">
        <ele>1234.31</ele>
        <time>2019-08-27T12:22:53Z</time>
      </trkpt>
      <trkpt lat="45.11848" lon="5.55401">
        <ele>1234.5</ele>
        <time>2019-08-27T12:22:55Z</time>
      </trkpt>
      <trkpt lat="45.11834" lon="5.5538">
        <ele>1235.35</ele>
        <time>2019-08-27T12:23:08Z</time>
      </trkpt>
      <trkpt lat="45.11828" lon="5.55372">
        <ele>1235.48</ele>
        <time>2019-08-27T12:23:12Z</time>
      </trkpt>
      <trkpt lat="45.11822" lon="5.55359">
        <ele>1235.85</ele>
        <time>2019-08-27T12:23:19Z</time>
      </trkpt>
      <trkpt lat="45.11817" lon="5.55351">
        <ele>1236.38</ele>
        <time>2019-08-27T12:23:35Z</time>
      </trkpt>
      <trkpt lat="45.11815" lon="5.5535">
        <ele>1236.36</ele>
        <time>2019-08-27T12:24:05Z</time>
      </trkpt>
      <trkpt lat="45.11813" lon="5.55347">
        <ele>1235.98</ele>
        <time>2019-08-27T12:24:34Z</time>
      </trkpt>
      <trkpt lat="45.11812" lon="5.5533">
        <ele>1235.28</ele>
        <time>2019-08-27T12:24:53Z</time>
      </trkpt>
      <trkpt lat="45.11808" lon="5.55301">
        <ele>1235.4</ele>
        <time>2019-08-27T12:25:03Z</time>
      </trkpt>
      <trkpt lat="45.11808" lon="5.55296">
        <ele>1235.41</ele>
        <time>2019-08-27T12:25:04Z</time>
      </trkpt>
      <trkpt lat="45.11804" lon="5.55268">
        <ele>1234.72</ele>
        <time>2019-08-27T12:25:08Z</time>
      </trkpt>
      <trkpt lat="45.118" lon="5.55247">
        <ele>1233.71</ele>
        <time>2019-08-27T12:25:14Z</time>
      </trkpt>
      <trkpt lat="45.11797" lon="5.55242">
        <ele>1233.64</ele>
        <time>2019-08-27T12:25:16Z</time>
      </trkpt>
      <trkpt lat="45.1178" lon="5.55237">
        <ele>1235.01</ele>
        <time>2019-08-27T12:25:26Z</time>
      </trkpt>
      <trkpt lat="45.11773" lon="5.55241">
        <ele>1236.3</ele>
        <time>2019-08-27T12:25:31Z</time>
      </trkpt>
      <trkpt lat="45.1177" lon="5.55243">
        <ele>1236.83</ele>
        <time>2019-08-27T12:25:34Z</time>
      </trkpt>
      <trkpt lat="45.11761" lon="5.5525">
        <ele>1238.09</ele>
        <time>2019-08-27T12:25:46Z</time>
      </trkpt>
      <trkpt lat="45.1175" lon="5.55261">
        <ele>1241.05</ele>
        <time>2019-08-27T12:26:04Z</time>
      </trkpt>
      <trkpt lat="45.11725" lon="5.55264">
        <ele>1240.78</ele>
        <time>2019-08-27T12:26:16Z</time>
      </trkpt>
      <trkpt lat="45.11715" lon="5.55266">
        <ele>1240.44</ele>
        <time>2019-08-27T12:26:19Z</time>
      </trkpt>
      <trkpt lat="45.1168" lon="5.5525">
        <ele>1238.59</ele>
        <time>2019-08-27T12:26:31Z</time>
      </trkpt>
      <trkpt lat="45.11657" lon="5.5522">
        <ele>1239.05</ele>
        <time>2019-08-27T12:26:44Z</time>
      </trkpt>
      <trkpt lat="45.11651" lon="5.55212">
        <ele>1240.07</ele>
        <time>2019-08-27T12:26:51Z</time>
      </trkpt>
      <trkpt lat="45.11645" lon="5.55193">
        <ele>1242.04</ele>
        <time>2019-08-27T12:27:05Z</time>
      </trkpt>
      <trkpt lat="45.11637" lon="5.55171">
        <ele>1245.08</ele>
        <time>2019-08-27T12:27:18Z</time>
      </trkpt>
      <trkpt lat="45.11632" lon="5.55153">
        <ele>1248.1</ele>
        <time>2019-08-27T12:27:34Z</time>
      </trkpt>
      <trkpt lat="45.1163" lon="5.55133">
        <ele>1250.75</ele>
        <time>2019-08-27T12:27:50Z</time>
      </trkpt>
      <trkpt lat="45.11623" lon="5.55108">
        <ele>1252.88</ele>
        <time>2019-08-27T12:28:06Z</time>
      </trkpt>
      <trkpt lat="45.11622" lon="5.55086">
        <ele>1254.76</ele>
        <time>2019-08-27T12:28:22Z</time>
      </trkpt>
      <trkpt lat="45.11619" lon="5.55077">
        <ele>1255.17</ele>
        <time>2019-08-27T12:28:26Z</time>
      </trkpt>
      <trkpt lat="45.11617" lon="5.55058">
        <ele>1256.25</ele>
        <time>2019-08-27T12:28:37Z</time>
      </trkpt>
      <trkpt lat="45.11615" lon="5.55039">
        <ele>1257.84</ele>
        <time>2019-08-27T12:28:50Z</time>
      </trkpt>
      <trkpt lat="45.11608" lon="5.55014">
        <ele>1258.85</ele>
        <time>2019-08-27T12:29:04Z</time>
      </trkpt>
      <trkpt lat="45.11603" lon="5.54994">
        <ele>1260.19</ele>
        <time>2019-08-27T12:29:19Z</time>
      </trkpt>
      <trkpt lat="45.11597" lon="5.54972">
        <ele>1262.18</ele>
        <time>2019-08-27T12:29:33Z</time>
      </trkpt>
      <trkpt lat="45.11598" lon="5.5496">
        <ele>1263.45</ele>
        <time>2019-08-27T12:29:45Z</time>
      </trkpt>
      <trkpt lat="45.11599" lon="5.54936">
        <ele>1265.56</ele>
        <time>2019-08-27T12:30:01Z</time>
      </trkpt>
      <trkpt lat="45.11604" lon="5.54909">
        <ele>1267.25</ele>
        <time>2019-08-27T12:30:18Z</time>
      </trkpt>
      <trkpt lat="45.11604" lon="5.54902">
        <ele>1267.73</ele>
        <time>2019-08-27T12:30:36Z</time>
      </trkpt>
      <trkpt lat="45.11601" lon="5.54895">
        <ele>1267.91</ele>
        <time>2019-08-27T12:31:11Z</time>
      </trkpt>
      <trkpt lat="45.11597" lon="5.54894">
        <ele>1268.11</ele>
        <time>2019-08-27T12:31:42Z</time>
      </trkpt>
      <trkpt lat="45.11599" lon="5.54893">
        <ele>1268.21</ele>
        <time>2019-08-27T12:32:13Z</time>
      </trkpt>
      <trkpt lat="45.116" lon="5.54895">
        <ele>1268.52</ele>
        <time>2019-08-27T12:32:45Z</time>
      </trkpt>
      <trkpt lat="45.116" lon="5.54892">
        <ele>1268.39</ele>
        <time>2019-08-27T12:33:15Z</time>
      </trkpt>
      <trkpt lat="45.11604" lon="5.54894">
        <ele>1267.93</ele>
        <time>2019-08-27T12:33:41Z</time>
      </trkpt>
      <trkpt lat="45.11606" lon="5.54896">
        <ele>1268.02</ele>
        <time>2019-08-27T12:34:15Z</time>
      </trkpt>
      <trkpt lat="45.11598" lon="5.54891">
        <ele>1268.24</ele>
        <time>2019-08-27T12:34:47Z</time>
      </trkpt>
      <trkpt lat="45.116" lon="5.54899">
        <ele>1268.29</ele>
        <time>2019-08-27T12:35:20Z</time>
      </trkpt>
      <trkpt lat="45.11606" lon="5.54899">
        <ele>1268.49</ele>
        <time>2019-08-27T12:36:07Z</time>
      </trkpt>
      <trkpt lat="45.11607" lon="5.54895">
        <ele>1268.9</ele>
        <time>2019-08-27T12:36:48Z</time>
      </trkpt>
      <trkpt lat="45.11606" lon="5.54893">
        <ele>1268.96</ele>
        <time>2019-08-27T12:36:50Z</time>
      </trkpt>
      <trkpt lat="45.11583" lon="5.54872">
        <ele>1269.26</ele>
        <time>2019-08-27T12:37:04Z</time>
      </trkpt>
      <trkpt lat="45.11557" lon="5.54863">
        <ele>1270.81</ele>
        <time>2019-08-27T12:37:17Z</time>
      </trkpt>
      <trkpt lat="45.11549" lon="5.5486">
        <ele>1271.35</ele>
        <time>2019-08-27T12:37:22Z</time>
      </trkpt>
      <trkpt lat="45.11547" lon="5.54859">
        <ele>1271.47</ele>
        <time>2019-08-27T12:37:23Z</time>
      </trkpt>
      <trkpt lat="45.11541" lon="5.54855">
        <ele>1272.1</ele>
        <time>2019-08-27T12:37:27Z</time>
      </trkpt>
      <trkpt lat="45.1154" lon="5.54855">
        <ele>1272.1</ele>
        <time>2019-08-27T12:37:28Z</time>
      </trkpt>
      <trkpt lat="45.11538" lon="5.54854">
        <ele>1272.42</ele>
        <time>2019-08-27T12:37:29Z</time>
      </trkpt>
      <trkpt lat="45.11536" lon="5.54853">
        <ele>1272.56</ele>
        <time>2019-08-27T12:37:30Z</time>
      </trkpt>
      <trkpt lat="45.11535" lon="5.54852">
        <ele>1272.71</ele>
        <time>2019-08-27T12:37:31Z</time>
      </trkpt>
      <trkpt lat="45.11533" lon="5.54851">
        <ele>1272.87</ele>
        <time>2019-08-27T12:37:32Z</time>
      </trkpt>
      <trkpt lat="45.1152" lon="5.54842">
        <ele>1274.14</ele>
        <time>2019-08-27T12:37:41Z</time>
      </trkpt>
      <trkpt lat="45.11506" lon="5.5483">
        <ele>1275.69</ele>
        <time>2019-08-27T12:37:51Z</time>
      </trkpt>
      <trkpt lat="45.11501" lon="5.54827">
        <ele>1276.05</ele>
        <time>2019-08-27T12:37:55Z</time>
      </trkpt>
      <trkpt lat="45.11495" lon="5.54824">
        <ele>1276.39</ele>
        <time>2019-08-27T12:38:00Z</time>
      </trkpt>
      <trkpt lat="45.11493" lon="5.54824">
        <ele>1276.48</ele>
        <time>2019-08-27T12:38:01Z</time>
      </trkpt>
      <trkpt lat="45.1149" lon="5.54822">
        <ele>1276.68</ele>
        <time>2019-08-27T12:38:03Z</time>
      </trkpt>
      <trkpt lat="45.11488" lon="5.54821">
        <ele>1276.78</ele>
        <time>2019-08-27T12:38:04Z</time>
      </trkpt>
      <trkpt lat="45.11486" lon="5.54821">
        <ele>1276.87</ele>
        <time>2019-08-27T12:38:05Z</time>
      </trkpt>
      <trkpt lat="45.11484" lon="5.5482">
        <ele>1276.96</ele>
        <time>2019-08-27T12:38:06Z</time>
      </trkpt>
      <trkpt lat="45.11482" lon="5.54819">
        <ele>1277.02</ele>
        <time>2019-08-27T12:38:07Z</time>
      </trkpt>
      <trkpt lat="45.1148" lon="5.54819">
        <ele>1277.08</ele>
        <time>2019-08-27T12:38:08Z</time>
      </trkpt>
      <trkpt lat="45.11471" lon="5.54815">
        <ele>1277.43</ele>
        <time>2019-08-27T12:38:13Z</time>
      </trkpt>
      <trkpt lat="45.11469" lon="5.54814">
        <ele>1277.49</ele>
        <time>2019-08-27T12:38:14Z</time>
      </trkpt>
      <trkpt lat="45.11441" lon="5.54804">
        <ele>1278.26</ele>
        <time>2019-08-27T12:38:28Z</time>
      </trkpt>
      <trkpt lat="45.11437" lon="5.54802">
        <ele>1278.32</ele>
        <time>2019-08-27T12:38:30Z</time>
      </trkpt>
      <trkpt lat="45.11435" lon="5.54801">
        <ele>1278.35</ele>
        <time>2019-08-27T12:38:31Z</time>
      </trkpt>
      <trkpt lat="45.11433" lon="5.548">
        <ele>1278.38</ele>
        <time>2019-08-27T12:38:32Z</time>
      </trkpt>
      <trkpt lat="45.11431" lon="5.54799">
        <ele>1278.44</ele>
        <time>2019-08-27T12:38:33Z</time>
      </trkpt>
      <trkpt lat="45.11429" lon="5.54799">
        <ele>1278.5</ele>
        <time>2019-08-27T12:38:34Z</time>
      </trkpt>
      <trkpt lat="45.11426" lon="5.54798">
        <ele>1278.55</ele>
        <time>2019-08-27T12:38:35Z</time>
      </trkpt>
      <trkpt lat="45.114" lon="5.54795">
        <ele>1278.82</ele>
        <time>2019-08-27T12:38:46Z</time>
      </trkpt>
      <trkpt lat="45.1137" lon="5.54795">
        <ele>1279.17</ele>
        <time>2019-08-27T12:38:59Z</time>
      </trkpt>
      <trkpt lat="45.11337" lon="5.54796">
        <ele>1278.96</ele>
        <time>2019-08-27T12:39:10Z</time>
      </trkpt>
      <trkpt lat="45.1129" lon="5.54799">
        <ele>1277.84</ele>
        <time>2019-08-27T12:39:22Z</time>
      </trkpt>
      <trkpt lat="45.1127" lon="5.54801">
        <ele>1276.8</ele>
        <time>2019-08-27T12:39:26Z</time>
      </trkpt>
      <trkpt lat="45.11265" lon="5.54802">
        <ele>1276.6</ele>
        <time>2019-08-27T12:39:27Z</time>
      </trkpt>
      <trkpt lat="45.1126" lon="5.54802">
        <ele>1276.42</ele>
        <time>2019-08-27T12:39:28Z</time>
      </trkpt>
      <trkpt lat="45.11233" lon="5.54807">
        <ele>1274.18</ele>
        <time>2019-08-27T12:39:37Z</time>
      </trkpt>
      <trkpt lat="45.11225" lon="5.54803">
        <ele>1273.19</ele>
        <time>2019-08-27T12:39:51Z</time>
      </trkpt>
      <trkpt lat="45.11223" lon="5.54802">
        <ele>1273.12</ele>
        <time>2019-08-27T12:39:52Z</time>
      </trkpt>
      <trkpt lat="45.11221" lon="5.54802">
        <ele>1273.08</ele>
        <time>2019-08-27T12:39:53Z</time>
      </trkpt>
      <trkpt lat="45.11218" lon="5.54802">
        <ele>1273.04</ele>
        <time>2019-08-27T12:39:54Z</time>
      </trkpt>
      <trkpt lat="45.11216" lon="5.54802">
        <ele>1272.97</ele>
        <time>2019-08-27T12:39:55Z</time>
      </trkpt>
      <trkpt lat="45.11213" lon="5.54801">
        <ele>1272.89</ele>
        <time>2019-08-27T12:39:56Z</time>
      </trkpt>
      <trkpt lat="45.1121" lon="5.54801">
        <ele>1272.72</ele>
        <time>2019-08-27T12:39:57Z</time>
      </trkpt>
      <trkpt lat="45.11206" lon="5.548">
        <ele>1272.64</ele>
        <time>2019-08-27T12:39:58Z</time>
      </trkpt>
      <trkpt lat="45.11202" lon="5.54798">
        <ele>1272.54</ele>
        <time>2019-08-27T12:39:59Z</time>
      </trkpt>
      <trkpt lat="45.11155" lon="5.54791">
        <ele>1270.71</ele>
        <time>2019-08-27T12:40:08Z</time>
      </trkpt>
      <trkpt lat="45.11149" lon="5.54789">
        <ele>1270.53</ele>
        <time>2019-08-27T12:40:09Z</time>
      </trkpt>
      <trkpt lat="45.11143" lon="5.54787">
        <ele>1270.33</ele>
        <time>2019-08-27T12:40:10Z</time>
      </trkpt>
      <trkpt lat="45.11121" lon="5.54777">
        <ele>1269.61</ele>
        <time>2019-08-27T12:40:15Z</time>
      </trkpt>
      <trkpt lat="45.11109" lon="5.54774">
        <ele>1269.43</ele>
        <time>2019-08-27T12:40:17Z</time>
      </trkpt>
      <trkpt lat="45.11103" lon="5.54774">
        <ele>1269.31</ele>
        <time>2019-08-27T12:40:18Z</time>
      </trkpt>
      <trkpt lat="45.11097" lon="5.54774">
        <ele>1269.18</ele>
        <time>2019-08-27T12:40:19Z</time>
      </trkpt>
      <trkpt lat="45.11079" lon="5.54777">
        <ele>1268.37</ele>
        <time>2019-08-27T12:40:22Z</time>
      </trkpt>
      <trkpt lat="45.11049" lon="5.54786">
        <ele>1266.56</ele>
        <time>2019-08-27T12:40:28Z</time>
      </trkpt>
      <trkpt lat="45.11037" lon="5.54787">
        <ele>1265.92</ele>
        <time>2019-08-27T12:40:30Z</time>
      </trkpt>
      <trkpt lat="45.11019" lon="5.54787">
        <ele>1264.75</ele>
        <time>2019-08-27T12:40:33Z</time>
      </trkpt>
      <trkpt lat="45.11012" lon="5.54786">
        <ele>1264.32</ele>
        <time>2019-08-27T12:40:34Z</time>
      </trkpt>
      <trkpt lat="45.10999" lon="5.54785">
        <ele>1263.24</ele>
        <time>2019-08-27T12:40:36Z</time>
      </trkpt>
      <trkpt lat="45.10992" lon="5.54783">
        <ele>1262.73</ele>
        <time>2019-08-27T12:40:37Z</time>
      </trkpt>
      <trkpt lat="45.1097" lon="5.54779">
        <ele>1261.38</ele>
        <time>2019-08-27T12:40:40Z</time>
      </trkpt>
      <trkpt lat="45.10949" lon="5.54778">
        <ele>1259.98</ele>
        <time>2019-08-27T12:40:43Z</time>
      </trkpt>
      <trkpt lat="45.10942" lon="5.54778">
        <ele>1259.55</ele>
        <time>2019-08-27T12:40:44Z</time>
      </trkpt>
      <trkpt lat="45.10935" lon="5.54779">
        <ele>1258.75</ele>
        <time>2019-08-27T12:40:45Z</time>
      </trkpt>
      <trkpt lat="45.10928" lon="5.54779">
        <ele>1258.75</ele>
        <time>2019-08-27T12:40:46Z</time>
      </trkpt>
      <trkpt lat="45.10922" lon="5.54778">
        <ele>1257.93</ele>
        <time>2019-08-27T12:40:47Z</time>
      </trkpt>
      <trkpt lat="45.10916" lon="5.54778">
        <ele>1257.56</ele>
        <time>2019-08-27T12:40:48Z</time>
      </trkpt>
      <trkpt lat="45.1091" lon="5.54777">
        <ele>1257.24</ele>
        <time>2019-08-27T12:40:49Z</time>
      </trkpt>
      <trkpt lat="45.10905" lon="5.54777">
        <ele>1256.95</ele>
        <time>2019-08-27T12:40:50Z</time>
      </trkpt>
      <trkpt lat="45.10901" lon="5.54776">
        <ele>1256.65</ele>
        <time>2019-08-27T12:40:51Z</time>
      </trkpt>
      <trkpt lat="45.1089" lon="5.5477">
        <ele>1255.15</ele>
        <time>2019-08-27T12:40:58Z</time>
      </trkpt>
      <trkpt lat="45.10888" lon="5.54769">
        <ele>1254.66</ele>
        <time>2019-08-27T12:41:12Z</time>
      </trkpt>
      <trkpt lat="45.10887" lon="5.5477">
        <ele>1254.66</ele>
        <time>2019-08-27T12:41:13Z</time>
      </trkpt>
      <trkpt lat="45.10885" lon="5.54771">
        <ele>1254.65</ele>
        <time>2019-08-27T12:41:14Z</time>
      </trkpt>
      <trkpt lat="45.10883" lon="5.54771">
        <ele>1254.61</ele>
        <time>2019-08-27T12:41:15Z</time>
      </trkpt>
      <trkpt lat="45.10881" lon="5.5477">
        <ele>1254.54</ele>
        <time>2019-08-27T12:41:16Z</time>
      </trkpt>
      <trkpt lat="45.10878" lon="5.54769">
        <ele>1254.47</ele>
        <time>2019-08-27T12:41:17Z</time>
      </trkpt>
      <trkpt lat="45.10875" lon="5.54769">
        <ele>1254.39</ele>
        <time>2019-08-27T12:41:18Z</time>
      </trkpt>
      <trkpt lat="45.10871" lon="5.54768">
        <ele>1254.27</ele>
        <time>2019-08-27T12:41:19Z</time>
      </trkpt>
      <trkpt lat="45.10868" lon="5.54767">
        <ele>1254.14</ele>
        <time>2019-08-27T12:41:20Z</time>
      </trkpt>
      <trkpt lat="45.10864" lon="5.54766">
        <ele>1253.98</ele>
        <time>2019-08-27T12:41:21Z</time>
      </trkpt>
      <trkpt lat="45.10836" lon="5.5476">
        <ele>1251.88</ele>
        <time>2019-08-27T12:41:31Z</time>
      </trkpt>
      <trkpt lat="45.10808" lon="5.54747">
        <ele>1249.35</ele>
        <time>2019-08-27T12:41:42Z</time>
      </trkpt>
      <trkpt lat="45.10775" lon="5.54741">
        <ele>1246.34</ele>
        <time>2019-08-27T12:41:50Z</time>
      </trkpt>
      <trkpt lat="45.10742" lon="5.54732">
        <ele>1242.95</ele>
        <time>2019-08-27T12:41:57Z</time>
      </trkpt>
      <trkpt lat="45.10728" lon="5.54734">
        <ele>1239.85</ele>
        <time>2019-08-27T12:42:08Z</time>
      </trkpt>
      <trkpt lat="45.1073" lon="5.54739">
        <ele>1239.61</ele>
        <time>2019-08-27T12:42:13Z</time>
      </trkpt>
      <trkpt lat="45.1073" lon="5.5474">
        <ele>1239.66</ele>
        <time>2019-08-27T12:42:14Z</time>
      </trkpt>
      <trkpt lat="45.10736" lon="5.54756">
        <ele>1241.08</ele>
        <time>2019-08-27T12:42:25Z</time>
      </trkpt>
      <trkpt lat="45.10739" lon="5.54772">
        <ele>1243.24</ele>
        <time>2019-08-27T12:42:38Z</time>
      </trkpt>
      <trkpt lat="45.1074" lon="5.54787">
        <ele>1243.54</ele>
        <time>2019-08-27T12:42:50Z</time>
      </trkpt>
      <trkpt lat="45.10753" lon="5.54814">
        <ele>1241.94</ele>
        <time>2019-08-27T12:42:58Z</time>
      </trkpt>
      <trkpt lat="45.1078" lon="5.54855">
        <ele>1238.57</ele>
        <time>2019-08-27T12:43:09Z</time>
      </trkpt>
      <trkpt lat="45.10801" lon="5.54885">
        <ele>1235.41</ele>
        <time>2019-08-27T12:43:17Z</time>
      </trkpt>
      <trkpt lat="45.10814" lon="5.54913">
        <ele>1232.47</ele>
        <time>2019-08-27T12:43:26Z</time>
      </trkpt>
      <trkpt lat="45.10816" lon="5.54915">
        <ele>1232.09</ele>
        <time>2019-08-27T12:43:27Z</time>
      </trkpt>
      <trkpt lat="45.10822" lon="5.54928">
        <ele>1230.6</ele>
        <time>2019-08-27T12:43:31Z</time>
      </trkpt>
      <trkpt lat="45.10831" lon="5.54939">
        <ele>1228.99</ele>
        <time>2019-08-27T12:43:36Z</time>
      </trkpt>
      <trkpt lat="45.10846" lon="5.54961">
        <ele>1225.97</ele>
        <time>2019-08-27T12:43:45Z</time>
      </trkpt>
      <trkpt lat="45.10863" lon="5.5498">
        <ele>1222.61</ele>
        <time>2019-08-27T12:43:53Z</time>
      </trkpt>
      <trkpt lat="45.10876" lon="5.55008">
        <ele>1219.36</ele>
        <time>2019-08-27T12:44:01Z</time>
      </trkpt>
      <trkpt lat="45.10881" lon="5.55014">
        <ele>1218.69</ele>
        <time>2019-08-27T12:44:03Z</time>
      </trkpt>
      <trkpt lat="45.10907" lon="5.5504">
        <ele>1214.97</ele>
        <time>2019-08-27T12:44:11Z</time>
      </trkpt>
      <trkpt lat="45.10919" lon="5.55047">
        <ele>1213.73</ele>
        <time>2019-08-27T12:44:14Z</time>
      </trkpt>
      <trkpt lat="45.10932" lon="5.55057">
        <ele>1212.23</ele>
        <time>2019-08-27T12:44:18Z</time>
      </trkpt>
      <trkpt lat="45.10947" lon="5.55072">
        <ele>1210.46</ele>
        <time>2019-08-27T12:44:23Z</time>
      </trkpt>
      <trkpt lat="45.10974" lon="5.55094">
        <ele>1206.82</ele>
        <time>2019-08-27T12:44:31Z</time>
      </trkpt>
      <trkpt lat="45.10977" lon="5.55096">
        <ele>1206.4</ele>
        <time>2019-08-27T12:44:32Z</time>
      </trkpt>
      <trkpt lat="45.10997" lon="5.55117">
        <ele>1203.44</ele>
        <time>2019-08-27T12:44:40Z</time>
      </trkpt>
      <trkpt lat="45.11009" lon="5.55137">
        <ele>1201.59</ele>
        <time>2019-08-27T12:44:46Z</time>
      </trkpt>
      <trkpt lat="45.11026" lon="5.55157">
        <ele>1198.67</ele>
        <time>2019-08-27T12:44:54Z</time>
      </trkpt>
      <trkpt lat="45.11034" lon="5.5517">
        <ele>1197</ele>
        <time>2019-08-27T12:44:58Z</time>
      </trkpt>
      <trkpt lat="45.11053" lon="5.55198">
        <ele>1193.39</ele>
        <time>2019-08-27T12:45:08Z</time>
      </trkpt>
      <trkpt lat="45.11076" lon="5.55224">
        <ele>1190.2</ele>
        <time>2019-08-27T12:45:17Z</time>
      </trkpt>
      <trkpt lat="45.11095" lon="5.55257">
        <ele>1187.08</ele>
        <time>2019-08-27T12:45:25Z</time>
      </trkpt>
      <trkpt lat="45.11109" lon="5.55279">
        <ele>1183.89</ele>
        <time>2019-08-27T12:45:36Z</time>
      </trkpt>
      <trkpt lat="45.11117" lon="5.55292">
        <ele>1182.75</ele>
        <time>2019-08-27T12:45:42Z</time>
      </trkpt>
      <trkpt lat="45.11126" lon="5.55306">
        <ele>1181.66</ele>
        <time>2019-08-27T12:45:46Z</time>
      </trkpt>
      <trkpt lat="45.11134" lon="5.55319">
        <ele>1180.38</ele>
        <time>2019-08-27T12:45:51Z</time>
      </trkpt>
      <trkpt lat="45.11139" lon="5.55327">
        <ele>1178.81</ele>
        <time>2019-08-27T12:46:06Z</time>
      </trkpt>
      <trkpt lat="45.11149" lon="5.55337">
        <ele>1178.53</ele>
        <time>2019-08-27T12:46:30Z</time>
      </trkpt>
      <trkpt lat="45.11163" lon="5.55358">
        <ele>1177.44</ele>
        <time>2019-08-27T12:46:37Z</time>
      </trkpt>
      <trkpt lat="45.11195" lon="5.55393">
        <ele>1174.03</ele>
        <time>2019-08-27T12:46:47Z</time>
      </trkpt>
      <trkpt lat="45.11216" lon="5.55413">
        <ele>1171.02</ele>
        <time>2019-08-27T12:46:54Z</time>
      </trkpt>
      <trkpt lat="45.11228" lon="5.55427">
        <ele>1169.02</ele>
        <time>2019-08-27T12:46:58Z</time>
      </trkpt>
      <trkpt lat="45.11244" lon="5.55448">
        <ele>1165.63</ele>
        <time>2019-08-27T12:47:05Z</time>
      </trkpt>
      <trkpt lat="45.11244" lon="5.55475">
        <ele>1162.52</ele>
        <time>2019-08-27T12:47:12Z</time>
      </trkpt>
      <trkpt lat="45.11243" lon="5.55481">
        <ele>1160.7</ele>
        <time>2019-08-27T12:47:16Z</time>
      </trkpt>
      <trkpt lat="45.11235" lon="5.55497">
        <ele>1158.92</ele>
        <time>2019-08-27T12:47:21Z</time>
      </trkpt>
      <trkpt lat="45.11217" lon="5.55527">
        <ele>1155.76</ele>
        <time>2019-08-27T12:47:29Z</time>
      </trkpt>
      <trkpt lat="45.11201" lon="5.55551">
        <ele>1152.37</ele>
        <time>2019-08-27T12:47:38Z</time>
      </trkpt>
      <trkpt lat="45.11195" lon="5.55558">
        <ele>1151.46</ele>
        <time>2019-08-27T12:47:40Z</time>
      </trkpt>
      <trkpt lat="45.11185" lon="5.55565">
        <ele>1148.01</ele>
        <time>2019-08-27T12:47:48Z</time>
      </trkpt>
      <trkpt lat="45.11182" lon="5.55569">
        <ele>1146.58</ele>
        <time>2019-08-27T12:48:21Z</time>
      </trkpt>
      <trkpt lat="45.11179" lon="5.55573">
        <ele>1146.36</ele>
        <time>2019-08-27T12:48:51Z</time>
      </trkpt>
      <trkpt lat="45.11177" lon="5.55577">
        <ele>1146.26</ele>
        <time>2019-08-27T12:49:30Z</time>
      </trkpt>
      <trkpt lat="45.11182" lon="5.55583">
        <ele>1146.13</ele>
        <time>2019-08-27T12:49:33Z</time>
      </trkpt>
      <trkpt lat="45.11184" lon="5.55585">
        <ele>1146.06</ele>
        <time>2019-08-27T12:49:34Z</time>
      </trkpt>
      <trkpt lat="45.11186" lon="5.55587">
        <ele>1145.94</ele>
        <time>2019-08-27T12:49:35Z</time>
      </trkpt>
      <trkpt lat="45.1119" lon="5.55589">
        <ele>1145.82</ele>
        <time>2019-08-27T12:49:36Z</time>
      </trkpt>
      <trkpt lat="45.11232" lon="5.55624">
        <ele>1143.35</ele>
        <time>2019-08-27T12:49:50Z</time>
      </trkpt>
      <trkpt lat="45.1124" lon="5.55645">
        <ele>1140.07</ele>
        <time>2019-08-27T12:49:57Z</time>
      </trkpt>
      <trkpt lat="45.11242" lon="5.55651">
        <ele>1139.1</ele>
        <time>2019-08-27T12:49:59Z</time>
      </trkpt>
      <trkpt lat="45.11264" lon="5.55645">
        <ele>1135.34</ele>
        <time>2019-08-27T12:50:06Z</time>
      </trkpt>
      <trkpt lat="45.11284" lon="5.55659">
        <ele>1132.97</ele>
        <time>2019-08-27T12:50:13Z</time>
      </trkpt>
      <trkpt lat="45.11289" lon="5.55668">
        <ele>1132.74</ele>
        <time>2019-08-27T12:50:15Z</time>
      </trkpt>
      <trkpt lat="45.11304" lon="5.55701">
        <ele>1135.97</ele>
        <time>2019-08-27T12:50:29Z</time>
      </trkpt>
      <trkpt lat="45.11309" lon="5.55711">
        <ele>1138.06</ele>
        <time>2019-08-27T12:50:41Z</time>
      </trkpt>
      <trkpt lat="45.11314" lon="5.55726">
        <ele>1138.53</ele>
        <time>2019-08-27T12:50:48Z</time>
      </trkpt>
      <trkpt lat="45.1133" lon="5.55761">
        <ele>1140.56</ele>
        <time>2019-08-27T12:51:06Z</time>
      </trkpt>
      <trkpt lat="45.11331" lon="5.55762">
        <ele>1140.83</ele>
        <time>2019-08-27T12:51:08Z</time>
      </trkpt>
      <trkpt lat="45.11347" lon="5.55779">
        <ele>1142.3</ele>
        <time>2019-08-27T12:51:22Z</time>
      </trkpt>
      <trkpt lat="45.11365" lon="5.55799">
        <ele>1143.52</ele>
        <time>2019-08-27T12:51:36Z</time>
      </trkpt>
      <trkpt lat="45.1138" lon="5.55811">
        <ele>1143.4</ele>
        <time>2019-08-27T12:51:51Z</time>
      </trkpt>
      <trkpt lat="45.11395" lon="5.55822">
        <ele>1142.24</ele>
        <time>2019-08-27T12:52:02Z</time>
      </trkpt>
      <trkpt lat="45.11417" lon="5.55837">
        <ele>1139.47</ele>
        <time>2019-08-27T12:52:15Z</time>
      </trkpt>
      <trkpt lat="45.11425" lon="5.55849">
        <ele>1135.98</ele>
        <time>2019-08-27T12:52:21Z</time>
      </trkpt>
      <trkpt lat="45.11428" lon="5.55856">
        <ele>1132.96</ele>
        <time>2019-08-27T12:52:38Z</time>
      </trkpt>
      <trkpt lat="45.1143" lon="5.55863">
        <ele>1132.75</ele>
        <time>2019-08-27T12:52:52Z</time>
      </trkpt>
      <trkpt lat="45.11429" lon="5.55869">
        <ele>1132.49</ele>
        <time>2019-08-27T12:52:55Z</time>
      </trkpt>
      <trkpt lat="45.11428" lon="5.55896">
        <ele>1129.34</ele>
        <time>2019-08-27T12:53:05Z</time>
      </trkpt>
      <trkpt lat="45.11419" lon="5.55917">
        <ele>1125.82</ele>
        <time>2019-08-27T12:53:13Z</time>
      </trkpt>
      <trkpt lat="45.11414" lon="5.55923">
        <ele>1125.16</ele>
        <time>2019-08-27T12:53:16Z</time>
      </trkpt>
      <trkpt lat="45.1141" lon="5.55932">
        <ele>1124.35</ele>
        <time>2019-08-27T12:53:20Z</time>
      </trkpt>
      <trkpt lat="45.11407" lon="5.55941">
        <ele>1122.92</ele>
        <time>2019-08-27T12:53:24Z</time>
      </trkpt>
      <trkpt lat="45.11385" lon="5.55963">
        <ele>1120.67</ele>
        <time>2019-08-27T12:53:34Z</time>
      </trkpt>
      <trkpt lat="45.11379" lon="5.55969">
        <ele>1121.06</ele>
        <time>2019-08-27T12:53:37Z</time>
      </trkpt>
      <trkpt lat="45.11371" lon="5.55975">
        <ele>1121.55</ele>
        <time>2019-08-27T12:53:41Z</time>
      </trkpt>
      <trkpt lat="45.11363" lon="5.55976">
        <ele>1122.03</ele>
        <time>2019-08-27T12:53:46Z</time>
      </trkpt>
      <trkpt lat="45.11356" lon="5.55986">
        <ele>1123.13</ele>
        <time>2019-08-27T12:54:02Z</time>
      </trkpt>
      <trkpt lat="45.11348" lon="5.5599">
        <ele>1123.26</ele>
        <time>2019-08-27T12:54:29Z</time>
      </trkpt>
      <trkpt lat="45.1134" lon="5.55991">
        <ele>1123.4</ele>
        <time>2019-08-27T12:54:52Z</time>
      </trkpt>
      <trkpt lat="45.11323" lon="5.55996">
        <ele>1125.49</ele>
        <time>2019-08-27T12:55:08Z</time>
      </trkpt>
      <trkpt lat="45.11316" lon="5.56001">
        <ele>1127.65</ele>
        <time>2019-08-27T12:55:23Z</time>
      </trkpt>
      <trkpt lat="45.11306" lon="5.56002">
        <ele>1129.23</ele>
        <time>2019-08-27T12:55:35Z</time>
      </trkpt>
      <trkpt lat="45.11295" lon="5.55997">
        <ele>1130.93</ele>
        <time>2019-08-27T12:55:54Z</time>
      </trkpt>
      <trkpt lat="45.1128" lon="5.55991">
        <ele>1131.67</ele>
        <time>2019-08-27T12:56:13Z</time>
      </trkpt>
      <trkpt lat="45.11272" lon="5.55985">
        <ele>1130.9</ele>
        <time>2019-08-27T12:56:33Z</time>
      </trkpt>
      <trkpt lat="45.11271" lon="5.55985">
        <ele>1130.84</ele>
        <time>2019-08-27T12:56:35Z</time>
      </trkpt>
      <trkpt lat="45.11246" lon="5.55969">
        <ele>1129.58</ele>
        <time>2019-08-27T12:56:48Z</time>
      </trkpt>
      <trkpt lat="45.11228" lon="5.55956">
        <ele>1126.16</ele>
        <time>2019-08-27T12:56:55Z</time>
      </trkpt>
      <trkpt lat="45.11224" lon="5.55954">
        <ele>1125.62</ele>
        <time>2019-08-27T12:56:56Z</time>
      </trkpt>
      <trkpt lat="45.11215" lon="5.55951">
        <ele>1124.42</ele>
        <time>2019-08-27T12:56:58Z</time>
      </trkpt>
      <trkpt lat="45.11199" lon="5.55946">
        <ele>1123.09</ele>
        <time>2019-08-27T12:57:01Z</time>
      </trkpt>
      <trkpt lat="45.11168" lon="5.55936">
        <ele>1120.32</ele>
        <time>2019-08-27T12:57:09Z</time>
      </trkpt>
      <trkpt lat="45.11153" lon="5.55926">
        <ele>1117.95</ele>
        <time>2019-08-27T12:57:16Z</time>
      </trkpt>
      <trkpt lat="45.11137" lon="5.55915">
        <ele>1114.1</ele>
        <time>2019-08-27T12:57:26Z</time>
      </trkpt>
      <trkpt lat="45.11134" lon="5.55915">
        <ele>1113.31</ele>
        <time>2019-08-27T12:57:32Z</time>
      </trkpt>
      <trkpt lat="45.11125" lon="5.55913">
        <ele>1112.81</ele>
        <time>2019-08-27T12:57:40Z</time>
      </trkpt>
      <trkpt lat="45.11106" lon="5.55915">
        <ele>1112.66</ele>
        <time>2019-08-27T12:57:48Z</time>
      </trkpt>
      <trkpt lat="45.11079" lon="5.55913">
        <ele>1112.92</ele>
        <time>2019-08-27T12:57:59Z</time>
      </trkpt>
      <trkpt lat="45.1105" lon="5.55899">
        <ele>1112.26</ele>
        <time>2019-08-27T12:58:07Z</time>
      </trkpt>
      <trkpt lat="45.11021" lon="5.5589">
        <ele>1111.29</ele>
        <time>2019-08-27T12:58:15Z</time>
      </trkpt>
      <trkpt lat="45.11004" lon="5.55884">
        <ele>1111.46</ele>
        <time>2019-08-27T12:58:25Z</time>
      </trkpt>
      <trkpt lat="45.1099" lon="5.55883">
        <ele>1111.51</ele>
        <time>2019-08-27T12:58:54Z</time>
      </trkpt>
      <trkpt lat="45.10966" lon="5.55886">
        <ele>1112.05</ele>
        <time>2019-08-27T12:59:05Z</time>
      </trkpt>
      <trkpt lat="45.10956" lon="5.55888">
        <ele>1111.94</ele>
        <time>2019-08-27T12:59:18Z</time>
      </trkpt>
      <trkpt lat="45.10926" lon="5.55883">
        <ele>1110.19</ele>
        <time>2019-08-27T12:59:27Z</time>
      </trkpt>
      <trkpt lat="45.10885" lon="5.55884">
        <ele>1107.73</ele>
        <time>2019-08-27T12:59:36Z</time>
      </trkpt>
      <trkpt lat="45.10859" lon="5.55893">
        <ele>1106.58</ele>
        <time>2019-08-27T12:59:42Z</time>
      </trkpt>
      <trkpt lat="45.10816" lon="5.55901">
        <ele>1106.14</ele>
        <time>2019-08-27T12:59:54Z</time>
      </trkpt>
      <trkpt lat="45.10783" lon="5.55901">
        <ele>1105</ele>
        <time>2019-08-27T13:00:03Z</time>
      </trkpt>
      <trkpt lat="45.10748" lon="5.55908">
        <ele>1102.24</ele>
        <time>2019-08-27T13:00:11Z</time>
      </trkpt>
      <trkpt lat="45.1074" lon="5.5591">
        <ele>1101.62</ele>
        <time>2019-08-27T13:00:13Z</time>
      </trkpt>
      <trkpt lat="45.10716" lon="5.55905">
        <ele>1099.13</ele>
        <time>2019-08-27T13:00:20Z</time>
      </trkpt>
      <trkpt lat="45.10694" lon="5.55899">
        <ele>1096.59</ele>
        <time>2019-08-27T13:00:25Z</time>
      </trkpt>
      <trkpt lat="45.1067" lon="5.55898">
        <ele>1093.77</ele>
        <time>2019-08-27T13:00:31Z</time>
      </trkpt>
      <trkpt lat="45.1065" lon="5.55914">
        <ele>1091.3</ele>
        <time>2019-08-27T13:00:37Z</time>
      </trkpt>
      <trkpt lat="45.10623" lon="5.55924">
        <ele>1088.27</ele>
        <time>2019-08-27T13:00:45Z</time>
      </trkpt>
      <trkpt lat="45.10596" lon="5.55926">
        <ele>1085.18</ele>
        <time>2019-08-27T13:00:52Z</time>
      </trkpt>
      <trkpt lat="45.10591" lon="5.55927">
        <ele>1082.16</ele>
        <time>2019-08-27T13:01:03Z</time>
      </trkpt>
      <trkpt lat="45.10584" lon="5.55926">
        <ele>1081.56</ele>
        <time>2019-08-27T13:01:26Z</time>
      </trkpt>
      <trkpt lat="45.10578" lon="5.55923">
        <ele>1081.48</ele>
        <time>2019-08-27T13:01:30Z</time>
      </trkpt>
      <trkpt lat="45.10576" lon="5.55922">
        <ele>1081.43</ele>
        <time>2019-08-27T13:01:31Z</time>
      </trkpt>
      <trkpt lat="45.10574" lon="5.55922">
        <ele>1081.35</ele>
        <time>2019-08-27T13:01:32Z</time>
      </trkpt>
      <trkpt lat="45.10567" lon="5.55922">
        <ele>1081.05</ele>
        <time>2019-08-27T13:01:35Z</time>
      </trkpt>
      <trkpt lat="45.10538" lon="5.55926">
        <ele>1077.96</ele>
        <time>2019-08-27T13:01:46Z</time>
      </trkpt>
      <trkpt lat="45.10515" lon="5.55921">
        <ele>1074.72</ele>
        <time>2019-08-27T13:01:53Z</time>
      </trkpt>
      <trkpt lat="45.10513" lon="5.55922">
        <ele>1074.31</ele>
        <time>2019-08-27T13:01:54Z</time>
      </trkpt>
      <trkpt lat="45.10511" lon="5.55923">
        <ele>1073.87</ele>
        <time>2019-08-27T13:01:55Z</time>
      </trkpt>
      <trkpt lat="45.10508" lon="5.55924">
        <ele>1073.44</ele>
        <time>2019-08-27T13:01:56Z</time>
      </trkpt>
      <trkpt lat="45.10506" lon="5.55925">
        <ele>1073</ele>
        <time>2019-08-27T13:01:57Z</time>
      </trkpt>
      <trkpt lat="45.10504" lon="5.55926">
        <ele>1072.54</ele>
        <time>2019-08-27T13:01:58Z</time>
      </trkpt>
      <trkpt lat="45.10486" lon="5.55927">
        <ele>1069.27</ele>
        <time>2019-08-27T13:02:05Z</time>
      </trkpt>
      <trkpt lat="45.10459" lon="5.55937">
        <ele>1065.91</ele>
        <time>2019-08-27T13:02:13Z</time>
      </trkpt>
      <trkpt lat="45.10439" lon="5.55944">
        <ele>1062.88</ele>
        <time>2019-08-27T13:02:18Z</time>
      </trkpt>
      <trkpt lat="45.1042" lon="5.55934">
        <ele>1059.5</ele>
        <time>2019-08-27T13:02:25Z</time>
      </trkpt>
      <trkpt lat="45.10399" lon="5.55919">
        <ele>1056.16</ele>
        <time>2019-08-27T13:02:32Z</time>
      </trkpt>
      <trkpt lat="45.1038" lon="5.55913">
        <ele>1053.08</ele>
        <time>2019-08-27T13:02:37Z</time>
      </trkpt>
      <trkpt lat="45.10366" lon="5.5591">
        <ele>1049.63</ele>
        <time>2019-08-27T13:02:42Z</time>
      </trkpt>
      <trkpt lat="45.10363" lon="5.55904">
        <ele>1048.63</ele>
        <time>2019-08-27T13:02:44Z</time>
      </trkpt>
      <trkpt lat="45.10363" lon="5.559">
        <ele>1048.12</ele>
        <time>2019-08-27T13:02:45Z</time>
      </trkpt>
      <trkpt lat="45.10364" lon="5.55896">
        <ele>1047.61</ele>
        <time>2019-08-27T13:02:46Z</time>
      </trkpt>
      <trkpt lat="45.10364" lon="5.55892">
        <ele>1047.05</ele>
        <time>2019-08-27T13:02:47Z</time>
      </trkpt>
      <trkpt lat="45.10365" lon="5.5589">
        <ele>1046.45</ele>
        <time>2019-08-27T13:02:48Z</time>
      </trkpt>
      <trkpt lat="45.10366" lon="5.55887">
        <ele>1045.89</ele>
        <time>2019-08-27T13:02:49Z</time>
      </trkpt>
      <trkpt lat="45.10367" lon="5.55885">
        <ele>1045.38</ele>
        <time>2019-08-27T13:02:50Z</time>
      </trkpt>
      <trkpt lat="45.10368" lon="5.55883">
        <ele>1044.9</ele>
        <time>2019-08-27T13:02:51Z</time>
      </trkpt>
      <trkpt lat="45.10369" lon="5.55881">
        <ele>1044.44</ele>
        <time>2019-08-27T13:02:52Z</time>
      </trkpt>
      <trkpt lat="45.10372" lon="5.55872">
        <ele>1042.8</ele>
        <time>2019-08-27T13:02:56Z</time>
      </trkpt>
      <trkpt lat="45.10372" lon="5.5587">
        <ele>1042.43</ele>
        <time>2019-08-27T13:02:57Z</time>
      </trkpt>
      <trkpt lat="45.1037" lon="5.55868">
        <ele>1042.07</ele>
        <time>2019-08-27T13:02:58Z</time>
      </trkpt>
      <trkpt lat="45.10369" lon="5.55866">
        <ele>1041.71</ele>
        <time>2019-08-27T13:02:59Z</time>
      </trkpt>
      <trkpt lat="45.10367" lon="5.55865">
        <ele>1041.33</ele>
        <time>2019-08-27T13:03:00Z</time>
      </trkpt>
      <trkpt lat="45.10365" lon="5.55864">
        <ele>1040.88</ele>
        <time>2019-08-27T13:03:01Z</time>
      </trkpt>
      <trkpt lat="45.10363" lon="5.55863">
        <ele>1040.38</ele>
        <time>2019-08-27T13:03:02Z</time>
      </trkpt>
      <trkpt lat="45.1036" lon="5.55862">
        <ele>1039.42</ele>
        <time>2019-08-27T13:03:03Z</time>
      </trkpt>
      <trkpt lat="45.10351" lon="5.55859">
        <ele>1038.48</ele>
        <time>2019-08-27T13:03:05Z</time>
      </trkpt>
      <trkpt lat="45.10346" lon="5.55858">
        <ele>1038.04</ele>
        <time>2019-08-27T13:03:06Z</time>
      </trkpt>
      <trkpt lat="45.10315" lon="5.55846">
        <ele>1034.96</ele>
        <time>2019-08-27T13:03:13Z</time>
      </trkpt>
      <trkpt lat="45.10297" lon="5.55844">
        <ele>1036.01</ele>
        <time>2019-08-27T13:03:25Z</time>
      </trkpt>
      <trkpt lat="45.10292" lon="5.55845">
        <ele>1037.38</ele>
        <time>2019-08-27T13:03:45Z</time>
      </trkpt>
      <trkpt lat="45.1029" lon="5.55844">
        <ele>1037.18</ele>
        <time>2019-08-27T13:04:09Z</time>
      </trkpt>
      <trkpt lat="45.10289" lon="5.55846">
        <ele>1037.04</ele>
        <time>2019-08-27T13:04:41Z</time>
      </trkpt>
      <trkpt lat="45.10272" lon="5.55869">
        <ele>1036.75</ele>
        <time>2019-08-27T13:04:52Z</time>
      </trkpt>
      <trkpt lat="45.10254" lon="5.55908">
        <ele>1036.27</ele>
        <time>2019-08-27T13:05:02Z</time>
      </trkpt>
      <trkpt lat="45.10233" lon="5.55939">
        <ele>1035.86</ele>
        <time>2019-08-27T13:05:10Z</time>
      </trkpt>
      <trkpt lat="45.10232" lon="5.55986">
        <ele>1032.72</ele>
        <time>2019-08-27T13:05:17Z</time>
      </trkpt>
      <trkpt lat="45.10234" lon="5.55993">
        <ele>1032.03</ele>
        <time>2019-08-27T13:05:18Z</time>
      </trkpt>
      <trkpt lat="45.10238" lon="5.56">
        <ele>1031.3</ele>
        <time>2019-08-27T13:05:19Z</time>
      </trkpt>
      <trkpt lat="45.10253" lon="5.56022">
        <ele>1028.15</ele>
        <time>2019-08-27T13:05:23Z</time>
      </trkpt>
      <trkpt lat="45.10255" lon="5.5603">
        <ele>1027.45</ele>
        <time>2019-08-27T13:05:24Z</time>
      </trkpt>
      <trkpt lat="45.10256" lon="5.56039">
        <ele>1026.69</ele>
        <time>2019-08-27T13:05:25Z</time>
      </trkpt>
      <trkpt lat="45.10257" lon="5.56047">
        <ele>1025.9</ele>
        <time>2019-08-27T13:05:26Z</time>
      </trkpt>
      <trkpt lat="45.10257" lon="5.56055">
        <ele>1025.09</ele>
        <time>2019-08-27T13:05:27Z</time>
      </trkpt>
      <trkpt lat="45.10255" lon="5.56063">
        <ele>1024.24</ele>
        <time>2019-08-27T13:05:28Z</time>
      </trkpt>
      <trkpt lat="45.10253" lon="5.5607">
        <ele>1023.35</ele>
        <time>2019-08-27T13:05:29Z</time>
      </trkpt>
      <trkpt lat="45.10249" lon="5.56076">
        <ele>1022.45</ele>
        <time>2019-08-27T13:05:30Z</time>
      </trkpt>
      <trkpt lat="45.10243" lon="5.5608">
        <ele>1021.62</ele>
        <time>2019-08-27T13:05:31Z</time>
      </trkpt>
      <trkpt lat="45.10236" lon="5.56083">
        <ele>1020.86</ele>
        <time>2019-08-27T13:05:32Z</time>
      </trkpt>
      <trkpt lat="45.10229" lon="5.56084">
        <ele>1020.06</ele>
        <time>2019-08-27T13:05:33Z</time>
      </trkpt>
      <trkpt lat="45.10222" lon="5.56084">
        <ele>1019.2</ele>
        <time>2019-08-27T13:05:34Z</time>
      </trkpt>
      <trkpt lat="45.10215" lon="5.56083">
        <ele>1018.26</ele>
        <time>2019-08-27T13:05:35Z</time>
      </trkpt>
      <trkpt lat="45.10202" lon="5.56083">
        <ele>1016.31</ele>
        <time>2019-08-27T13:05:37Z</time>
      </trkpt>
      <trkpt lat="45.10197" lon="5.56084">
        <ele>1015.32</ele>
        <time>2019-08-27T13:05:38Z</time>
      </trkpt>
      <trkpt lat="45.10192" lon="5.56084">
        <ele>1013.38</ele>
        <time>2019-08-27T13:05:39Z</time>
      </trkpt>
      <trkpt lat="45.10187" lon="5.56084">
        <ele>1013.38</ele>
        <time>2019-08-27T13:05:40Z</time>
      </trkpt>
      <trkpt lat="45.10183" lon="5.56083">
        <ele>1011.4</ele>
        <time>2019-08-27T13:05:41Z</time>
      </trkpt>
      <trkpt lat="45.10178" lon="5.56082">
        <ele>1010.46</ele>
        <time>2019-08-27T13:05:42Z</time>
      </trkpt>
      <trkpt lat="45.10174" lon="5.5608">
        <ele>1009.6</ele>
        <time>2019-08-27T13:05:43Z</time>
      </trkpt>
      <trkpt lat="45.1017" lon="5.56078">
        <ele>1008.89</ele>
        <time>2019-08-27T13:05:44Z</time>
      </trkpt>
      <trkpt lat="45.10122" lon="5.56045">
        <ele>1005.8</ele>
        <time>2019-08-27T13:05:56Z</time>
      </trkpt>
      <trkpt lat="45.10085" lon="5.5602">
        <ele>1004.96</ele>
        <time>2019-08-27T13:06:05Z</time>
      </trkpt>
      <trkpt lat="45.10081" lon="5.56019">
        <ele>1004.92</ele>
        <time>2019-08-27T13:06:06Z</time>
      </trkpt>
      <trkpt lat="45.10078" lon="5.56019">
        <ele>1004.89</ele>
        <time>2019-08-27T13:06:07Z</time>
      </trkpt>
      <trkpt lat="45.10069" lon="5.56019">
        <ele>1004.72</ele>
        <time>2019-08-27T13:06:16Z</time>
      </trkpt>
      <trkpt lat="45.10069" lon="5.56022">
        <ele>1004.68</ele>
        <time>2019-08-27T13:06:28Z</time>
      </trkpt>
      <trkpt lat="45.10068" lon="5.56025">
        <ele>1004.66</ele>
        <time>2019-08-27T13:06:29Z</time>
      </trkpt>
      <trkpt lat="45.10058" lon="5.5605">
        <ele>1004.2</ele>
        <time>2019-08-27T13:06:35Z</time>
      </trkpt>
      <trkpt lat="45.10058" lon="5.56056">
        <ele>1004.08</ele>
        <time>2019-08-27T13:06:36Z</time>
      </trkpt>
      <trkpt lat="45.10058" lon="5.56061">
        <ele>1003.98</ele>
        <time>2019-08-27T13:06:37Z</time>
      </trkpt>
      <trkpt lat="45.10068" lon="5.56113">
        <ele>1003.31</ele>
        <time>2019-08-27T13:06:51Z</time>
      </trkpt>
      <trkpt lat="45.10077" lon="5.56188">
        <ele>1004.03</ele>
        <time>2019-08-27T13:07:08Z</time>
      </trkpt>
      <trkpt lat="45.10079" lon="5.56193">
        <ele>1004.03</ele>
        <time>2019-08-27T13:07:09Z</time>
      </trkpt>
      <trkpt lat="45.101" lon="5.56265">
        <ele>1003.57</ele>
        <time>2019-08-27T13:07:23Z</time>
      </trkpt>
      <trkpt lat="45.10097" lon="5.563">
        <ele>1004.6</ele>
        <time>2019-08-27T13:07:33Z</time>
      </trkpt>
      <trkpt lat="45.10095" lon="5.56302">
        <ele>1004.73</ele>
        <time>2019-08-27T13:07:34Z</time>
      </trkpt>
      <trkpt lat="45.10093" lon="5.56302">
        <ele>1004.85</ele>
        <time>2019-08-27T13:07:35Z</time>
      </trkpt>
      <trkpt lat="45.10091" lon="5.56301">
        <ele>1004.94</ele>
        <time>2019-08-27T13:07:36Z</time>
      </trkpt>
      <trkpt lat="45.10088" lon="5.56299">
        <ele>1005.01</ele>
        <time>2019-08-27T13:07:37Z</time>
      </trkpt>
      <trkpt lat="45.10086" lon="5.56297">
        <ele>1005.08</ele>
        <time>2019-08-27T13:07:38Z</time>
      </trkpt>
      <trkpt lat="45.10036" lon="5.56253">
        <ele>1004.45</ele>
        <time>2019-08-27T13:07:53Z</time>
      </trkpt>
      <trkpt lat="45.09975" lon="5.56197">
        <ele>1003.96</ele>
        <time>2019-08-27T13:08:10Z</time>
      </trkpt>
      <trkpt lat="45.09907" lon="5.56138">
        <ele>1003.26</ele>
        <time>2019-08-27T13:08:27Z</time>
      </trkpt>
      <trkpt lat="45.0983" lon="5.56069">
        <ele>1002.12</ele>
        <time>2019-08-27T13:08:47Z</time>
      </trkpt>
      <trkpt lat="45.09763" lon="5.56009">
        <ele>1001.39</ele>
        <time>2019-08-27T13:09:03Z</time>
      </trkpt>
      <trkpt lat="45.09695" lon="5.5595">
        <ele>1000.82</ele>
        <time>2019-08-27T13:09:20Z</time>
      </trkpt>
      <trkpt lat="45.09687" lon="5.55943">
        <ele>1000.8</ele>
        <time>2019-08-27T13:09:22Z</time>
      </trkpt>
      <trkpt lat="45.09628" lon="5.55891">
        <ele>1000.23</ele>
        <time>2019-08-27T13:09:36Z</time>
      </trkpt>
      <trkpt lat="45.09601" lon="5.55867">
        <ele>999.73</ele>
        <time>2019-08-27T13:09:46Z</time>
      </trkpt>
      <trkpt lat="45.0957" lon="5.55842">
        <ele>999.31</ele>
        <time>2019-08-27T13:10:00Z</time>
      </trkpt>
      <trkpt lat="45.0955" lon="5.55823">
        <ele>999.26</ele>
        <time>2019-08-27T13:10:15Z</time>
      </trkpt>
      <trkpt lat="45.09531" lon="5.55805">
        <ele>999.13</ele>
        <time>2019-08-27T13:10:27Z</time>
      </trkpt>
      <trkpt lat="45.0948" lon="5.55751">
        <ele>998.96</ele>
        <time>2019-08-27T13:10:43Z</time>
      </trkpt>
      <trkpt lat="45.09428" lon="5.55673">
        <ele>999.21</ele>
        <time>2019-08-27T13:11:01Z</time>
      </trkpt>
      <trkpt lat="45.09425" lon="5.5567">
        <ele>999.27</ele>
        <time>2019-08-27T13:11:02Z</time>
      </trkpt>
      <trkpt lat="45.09369" lon="5.55647">
        <ele>999.81</ele>
        <time>2019-08-27T13:11:17Z</time>
      </trkpt>
      <trkpt lat="45.09271" lon="5.55626">
        <ele>998.57</ele>
        <time>2019-08-27T13:11:38Z</time>
      </trkpt>
      <trkpt lat="45.09266" lon="5.55627">
        <ele>998.44</ele>
        <time>2019-08-27T13:11:39Z</time>
      </trkpt>
      <trkpt lat="45.09261" lon="5.55629">
        <ele>998.33</ele>
        <time>2019-08-27T13:11:40Z</time>
      </trkpt>
      <trkpt lat="45.09257" lon="5.55633">
        <ele>998.22</ele>
        <time>2019-08-27T13:11:41Z</time>
      </trkpt>
      <trkpt lat="45.09253" lon="5.55637">
        <ele>998.09</ele>
        <time>2019-08-27T13:11:42Z</time>
      </trkpt>
      <trkpt lat="45.09184" lon="5.55703">
        <ele>996.96</ele>
        <time>2019-08-27T13:11:59Z</time>
      </trkpt>
      <trkpt lat="45.09141" lon="5.55731">
        <ele>997.26</ele>
        <time>2019-08-27T13:12:12Z</time>
      </trkpt>
      <trkpt lat="45.09065" lon="5.55705">
        <ele>998.13</ele>
        <time>2019-08-27T13:12:32Z</time>
      </trkpt>
      <trkpt lat="45.0906" lon="5.55706">
        <ele>998.17</ele>
        <time>2019-08-27T13:12:33Z</time>
      </trkpt>
      <trkpt lat="45.09055" lon="5.55709">
        <ele>998.23</ele>
        <time>2019-08-27T13:12:34Z</time>
      </trkpt>
      <trkpt lat="45.09023" lon="5.55731">
        <ele>998.52</ele>
        <time>2019-08-27T13:12:40Z</time>
      </trkpt>
      <trkpt lat="45.09018" lon="5.55733">
        <ele>998.56</ele>
        <time>2019-08-27T13:12:41Z</time>
      </trkpt>
      <trkpt lat="45.09007" lon="5.55734">
        <ele>998.64</ele>
        <time>2019-08-27T13:12:43Z</time>
      </trkpt>
      <trkpt lat="45.09003" lon="5.55733">
        <ele>998.77</ele>
        <time>2019-08-27T13:12:44Z</time>
      </trkpt>
      <trkpt lat="45.08998" lon="5.55732">
        <ele>998.77</ele>
        <time>2019-08-27T13:12:45Z</time>
      </trkpt>
      <trkpt lat="45.08995" lon="5.5573">
        <ele>998.85</ele>
        <time>2019-08-27T13:12:46Z</time>
      </trkpt>
      <trkpt lat="45.08992" lon="5.55728">
        <ele>998.92</ele>
        <time>2019-08-27T13:12:47Z</time>
      </trkpt>
      <trkpt lat="45.08964" lon="5.55702">
        <ele>999.55</ele>
        <time>2019-08-27T13:13:02Z</time>
      </trkpt>
      <trkpt lat="45.08953" lon="5.55691">
        <ele>999.6</ele>
        <time>2019-08-27T13:13:12Z</time>
      </trkpt>
      <trkpt lat="45.0895" lon="5.5569">
        <ele>999.59</ele>
        <time>2019-08-27T13:13:13Z</time>
      </trkpt>
      <trkpt lat="45.08948" lon="5.55689">
        <ele>999.58</ele>
        <time>2019-08-27T13:13:14Z</time>
      </trkpt>
      <trkpt lat="45.08919" lon="5.55666">
        <ele>999.34</ele>
        <time>2019-08-27T13:13:30Z</time>
      </trkpt>
      <trkpt lat="45.08917" lon="5.55671">
        <ele>999.4</ele>
        <time>2019-08-27T13:13:38Z</time>
      </trkpt>
      <trkpt lat="45.08917" lon="5.55672">
        <ele>999.45</ele>
        <time>2019-08-27T13:13:39Z</time>
      </trkpt>
      <trkpt lat="45.08917" lon="5.5568">
        <ele>999.74</ele>
        <time>2019-08-27T13:13:44Z</time>
      </trkpt>
      <trkpt lat="45.0891" lon="5.55708">
        <ele>1000.07</ele>
        <time>2019-08-27T13:14:01Z</time>
      </trkpt>
      <trkpt lat="45.0891" lon="5.5573">
        <ele>1000.51</ele>
        <time>2019-08-27T13:14:14Z</time>
      </trkpt>
      <trkpt lat="45.08912" lon="5.5573">
        <ele>1000.48</ele>
        <time>2019-08-27T13:14:27Z</time>
      </trkpt>
      <trkpt lat="45.0891" lon="5.55729">
        <ele>1000.07</ele>
        <time>2019-08-27T13:14:57Z</time>
      </trkpt>
      <trkpt lat="45.08911" lon="5.55724">
        <ele>999.87</ele>
        <time>2019-08-27T13:15:13Z</time>
      </trkpt>
      <trkpt lat="45.08911" lon="5.55723">
        <ele>999.68</ele>
        <time>2019-08-27T13:15:23Z</time>
      </trkpt>
      <trkpt lat="45.08909" lon="5.55708">
        <ele>998.92</ele>
        <time>2019-08-27T13:15:42Z</time>
      </trkpt>
      <trkpt lat="45.0891" lon="5.55708">
        <ele>998.83</ele>
        <time>2019-08-27T13:16:03Z</time>
      </trkpt>
      <trkpt lat="45.08909" lon="5.557">
        <ele>998.14</ele>
        <time>2019-08-27T13:16:35Z</time>
      </trkpt>
      <trkpt lat="45.08916" lon="5.5568">
        <ele>998.22</ele>
        <time>2019-08-27T13:16:57Z</time>
      </trkpt>
      <trkpt lat="45.08917" lon="5.55676">
        <ele>997.78</ele>
        <time>2019-08-27T13:17:23Z</time>
      </trkpt>
      <trkpt lat="45.08917" lon="5.55675">
        <ele>997.51</ele>
        <time>2019-08-27T13:17:39Z</time>
      </trkpt>
      <trkpt lat="45.08918" lon="5.55671">
        <ele>997.48</ele>
        <time>2019-08-27T13:17:41Z</time>
      </trkpt>
      <trkpt lat="45.08918" lon="5.55668">
        <ele>997.46</ele>
        <time>2019-08-27T13:17:42Z</time>
      </trkpt>
      <trkpt lat="45.08917" lon="5.55665">
        <ele>997.43</ele>
        <time>2019-08-27T13:17:43Z</time>
      </trkpt>
      <trkpt lat="45.08915" lon="5.55662">
        <ele>997.38</ele>
        <time>2019-08-27T13:17:44Z</time>
      </trkpt>
      <trkpt lat="45.08912" lon="5.5566">
        <ele>997.33</ele>
        <time>2019-08-27T13:17:45Z</time>
      </trkpt>
      <trkpt lat="45.08872" lon="5.5562">
        <ele>996.72</ele>
        <time>2019-08-27T13:18:01Z</time>
      </trkpt>
      <trkpt lat="45.08823" lon="5.55582">
        <ele>995.87</ele>
        <time>2019-08-27T13:18:18Z</time>
      </trkpt>
      <trkpt lat="45.08776" lon="5.55548">
        <ele>994.97</ele>
        <time>2019-08-27T13:18:36Z</time>
      </trkpt>
      <trkpt lat="45.08725" lon="5.55522">
        <ele>994.88</ele>
        <time>2019-08-27T13:18:52Z</time>
      </trkpt>
      <trkpt lat="45.08681" lon="5.55503">
        <ele>994.43</ele>
        <time>2019-08-27T13:19:04Z</time>
      </trkpt>
      <trkpt lat="45.08632" lon="5.55486">
        <ele>994.2</ele>
        <time>2019-08-27T13:19:19Z</time>
      </trkpt>
      <trkpt lat="45.08589" lon="5.55476">
        <ele>993.56</ele>
        <time>2019-08-27T13:19:32Z</time>
      </trkpt>
      <trkpt lat="45.08563" lon="5.55473">
        <ele>993.42</ele>
        <time>2019-08-27T13:19:39Z</time>
      </trkpt>
      <trkpt lat="45.08525" lon="5.5548">
        <ele>993.14</ele>
        <time>2019-08-27T13:19:49Z</time>
      </trkpt>
      <trkpt lat="45.08523" lon="5.55478">
        <ele>993.08</ele>
        <time>2019-08-27T13:19:50Z</time>
      </trkpt>
      <trkpt lat="45.08521" lon="5.55474">
        <ele>993.02</ele>
        <time>2019-08-27T13:19:51Z</time>
      </trkpt>
      <trkpt lat="45.08521" lon="5.55469">
        <ele>992.96</ele>
        <time>2019-08-27T13:19:52Z</time>
      </trkpt>
      <trkpt lat="45.08521" lon="5.55464">
        <ele>992.92</ele>
        <time>2019-08-27T13:19:53Z</time>
      </trkpt>
      <trkpt lat="45.0851" lon="5.55423">
        <ele>992.61</ele>
        <time>2019-08-27T13:20:05Z</time>
      </trkpt>
      <trkpt lat="45.0851" lon="5.55416">
        <ele>992.84</ele>
        <time>2019-08-27T13:20:18Z</time>
      </trkpt>
      <trkpt lat="45.0851" lon="5.55414">
        <ele>992.84</ele>
        <time>2019-08-27T13:20:19Z</time>
      </trkpt>
      <trkpt lat="45.0851" lon="5.55412">
        <ele>992.84</ele>
        <time>2019-08-27T13:20:20Z</time>
      </trkpt>
      <trkpt lat="45.08511" lon="5.5541">
        <ele>992.84</ele>
        <time>2019-08-27T13:20:21Z</time>
      </trkpt>
      <trkpt lat="45.08512" lon="5.55408">
        <ele>992.85</ele>
        <time>2019-08-27T13:20:22Z</time>
      </trkpt>
      <trkpt lat="45.08514" lon="5.55406">
        <ele>992.86</ele>
        <time>2019-08-27T13:20:23Z</time>
      </trkpt>
      <trkpt lat="45.08516" lon="5.55405">
        <ele>992.86</ele>
        <time>2019-08-27T13:20:24Z</time>
      </trkpt>
      <trkpt lat="45.08519" lon="5.55405">
        <ele>992.86</ele>
        <time>2019-08-27T13:20:25Z</time>
      </trkpt>
      <trkpt lat="45.08521" lon="5.55404">
        <ele>992.86</ele>
        <time>2019-08-27T13:20:26Z</time>
      </trkpt>
      <trkpt lat="45.08522" lon="5.55402">
        <ele>992.84</ele>
        <time>2019-08-27T13:20:27Z</time>
      </trkpt>
      <trkpt lat="45.08523" lon="5.55398">
        <ele>992.78</ele>
        <time>2019-08-27T13:20:28Z</time>
      </trkpt>
      <trkpt lat="45.08524" lon="5.55393">
        <ele>992.72</ele>
        <time>2019-08-27T13:20:29Z</time>
      </trkpt>
      <trkpt lat="45.08525" lon="5.55388">
        <ele>992.66</ele>
        <time>2019-08-27T13:20:30Z</time>
      </trkpt>
      <trkpt lat="45.08529" lon="5.55356">
        <ele>991.9</ele>
        <time>2019-08-27T13:20:35Z</time>
      </trkpt>
      <trkpt lat="45.0853" lon="5.55283">
        <ele>990.1</ele>
        <time>2019-08-27T13:20:46Z</time>
      </trkpt>
      <trkpt lat="45.08529" lon="5.55276">
        <ele>989.95</ele>
        <time>2019-08-27T13:20:47Z</time>
      </trkpt>
      <trkpt lat="45.08526" lon="5.55269">
        <ele>989.79</ele>
        <time>2019-08-27T13:20:48Z</time>
      </trkpt>
      <trkpt lat="45.08515" lon="5.5523">
        <ele>988.96</ele>
        <time>2019-08-27T13:20:53Z</time>
      </trkpt>
      <trkpt lat="45.08514" lon="5.55222">
        <ele>988.76</ele>
        <time>2019-08-27T13:20:54Z</time>
      </trkpt>
      <trkpt lat="45.08513" lon="5.55213">
        <ele>988.54</ele>
        <time>2019-08-27T13:20:55Z</time>
      </trkpt>
      <trkpt lat="45.08512" lon="5.55204">
        <ele>988.3</ele>
        <time>2019-08-27T13:20:56Z</time>
      </trkpt>
      <trkpt lat="45.08512" lon="5.55194">
        <ele>988.07</ele>
        <time>2019-08-27T13:20:57Z</time>
      </trkpt>
      <trkpt lat="45.08509" lon="5.55144">
        <ele>986.59</ele>
        <time>2019-08-27T13:21:02Z</time>
      </trkpt>
      <trkpt lat="45.08503" lon="5.55098">
        <ele>985.16</ele>
        <time>2019-08-27T13:21:08Z</time>
      </trkpt>
      <trkpt lat="45.08502" lon="5.55093">
        <ele>985.09</ele>
        <time>2019-08-27T13:21:09Z</time>
      </trkpt>
      <trkpt lat="45.08499" lon="5.55088">
        <ele>985.04</ele>
        <time>2019-08-27T13:21:10Z</time>
      </trkpt>
      <trkpt lat="45.08496" lon="5.55084">
        <ele>984.99</ele>
        <time>2019-08-27T13:21:11Z</time>
      </trkpt>
      <trkpt lat="45.08492" lon="5.55081">
        <ele>984.95</ele>
        <time>2019-08-27T13:21:12Z</time>
      </trkpt>
      <trkpt lat="45.08488" lon="5.5508">
        <ele>984.91</ele>
        <time>2019-08-27T13:21:13Z</time>
      </trkpt>
      <trkpt lat="45.08434" lon="5.5508">
        <ele>984.57</ele>
        <time>2019-08-27T13:21:27Z</time>
      </trkpt>
      <trkpt lat="45.08381" lon="5.55068">
        <ele>984.64</ele>
        <time>2019-08-27T13:21:42Z</time>
      </trkpt>
      <trkpt lat="45.08323" lon="5.55054">
        <ele>984.37</ele>
        <time>2019-08-27T13:21:57Z</time>
      </trkpt>
      <trkpt lat="45.08257" lon="5.55018">
        <ele>983.49</ele>
        <time>2019-08-27T13:22:11Z</time>
      </trkpt>
      <trkpt lat="45.08173" lon="5.54974">
        <ele>983.19</ele>
        <time>2019-08-27T13:22:29Z</time>
      </trkpt>
      <trkpt lat="45.08169" lon="5.54972">
        <ele>983.25</ele>
        <time>2019-08-27T13:22:30Z</time>
      </trkpt>
      <trkpt lat="45.08165" lon="5.54969">
        <ele>983.31</ele>
        <time>2019-08-27T13:22:31Z</time>
      </trkpt>
      <trkpt lat="45.08141" lon="5.54957">
        <ele>983.53</ele>
        <time>2019-08-27T13:22:37Z</time>
      </trkpt>
      <trkpt lat="45.08132" lon="5.54953">
        <ele>983.52</ele>
        <time>2019-08-27T13:22:39Z</time>
      </trkpt>
      <trkpt lat="45.08125" lon="5.54947">
        <ele>983.54</ele>
        <time>2019-08-27T13:22:41Z</time>
      </trkpt>
      <trkpt lat="45.08117" lon="5.5494">
        <ele>983.59</ele>
        <time>2019-08-27T13:22:43Z</time>
      </trkpt>
      <trkpt lat="45.08113" lon="5.54937">
        <ele>983.62</ele>
        <time>2019-08-27T13:22:44Z</time>
      </trkpt>
      <trkpt lat="45.08087" lon="5.54911">
        <ele>983.66</ele>
        <time>2019-08-27T13:22:52Z</time>
      </trkpt>
      <trkpt lat="45.08083" lon="5.54909">
        <ele>983.66</ele>
        <time>2019-08-27T13:22:53Z</time>
      </trkpt>
      <trkpt lat="45.08029" lon="5.54882">
        <ele>984.02</ele>
        <time>2019-08-27T13:23:09Z</time>
      </trkpt>
      <trkpt lat="45.08022" lon="5.54881">
        <ele>984.14</ele>
        <time>2019-08-27T13:23:21Z</time>
      </trkpt>
      <trkpt lat="45.07984" lon="5.54872">
        <ele>984.11</ele>
        <time>2019-08-27T13:23:36Z</time>
      </trkpt>
      <trkpt lat="45.07932" lon="5.54863">
        <ele>983.38</ele>
        <time>2019-08-27T13:23:49Z</time>
      </trkpt>
      <trkpt lat="45.07886" lon="5.54863">
        <ele>984</ele>
        <time>2019-08-27T13:24:03Z</time>
      </trkpt>
      <trkpt lat="45.07839" lon="5.54848">
        <ele>986.05</ele>
        <time>2019-08-27T13:24:18Z</time>
      </trkpt>
      <trkpt lat="45.07792" lon="5.54832">
        <ele>987.13</ele>
        <time>2019-08-27T13:24:34Z</time>
      </trkpt>
      <trkpt lat="45.07723" lon="5.54799">
        <ele>985.73</ele>
        <time>2019-08-27T13:24:50Z</time>
      </trkpt>
      <trkpt lat="45.07663" lon="5.54769">
        <ele>984.98</ele>
        <time>2019-08-27T13:25:05Z</time>
      </trkpt>
      <trkpt lat="45.07604" lon="5.54739">
        <ele>984.04</ele>
        <time>2019-08-27T13:25:20Z</time>
      </trkpt>
      <trkpt lat="45.07561" lon="5.54721">
        <ele>983.9</ele>
        <time>2019-08-27T13:25:35Z</time>
      </trkpt>
      <trkpt lat="45.07555" lon="5.54718">
        <ele>983.76</ele>
        <time>2019-08-27T13:25:37Z</time>
      </trkpt>
      <trkpt lat="45.07531" lon="5.54712">
        <ele>983.18</ele>
        <time>2019-08-27T13:25:41Z</time>
      </trkpt>
      <trkpt lat="45.07478" lon="5.54685">
        <ele>979.75</ele>
        <time>2019-08-27T13:25:48Z</time>
      </trkpt>
      <trkpt lat="45.0747" lon="5.5468">
        <ele>979.31</ele>
        <time>2019-08-27T13:25:49Z</time>
      </trkpt>
      <trkpt lat="45.07463" lon="5.54675">
        <ele>978.87</ele>
        <time>2019-08-27T13:25:50Z</time>
      </trkpt>
      <trkpt lat="45.07407" lon="5.54633">
        <ele>976.21</ele>
        <time>2019-08-27T13:26:01Z</time>
      </trkpt>
      <trkpt lat="45.07406" lon="5.54633">
        <ele>975.62</ele>
        <time>2019-08-27T13:26:13Z</time>
      </trkpt>
      <trkpt lat="45.07403" lon="5.54635">
        <ele>975.58</ele>
        <time>2019-08-27T13:26:16Z</time>
      </trkpt>
      <trkpt lat="45.07402" lon="5.54637">
        <ele>975.57</ele>
        <time>2019-08-27T13:26:17Z</time>
      </trkpt>
      <trkpt lat="45.07391" lon="5.54649">
        <ele>975.56</ele>
        <time>2019-08-27T13:26:22Z</time>
      </trkpt>
      <trkpt lat="45.0739" lon="5.54653">
        <ele>975.57</ele>
        <time>2019-08-27T13:26:23Z</time>
      </trkpt>
      <trkpt lat="45.0739" lon="5.54657">
        <ele>975.59</ele>
        <time>2019-08-27T13:26:24Z</time>
      </trkpt>
      <trkpt lat="45.07383" lon="5.54707">
        <ele>975.65</ele>
        <time>2019-08-27T13:26:36Z</time>
      </trkpt>
      <trkpt lat="45.07382" lon="5.54773">
        <ele>976.28</ele>
        <time>2019-08-27T13:26:51Z</time>
      </trkpt>
      <trkpt lat="45.07371" lon="5.54795">
        <ele>977.42</ele>
        <time>2019-08-27T13:27:03Z</time>
      </trkpt>
      <trkpt lat="45.07372" lon="5.54798">
        <ele>977.53</ele>
        <time>2019-08-27T13:27:04Z</time>
      </trkpt>
      <trkpt lat="45.07373" lon="5.54818">
        <ele>978.16</ele>
        <time>2019-08-27T13:27:11Z</time>
      </trkpt>
      <trkpt lat="45.07372" lon="5.5482">
        <ele>978.25</ele>
        <time>2019-08-27T13:27:12Z</time>
      </trkpt>
      <trkpt lat="45.07371" lon="5.54821">
        <ele>978.36</ele>
        <time>2019-08-27T13:27:13Z</time>
      </trkpt>
      <trkpt lat="45.07369" lon="5.54821">
        <ele>978.59</ele>
        <time>2019-08-27T13:27:14Z</time>
      </trkpt>
      <trkpt lat="45.07368" lon="5.5482">
        <ele>978.69</ele>
        <time>2019-08-27T13:27:15Z</time>
      </trkpt>
      <trkpt lat="45.07366" lon="5.5482">
        <ele>978.78</ele>
        <time>2019-08-27T13:27:16Z</time>
      </trkpt>
      <trkpt lat="45.07365" lon="5.54819">
        <ele>978.84</ele>
        <time>2019-08-27T13:27:17Z</time>
      </trkpt>
      <trkpt lat="45.07363" lon="5.54818">
        <ele>978.92</ele>
        <time>2019-08-27T13:27:18Z</time>
      </trkpt>
      <trkpt lat="45.07362" lon="5.54816">
        <ele>979.04</ele>
        <time>2019-08-27T13:27:19Z</time>
      </trkpt>
      <trkpt lat="45.0736" lon="5.54815">
        <ele>979.2</ele>
        <time>2019-08-27T13:27:20Z</time>
      </trkpt>
      <trkpt lat="45.07359" lon="5.54813">
        <ele>979.35</ele>
        <time>2019-08-27T13:27:21Z</time>
      </trkpt>
      <trkpt lat="45.07341" lon="5.54789">
        <ele>981.29</ele>
        <time>2019-08-27T13:27:35Z</time>
      </trkpt>
      <trkpt lat="45.07316" lon="5.54773">
        <ele>982.96</ele>
        <time>2019-08-27T13:27:49Z</time>
      </trkpt>
      <trkpt lat="45.07289" lon="5.54765">
        <ele>984.91</ele>
        <time>2019-08-27T13:28:05Z</time>
      </trkpt>
      <trkpt lat="45.07269" lon="5.54767">
        <ele>986.21</ele>
        <time>2019-08-27T13:28:18Z</time>
      </trkpt>
      <trkpt lat="45.07245" lon="5.54771">
        <ele>987.92</ele>
        <time>2019-08-27T13:28:33Z</time>
      </trkpt>
      <trkpt lat="45.07222" lon="5.54772">
        <ele>990.38</ele>
        <time>2019-08-27T13:28:48Z</time>
      </trkpt>
      <trkpt lat="45.0722" lon="5.54771">
        <ele>990.47</ele>
        <time>2019-08-27T13:28:49Z</time>
      </trkpt>
      <trkpt lat="45.07188" lon="5.54758">
        <ele>991.09</ele>
        <time>2019-08-27T13:29:04Z</time>
      </trkpt>
      <trkpt lat="45.07142" lon="5.54734">
        <ele>990.7</ele>
        <time>2019-08-27T13:29:19Z</time>
      </trkpt>
      <trkpt lat="45.07101" lon="5.5472">
        <ele>990.51</ele>
        <time>2019-08-27T13:29:32Z</time>
      </trkpt>
      <trkpt lat="45.07056" lon="5.54701">
        <ele>990.44</ele>
        <time>2019-08-27T13:29:46Z</time>
      </trkpt>
      <trkpt lat="45.06993" lon="5.54694">
        <ele>990.46</ele>
        <time>2019-08-27T13:30:02Z</time>
      </trkpt>
      <trkpt lat="45.06984" lon="5.54694">
        <ele>990.44</ele>
        <time>2019-08-27T13:30:04Z</time>
      </trkpt>
      <trkpt lat="45.06923" lon="5.54691">
        <ele>989.76</ele>
        <time>2019-08-27T13:30:17Z</time>
      </trkpt>
      <trkpt lat="45.06918" lon="5.5469">
        <ele>989.66</ele>
        <time>2019-08-27T13:30:18Z</time>
      </trkpt>
      <trkpt lat="45.06904" lon="5.54693">
        <ele>989.44</ele>
        <time>2019-08-27T13:30:21Z</time>
      </trkpt>
      <trkpt lat="45.069" lon="5.54695">
        <ele>989.4</ele>
        <time>2019-08-27T13:30:22Z</time>
      </trkpt>
      <trkpt lat="45.06896" lon="5.54698">
        <ele>989.38</ele>
        <time>2019-08-27T13:30:23Z</time>
      </trkpt>
      <trkpt lat="45.06893" lon="5.54701">
        <ele>989.36</ele>
        <time>2019-08-27T13:30:24Z</time>
      </trkpt>
      <trkpt lat="45.06889" lon="5.54706">
        <ele>989.33</ele>
        <time>2019-08-27T13:30:25Z</time>
      </trkpt>
      <trkpt lat="45.06886" lon="5.54709">
        <ele>989.3</ele>
        <time>2019-08-27T13:30:26Z</time>
      </trkpt>
      <trkpt lat="45.06859" lon="5.54759">
        <ele>990.18</ele>
        <time>2019-08-27T13:30:39Z</time>
      </trkpt>
      <trkpt lat="45.06839" lon="5.54795">
        <ele>991.75</ele>
        <time>2019-08-27T13:30:52Z</time>
      </trkpt>
      <trkpt lat="45.0682" lon="5.54832">
        <ele>993.23</ele>
        <time>2019-08-27T13:31:05Z</time>
      </trkpt>
      <trkpt lat="45.06818" lon="5.54837">
        <ele>993.29</ele>
        <time>2019-08-27T13:31:07Z</time>
      </trkpt>
      <trkpt lat="45.06816" lon="5.54839">
        <ele>993.32</ele>
        <time>2019-08-27T13:31:08Z</time>
      </trkpt>
      <trkpt lat="45.06814" lon="5.54841">
        <ele>993.35</ele>
        <time>2019-08-27T13:31:09Z</time>
      </trkpt>
      <trkpt lat="45.06811" lon="5.54842">
        <ele>993.37</ele>
        <time>2019-08-27T13:31:10Z</time>
      </trkpt>
      <trkpt lat="45.06809" lon="5.54841">
        <ele>993.38</ele>
        <time>2019-08-27T13:31:11Z</time>
      </trkpt>
      <trkpt lat="45.06806" lon="5.5484">
        <ele>993.37</ele>
        <time>2019-08-27T13:31:12Z</time>
      </trkpt>
      <trkpt lat="45.06803" lon="5.54838">
        <ele>993.34</ele>
        <time>2019-08-27T13:31:13Z</time>
      </trkpt>
      <trkpt lat="45.068" lon="5.54834">
        <ele>993.31</ele>
        <time>2019-08-27T13:31:14Z</time>
      </trkpt>
      <trkpt lat="45.06768" lon="5.54787">
        <ele>991.47</ele>
        <time>2019-08-27T13:31:27Z</time>
      </trkpt>
      <trkpt lat="45.06764" lon="5.54784">
        <ele>991.5</ele>
        <time>2019-08-27T13:31:40Z</time>
      </trkpt>
      <trkpt lat="45.06762" lon="5.54785">
        <ele>991.03</ele>
        <time>2019-08-27T13:32:09Z</time>
      </trkpt>
      <trkpt lat="45.06762" lon="5.54784">
        <ele>990.9</ele>
        <time>2019-08-27T13:32:38Z</time>
      </trkpt>
      <trkpt lat="45.06758" lon="5.54775">
        <ele>990.78</ele>
        <time>2019-08-27T13:32:47Z</time>
      </trkpt>
      <trkpt lat="45.06757" lon="5.54773">
        <ele>990.77</ele>
        <time>2019-08-27T13:32:48Z</time>
      </trkpt>
      <trkpt lat="45.06756" lon="5.5477">
        <ele>990.75</ele>
        <time>2019-08-27T13:32:49Z</time>
      </trkpt>
      <trkpt lat="45.06754" lon="5.54768">
        <ele>990.75</ele>
        <time>2019-08-27T13:32:50Z</time>
      </trkpt>
      <trkpt lat="45.06751" lon="5.54768">
        <ele>990.73</ele>
        <time>2019-08-27T13:32:51Z</time>
      </trkpt>
      <trkpt lat="45.06748" lon="5.54767">
        <ele>990.7</ele>
        <time>2019-08-27T13:32:52Z</time>
      </trkpt>
      <trkpt lat="45.06745" lon="5.54767">
        <ele>990.64</ele>
        <time>2019-08-27T13:32:53Z</time>
      </trkpt>
      <trkpt lat="45.06716" lon="5.54773">
        <ele>991.68</ele>
        <time>2019-08-27T13:33:06Z</time>
      </trkpt>
      <trkpt lat="45.06707" lon="5.54775">
        <ele>992.88</ele>
        <time>2019-08-27T13:33:11Z</time>
      </trkpt>
      <trkpt lat="45.06705" lon="5.54776">
        <ele>993.14</ele>
        <time>2019-08-27T13:33:12Z</time>
      </trkpt>
      <trkpt lat="45.06684" lon="5.54783">
        <ele>996.23</ele>
        <time>2019-08-27T13:33:24Z</time>
      </trkpt>
      <trkpt lat="45.0666" lon="5.54791">
        <ele>998.95</ele>
        <time>2019-08-27T13:33:39Z</time>
      </trkpt>
      <trkpt lat="45.06635" lon="5.548">
        <ele>1001.17</ele>
        <time>2019-08-27T13:33:55Z</time>
      </trkpt>
      <trkpt lat="45.06628" lon="5.548">
        <ele>1001.53</ele>
        <time>2019-08-27T13:34:08Z</time>
      </trkpt>
      <trkpt lat="45.06615" lon="5.54804">
        <ele>1001.77</ele>
        <time>2019-08-27T13:34:20Z</time>
      </trkpt>
      <trkpt lat="45.06561" lon="5.54822">
        <ele>1002.43</ele>
        <time>2019-08-27T13:34:38Z</time>
      </trkpt>
      <trkpt lat="45.0652" lon="5.54835">
        <ele>1004.38</ele>
        <time>2019-08-27T13:34:55Z</time>
      </trkpt>
      <trkpt lat="45.06471" lon="5.54837">
        <ele>1004.28</ele>
        <time>2019-08-27T13:35:08Z</time>
      </trkpt>
      <trkpt lat="45.06388" lon="5.54823">
        <ele>1001.58</ele>
        <time>2019-08-27T13:35:20Z</time>
      </trkpt>
      <trkpt lat="45.06314" lon="5.54811">
        <ele>998.53</ele>
        <time>2019-08-27T13:35:29Z</time>
      </trkpt>
      <trkpt lat="45.06214" lon="5.54791">
        <ele>996.75</ele>
        <time>2019-08-27T13:35:44Z</time>
      </trkpt>
      <trkpt lat="45.06209" lon="5.54788">
        <ele>996.74</ele>
        <time>2019-08-27T13:35:45Z</time>
      </trkpt>
      <trkpt lat="45.06183" lon="5.5476">
        <ele>997.09</ele>
        <time>2019-08-27T13:35:54Z</time>
      </trkpt>
      <trkpt lat="45.06182" lon="5.54759">
        <ele>997.09</ele>
        <time>2019-08-27T13:35:55Z</time>
      </trkpt>
      <trkpt lat="45.06179" lon="5.54761">
        <ele>997.07</ele>
        <time>2019-08-27T13:35:58Z</time>
      </trkpt>
      <trkpt lat="45.06178" lon="5.54764">
        <ele>997.09</ele>
        <time>2019-08-27T13:35:59Z</time>
      </trkpt>
      <trkpt lat="45.06177" lon="5.54767">
        <ele>997.11</ele>
        <time>2019-08-27T13:36:00Z</time>
      </trkpt>
      <trkpt lat="45.06176" lon="5.54771">
        <ele>997.12</ele>
        <time>2019-08-27T13:36:01Z</time>
      </trkpt>
      <trkpt lat="45.06175" lon="5.54775">
        <ele>997.14</ele>
        <time>2019-08-27T13:36:02Z</time>
      </trkpt>
      <trkpt lat="45.06173" lon="5.54778">
        <ele>997.18</ele>
        <time>2019-08-27T13:36:03Z</time>
      </trkpt>
      <trkpt lat="45.06144" lon="5.5482">
        <ele>999.42</ele>
        <time>2019-08-27T13:36:18Z</time>
      </trkpt>
      <trkpt lat="45.06141" lon="5.54818">
        <ele>999.55</ele>
        <time>2019-08-27T13:36:19Z</time>
      </trkpt>
      <trkpt lat="45.06139" lon="5.54814">
        <ele>999.61</ele>
        <time>2019-08-27T13:36:20Z</time>
      </trkpt>
      <trkpt lat="45.06141" lon="5.54808">
        <ele>999.39</ele>
        <time>2019-08-27T13:36:21Z</time>
      </trkpt>
      <trkpt lat="45.06145" lon="5.54802">
        <ele>999.39</ele>
        <time>2019-08-27T13:36:22Z</time>
      </trkpt>
      <trkpt lat="45.06149" lon="5.54797">
        <ele>998.93</ele>
        <time>2019-08-27T13:36:23Z</time>
      </trkpt>
      <trkpt lat="45.06161" lon="5.54778">
        <ele>998.03</ele>
        <time>2019-08-27T13:36:26Z</time>
      </trkpt>
      <trkpt lat="45.06163" lon="5.54771">
        <ele>997.65</ele>
        <time>2019-08-27T13:36:27Z</time>
      </trkpt>
      <trkpt lat="45.06164" lon="5.54763">
        <ele>997.29</ele>
        <time>2019-08-27T13:36:28Z</time>
      </trkpt>
      <trkpt lat="45.06161" lon="5.54756">
        <ele>996.9</ele>
        <time>2019-08-27T13:36:29Z</time>
      </trkpt>
      <trkpt lat="45.06155" lon="5.54752">
        <ele>996.49</ele>
        <time>2019-08-27T13:36:30Z</time>
      </trkpt>
      <trkpt lat="45.0615" lon="5.5475">
        <ele>996.11</ele>
        <time>2019-08-27T13:36:31Z</time>
      </trkpt>
      <trkpt lat="45.06144" lon="5.5475">
        <ele>995.79</ele>
        <time>2019-08-27T13:36:32Z</time>
      </trkpt>
      <trkpt lat="45.06139" lon="5.54751">
        <ele>995.52</ele>
        <time>2019-08-27T13:36:33Z</time>
      </trkpt>
      <trkpt lat="45.06134" lon="5.54752">
        <ele>995.3</ele>
        <time>2019-08-27T13:36:34Z</time>
      </trkpt>
      <trkpt lat="45.06129" lon="5.54752">
        <ele>995.12</ele>
        <time>2019-08-27T13:36:35Z</time>
      </trkpt>
      <trkpt lat="45.06038" lon="5.54743">
        <ele>996.21</ele>
        <time>2019-08-27T13:36:53Z</time>
      </trkpt>
      <trkpt lat="45.05952" lon="5.54756">
        <ele>997.77</ele>
        <time>2019-08-27T13:37:11Z</time>
      </trkpt>
      <trkpt lat="45.05916" lon="5.54768">
        <ele>999.21</ele>
        <time>2019-08-27T13:37:21Z</time>
      </trkpt>
      <trkpt lat="45.05869" lon="5.5479">
        <ele>1001.41</ele>
        <time>2019-08-27T13:37:36Z</time>
      </trkpt>
      <trkpt lat="45.05863" lon="5.54791">
        <ele>1002.01</ele>
        <time>2019-08-27T13:37:40Z</time>
      </trkpt>
      <trkpt lat="45.05861" lon="5.54789">
        <ele>1002.12</ele>
        <time>2019-08-27T13:37:41Z</time>
      </trkpt>
      <trkpt lat="45.05861" lon="5.54786">
        <ele>1002.21</ele>
        <time>2019-08-27T13:37:42Z</time>
      </trkpt>
      <trkpt lat="45.0586" lon="5.54783">
        <ele>1002.29</ele>
        <time>2019-08-27T13:37:43Z</time>
      </trkpt>
      <trkpt lat="45.0586" lon="5.54779">
        <ele>1002.35</ele>
        <time>2019-08-27T13:37:44Z</time>
      </trkpt>
      <trkpt lat="45.05859" lon="5.54776">
        <ele>1002.38</ele>
        <time>2019-08-27T13:37:45Z</time>
      </trkpt>
      <trkpt lat="45.05851" lon="5.54723">
        <ele>1002.1</ele>
        <time>2019-08-27T13:37:58Z</time>
      </trkpt>
      <trkpt lat="45.05836" lon="5.54678">
        <ele>1001.86</ele>
        <time>2019-08-27T13:38:11Z</time>
      </trkpt>
      <trkpt lat="45.05834" lon="5.54677">
        <ele>1001.84</ele>
        <time>2019-08-27T13:38:12Z</time>
      </trkpt>
      <trkpt lat="45.05832" lon="5.54677">
        <ele>1001.82</ele>
        <time>2019-08-27T13:38:13Z</time>
      </trkpt>
      <trkpt lat="45.05831" lon="5.54677">
        <ele>1001.79</ele>
        <time>2019-08-27T13:38:14Z</time>
      </trkpt>
      <trkpt lat="45.0583" lon="5.54679">
        <ele>1001.78</ele>
        <time>2019-08-27T13:38:15Z</time>
      </trkpt>
      <trkpt lat="45.05828" lon="5.5468">
        <ele>1001.8</ele>
        <time>2019-08-27T13:38:16Z</time>
      </trkpt>
      <trkpt lat="45.05822" lon="5.54691">
        <ele>1001.9</ele>
        <time>2019-08-27T13:38:23Z</time>
      </trkpt>
      <trkpt lat="45.05814" lon="5.5469">
        <ele>1001.83</ele>
        <time>2019-08-27T13:38:27Z</time>
      </trkpt>
      <trkpt lat="45.05809" lon="5.54681">
        <ele>1001.98</ele>
        <time>2019-08-27T13:38:38Z</time>
      </trkpt>
      <trkpt lat="45.05811" lon="5.54677">
        <ele>1001.23</ele>
        <time>2019-08-27T13:38:59Z</time>
      </trkpt>
      <trkpt lat="45.0581" lon="5.54674">
        <ele>1001.9</ele>
        <time>2019-08-27T13:39:17Z</time>
      </trkpt>
      <trkpt lat="45.0581" lon="5.54675">
        <ele>1001.76</ele>
        <time>2019-08-27T13:40:03Z</time>
      </trkpt>
      <trkpt lat="45.05808" lon="5.54678">
        <ele>1001.6</ele>
        <time>2019-08-27T13:40:52Z</time>
      </trkpt>
      <trkpt lat="45.05809" lon="5.54676">
        <ele>1001.54</ele>
        <time>2019-08-27T13:41:26Z</time>
      </trkpt>
      <trkpt lat="45.05807" lon="5.5468">
        <ele>1001.8</ele>
        <time>2019-08-27T13:41:39Z</time>
      </trkpt>
      <trkpt lat="45.05809" lon="5.54685">
        <ele>1001.61</ele>
        <time>2019-08-27T13:41:53Z</time>
      </trkpt>
      <trkpt lat="45.05811" lon="5.54692">
        <ele>1001.63</ele>
        <time>2019-08-27T13:42:25Z</time>
      </trkpt>
      <trkpt lat="45.05815" lon="5.54697">
        <ele>1001.83</ele>
        <time>2019-08-27T13:42:30Z</time>
      </trkpt>
      <trkpt lat="45.05817" lon="5.54711">
        <ele>1001.47</ele>
        <time>2019-08-27T13:42:42Z</time>
      </trkpt>
      <trkpt lat="45.05821" lon="5.54726">
        <ele>1001.33</ele>
        <time>2019-08-27T13:42:59Z</time>
      </trkpt>
      <trkpt lat="45.05822" lon="5.54726">
        <ele>1001.32</ele>
        <time>2019-08-27T13:43:00Z</time>
      </trkpt>
      <trkpt lat="45.05828" lon="5.54728">
        <ele>1000.88</ele>
        <time>2019-08-27T13:43:15Z</time>
      </trkpt>
      <trkpt lat="45.05834" lon="5.54725">
        <ele>1001.25</ele>
        <time>2019-08-27T13:44:15Z</time>
      </trkpt>
      <trkpt lat="45.05832" lon="5.54726">
        <ele>1000.94</ele>
        <time>2019-08-27T13:44:34Z</time>
      </trkpt>
      <trkpt lat="45.05827" lon="5.54727">
        <ele>1000.95</ele>
        <time>2019-08-27T13:44:50Z</time>
      </trkpt>
      <trkpt lat="45.05825" lon="5.54732">
        <ele>995.86</ele>
        <time>2019-08-27T13:45:13Z</time>
      </trkpt>
    </trkseg>
  </trk>
</gpx>